| time (UTC) | temp F | wind direction | speed knots | gust knots | rain 1hr in | rain 24hr in | rain mn in | humidity % | barometer mb |
| 20260510205230 | 75 | 298 | 2.6 | 5.2 | 0.00 | 0.00 | 0.00 | 50 | 1013.6 |
| 20260510205128 | 75 | 323 | 1.7 | 5.2 | 0.00 | 0.00 | 0.00 | 49 | 1013.6 |
| 20260510205027 | 75 | 226 | 1.7 | 5.2 | 0.00 | 0.00 | 0.00 | 50 | 1013.6 |
| 20260510204925 | 75 | 329 | 0.9 | 5.2 | 0.00 | 0.00 | 0.00 | 48 | 1013.6 |
| 20260510204825 | 75 | 328 | 0.9 | 5.2 | 0.00 | 0.00 | 0.00 | 47 | 1013.6 |
| 20260510204725 | 75 | 151 | 2.6 | 5.2 | 0.00 | 0.00 | 0.00 | 47 | 1013.6 |
| 20260510204655 | 75 | 291 | 3.5 | 5.2 | 0.00 | 0.00 | 0.00 | 47 | 1013.6 |
| 20260510204540 | 75 | 326 | 1.7 | 5.2 | 0.00 | 0.00 | 0.00 | 48 | 1013.6 |
| 20260510204438 | 75 | 329 | 0.0 | 5.2 | 0.00 | 0.00 | 0.00 | 48 | 1013.6 |
| 20260510204336 | 75 | 328 | 0.9 | 5.2 | 0.00 | 0.00 | 0.00 | 48 | 1013.8 |
| 20260510204235 | 75 | 65 | 2.6 | 5.2 | 0.00 | 0.00 | 0.00 | 47 | 1013.8 |
| 20260510204133 | 75 | 329 | 1.7 | 2.6 | 0.00 | 0.00 | 0.00 | 47 | 1013.8 |
| 20260510204032 | 75 | 325 | 1.7 | 2.6 | 0.00 | 0.00 | 0.00 | 51 | 1013.8 |
| 20260510203929 | 75 | 329 | 0.9 | 4.3 | 0.00 | 0.00 | 0.00 | 51 | 1013.8 |
| 20260510203831 | 75 | 328 | 0.0 | 4.3 | 0.00 | 0.00 | 0.00 | 51 | 1013.8 |
| 20260510203749 | 75 | 328 | 0.0 | 4.3 | 0.00 | 0.00 | 0.00 | 49 | 1013.8 |
| 20260510203627 | 75 | 292 | 0.9 | 4.3 | 0.00 | 0.00 | 0.00 | 48 | 1013.8 |
| 20260510203529 | 75 | 328 | 0.9 | 4.3 | 0.00 | 0.00 | 0.00 | 49 | 1013.8 |
| 20260510203448 | 75 | 329 | 0.0 | 4.3 | 0.00 | 0.00 | 0.00 | 48 | 1013.8 |
| 20260510203325 | 75 | 328 | 0.0 | 5.2 | 0.00 | 0.00 | 0.00 | 47 | 1013.8 |
| 20260510203235 | 75 | 328 | 0.0 | 5.2 | 0.00 | 0.00 | 0.00 | 48 | 1013.8 |
| 20260510203147 | 75 | 328 | 0.9 | 5.2 | 0.00 | 0.00 | 0.00 | 48 | 1013.8 |
| 20260510203026 | 75 | 329 | 2.6 | 5.2 | 0.00 | 0.00 | 0.00 | 47 | 1013.8 |
| 20260510202925 | 75 | 328 | 0.0 | 5.2 | 0.00 | 0.00 | 0.00 | 46 | 1013.8 |
| 20260510202843 | 75 | 328 | 0.0 | 5.2 | 0.00 | 0.00 | 0.00 | 46 | 1014.1 |
| 20260510202742 | 75 | 325 | 0.0 | 5.2 | 0.00 | 0.00 | 0.00 | 47 | 1014.1 |
| 20260510202641 | 75 | 328 | 0.9 | 5.2 | 0.00 | 0.00 | 0.00 | 50 | 1014.1 |
| 20260510202559 | 75 | 315 | 1.7 | 5.2 | 0.00 | 0.00 | 0.00 | 49 | 1014.1 |
| 20260510202437 | 75 | 329 | 0.0 | 5.2 | 0.00 | 0.00 | 0.00 | 50 | 1014.1 |
| 20260510202335 | 75 | 326 | 0.0 | 7.8 | 0.00 | 0.00 | 0.00 | 50 | 1014.1 |
| 20260510202237 | 75 | 329 | 0.0 | 7.8 | 0.00 | 0.00 | 0.00 | 50 | 1014.1 |
| 20260510202136 | 75 | 328 | 0.9 | 7.8 | 0.00 | 0.00 | 0.00 | 49 | 1014.1 |
| 20260510202034 | 75 | 328 | 0.0 | 7.8 | 0.00 | 0.00 | 0.00 | 50 | 1014.1 |
| 20260510201933 | 75 | 320 | 1.7 | 7.8 | 0.00 | 0.00 | 0.00 | 51 | 1014.1 |
| 20260510201832 | 75 | 326 | 4.3 | 7.8 | 0.00 | 0.00 | 0.00 | 51 | 1014.1 |
| 20260510201752 | 75 | 328 | 2.6 | 7.8 | 0.00 | 0.00 | 0.00 | 52 | 1014.1 |
| 20260510201722 | 75 | 284 | 2.6 | 7.8 | 0.00 | 0.00 | 0.00 | 51 | 1014.1 |
| 20260510201600 | 75 | 320 | 4.3 | 7.8 | 0.00 | 0.00 | 0.00 | 51 | 1014.1 |
| 20260510201442 | 75 | 328 | 4.3 | 7.8 | 0.00 | 0.00 | 0.00 | 50 | 1014.1 |
| 20260510201340 | 75 | 328 | 1.7 | 5.2 | 0.00 | 0.00 | 0.00 | 52 | 1014.1 |
| 20260510201238 | 75 | 328 | 0.9 | 6.1 | 0.00 | 0.00 | 0.00 | 51 | 1014.1 |
| 20260510201157 | 75 | 325 | 0.9 | 6.1 | 0.00 | 0.00 | 0.00 | 52 | 1014.1 |
| 20260510201035 | 75 | 318 | 1.7 | 6.1 | 0.00 | 0.00 | 0.00 | 52 | 1014.1 |
| 20260510200938 | 75 | 328 | 0.0 | 6.1 | 0.00 | 0.00 | 0.00 | 51 | 1014.1 |
| 20260510200835 | 75 | 328 | 0.0 | 6.1 | 0.00 | 0.00 | 0.00 | 51 | 1014.1 |
| 20260510200737 | 75 | 329 | 0.9 | 6.1 | 0.00 | 0.00 | 0.00 | 50 | 1014.1 |
| 20260510200636 | 75 | 325 | 0.9 | 6.1 | 0.00 | 0.00 | 0.00 | 51 | 1014.1 |
| 20260510200534 | 75 | 328 | 0.9 | 6.1 | 0.00 | 0.00 | 0.00 | 53 | 1014.1 |
| 20260510200432 | 75 | 315 | 4.3 | 6.1 | 0.00 | 0.00 | 0.00 | 53 | 1014.1 |
| 20260510200331 | 75 | 304 | 3.5 | 6.1 | 0.00 | 0.00 | 0.00 | 53 | 1014.1 |
| 20260510200249 | 75 | 330 | 0.9 | 5.2 | 0.00 | 0.00 | 0.00 | 50 | 1014.1 |
| 20260510200200 | 75 | 329 | 0.9 | 5.2 | 0.00 | 0.00 | 0.00 | 50 | 1014.1 |
| 20260510200041 | 75 | 329 | 0.0 | 5.2 | 0.00 | 0.00 | 0.00 | 49 | 1014.1 |
| 20260510195939 | 75 | 328 | 0.9 | 5.2 | 0.00 | 0.00 | 0.00 | 50 | 1014.1 |
| 20260510195837 | 75 | 328 | 1.7 | 5.2 | 0.00 | 0.00 | 0.00 | 49 | 1014.1 |
| 20260510195736 | 75 | 318 | 1.7 | 5.2 | 0.00 | 0.00 | 0.00 | 48 | 1014.1 |
| 20260510195635 | 75 | 319 | 0.0 | 5.2 | 0.00 | 0.00 | 0.00 | 50 | 1014.1 |
| 20260510195534 | 75 | 328 | 0.0 | 5.2 | 0.00 | 0.00 | 0.00 | 49 | 1014.1 |
| 20260510195432 | 75 | 328 | 0.0 | 7.0 | 0.00 | 0.00 | 0.00 | 49 | 1014.1 |
| 20260510195337 | 75 | 320 | 2.6 | 7.0 | 0.00 | 0.00 | 0.00 | 50 | 1014.1 |
| 20260510195236 | 75 | 328 | 1.7 | 7.0 | 0.00 | 0.00 | 0.00 | 50 | 1014.1 |
| 20260510195155 | 75 | 329 | 0.9 | 7.0 | 0.00 | 0.00 | 0.00 | 50 | 1014.1 |
| 20260510195032 | 75 | 304 | 0.9 | 7.0 | 0.00 | 0.00 | 0.00 | 52 | 1014.1 |
| 20260510194931 | 75 | 318 | 0.9 | 7.0 | 0.00 | 0.00 | 0.00 | 53 | 1014.1 |
| 20260510194851 | 75 | 328 | 1.7 | 7.0 | 0.00 | 0.00 | 0.00 | 53 | 1014.1 |
| 20260510194811 | 75 | 328 | 3.5 | 7.0 | 0.00 | 0.00 | 0.00 | 53 | 1014.1 |
| 20260510194719 | 75 | 329 | 5.2 | 7.0 | 0.00 | 0.00 | 0.00 | 54 | 1014.1 |
| 20260510194536 | 75 | 328 | 4.3 | 7.0 | 0.00 | 0.00 | 0.00 | 53 | 1014.1 |
| 20260510194440 | 75 | 329 | 2.6 | 6.1 | 0.00 | 0.00 | 0.00 | 53 | 1014.1 |
| 20260510194338 | 75 | 328 | 0.9 | 5.2 | 0.00 | 0.00 | 0.00 | 53 | 1014.1 |
| 20260510194238 | 75 | 326 | 1.7 | 5.2 | 0.00 | 0.00 | 0.00 | 51 | 1014.1 |
| 20260510194137 | 75 | 336 | 1.7 | 5.2 | 0.00 | 0.00 | 0.00 | 50 | 1014.1 |
| 20260510194036 | 75 | 328 | 0.9 | 5.2 | 0.00 | 0.00 | 0.00 | 52 | 1014.1 |
| 20260510193936 | 75 | 328 | 1.7 | 5.2 | 0.00 | 0.00 | 0.00 | 53 | 1014.1 |
| 20260510193837 | 75 | 326 | 3.5 | 5.2 | 0.00 | 0.00 | 0.00 | 55 | 1014.1 |
| 20260510193736 | 75 | 328 | 2.6 | 5.2 | 0.00 | 0.00 | 0.00 | 56 | 1014.1 |
| 20260510193634 | 75 | 328 | 0.9 | 5.2 | 0.00 | 0.00 | 0.00 | 54 | 1014.1 |
| 20260510193532 | 75 | 328 | 1.7 | 5.2 | 0.00 | 0.00 | 0.00 | 55 | 1014.1 |
| 20260510193430 | 75 | 328 | 2.6 | 5.2 | 0.00 | 0.00 | 0.00 | 56 | 1014.1 |
| 20260510193328 | 75 | 326 | 2.6 | 5.2 | 0.00 | 0.00 | 0.00 | 55 | 1014.1 |
| 20260510193227 | 75 | 316 | 2.6 | 5.2 | 0.00 | 0.00 | 0.00 | 53 | 1014.1 |
| 20260510193201 | 75 | 328 | 0.9 | 5.2 | 0.00 | 0.00 | 0.00 | 53 | 1014.1 |
| 20260510193038 | 75 | 328 | 0.0 | 5.2 | 0.00 | 0.00 | 0.00 | 52 | 1014.1 |
| 20260510192956 | 75 | 325 | 0.0 | 5.2 | 0.00 | 0.00 | 0.00 | 53 | 1014.1 |
| 20260510192853 | 75 | 329 | 2.6 | 5.2 | 0.00 | 0.00 | 0.00 | 55 | 1014.2 |
| 20260510192731 | 75 | 313 | 3.5 | 5.2 | 0.00 | 0.00 | 0.00 | 56 | 1014.2 |
| 20260510192649 | 75 | 328 | 3.5 | 5.2 | 0.00 | 0.00 | 0.00 | 56 | 1014.2 |
| 20260510192546 | 74 | 319 | 0.9 | 4.3 | 0.00 | 0.00 | 0.00 | 55 | 1014.2 |
| 20260510192426 | 74 | 329 | 1.7 | 4.3 | 0.00 | 0.00 | 0.00 | 55 | 1014.2 |
| 20260510192326 | 74 | 328 | 1.7 | 3.5 | 0.00 | 0.00 | 0.00 | 53 | 1014.2 |
| 20260510192229 | 74 | 319 | 0.0 | 2.6 | 0.00 | 0.00 | 0.00 | 53 | 1014.2 |
| 20260510192129 | 74 | 328 | 0.0 | 4.3 | 0.00 | 0.00 | 0.00 | 52 | 1014.2 |
| 20260510192031 | 74 | 329 | 0.9 | 5.2 | 0.00 | 0.00 | 0.00 | 52 | 1014.2 |
| 20260510191929 | 74 | 325 | 0.0 | 5.2 | 0.00 | 0.00 | 0.00 | 53 | 1014.2 |
| 20260510191829 | 74 | 328 | 0.0 | 5.2 | 0.00 | 0.00 | 0.00 | 54 | 1014.2 |
| 20260510191739 | 74 | 325 | 0.0 | 5.2 | 0.00 | 0.00 | 0.00 | 54 | 1014.2 |
| 20260510191648 | 74 | 329 | 0.0 | 5.2 | 0.00 | 0.00 | 0.00 | 54 | 1014.2 |
| 20260510191530 | 74 | 328 | 1.7 | 5.2 | 0.00 | 0.00 | 0.00 | 53 | 1014.2 |
| 20260510191429 | 74 | 329 | 1.7 | 5.2 | 0.00 | 0.00 | 0.00 | 54 | 1014.2 |
| 20260510191328 | 75 | 319 | 0.9 | 5.2 | 0.00 | 0.00 | 0.00 | 56 | 1014.4 |
| 20260510191245 | 75 | 328 | 2.6 | 5.2 | 0.00 | 0.00 | 0.00 | 56 | 1014.4 |
| 20260510191143 | 75 | 325 | 1.7 | 5.2 | 0.00 | 0.00 | 0.00 | 55 | 1014.4 |
| 20260510191040 | 75 | 328 | 0.0 | 5.2 | 0.00 | 0.00 | 0.00 | 54 | 1014.4 |
| 20260510190939 | 75 | 318 | 0.9 | 5.2 | 0.00 | 0.00 | 0.00 | 55 | 1014.4 |
| 20260510190837 | 75 | 325 | 0.0 | 5.2 | 0.00 | 0.00 | 0.00 | 55 | 1014.4 |
| 20260510190739 | 75 | 326 | 0.0 | 5.2 | 0.00 | 0.00 | 0.00 | 56 | 1014.4 |
| 20260510190638 | 75 | 328 | 0.9 | 6.1 | 0.00 | 0.00 | 0.00 | 57 | 1014.4 |
| 20260510190536 | 75 | 328 | 2.6 | 6.1 | 0.00 | 0.00 | 0.00 | 56 | 1014.4 |
| 20260510190454 | 75 | 329 | 2.6 | 6.1 | 0.00 | 0.00 | 0.00 | 56 | 1014.4 |
| 20260510190331 | 74 | 319 | 0.0 | 6.1 | 0.00 | 0.00 | 0.00 | 56 | 1014.4 |
| 20260510190239 | 74 | 318 | 1.7 | 6.1 | 0.00 | 0.00 | 0.00 | 56 | 1014.4 |
| 20260510190149 | 74 | 323 | 1.7 | 6.1 | 0.00 | 0.00 | 0.00 | 56 | 1014.4 |
| 20260510190029 | 74 | 325 | 1.7 | 6.1 | 0.00 | 0.00 | 0.00 | 56 | 1014.4 |
| 20260510185927 | 74 | 319 | 2.6 | 6.1 | 0.00 | 0.00 | 0.00 | 53 | 1014.4 |
| 20260510185827 | 75 | 326 | 2.6 | 6.1 | 0.00 | 0.00 | 0.00 | 54 | 1014.4 |
| 20260510185725 | 75 | 328 | 5.2 | 6.1 | 0.00 | 0.00 | 0.00 | 54 | 1014.4 |
| 20260510185625 | 75 | 328 | 5.2 | 6.1 | 0.00 | 0.00 | 0.00 | 53 | 1014.4 |
| 20260510185543 | 75 | 328 | 3.5 | 5.2 | 0.00 | 0.00 | 0.00 | 55 | 1014.4 |
| 20260510185442 | 75 | 329 | 1.7 | 5.2 | 0.00 | 0.00 | 0.00 | 53 | 1014.4 |
| 20260510185345 | 75 | 329 | 0.0 | 5.2 | 0.00 | 0.00 | 0.00 | 53 | 1014.4 |
| 20260510185242 | 75 | 326 | 1.7 | 5.2 | 0.00 | 0.00 | 0.00 | 52 | 1014.4 |
| 20260510185140 | 75 | 328 | 1.7 | 5.2 | 0.00 | 0.00 | 0.00 | 53 | 1014.4 |
| 20260510184958 | 75 | 328 | 1.7 | 5.2 | 0.00 | 0.00 | 0.00 | 53 | 1014.4 |
| 20260510184839 | 75 | 328 | 0.9 | 5.2 | 0.00 | 0.00 | 0.00 | 52 | 1014.4 |
| 20260510184736 | 75 | 322 | 0.9 | 5.2 | 0.00 | 0.00 | 0.00 | 53 | 1014.4 |
| 20260510184704 | 75 | 308 | 0.9 | 9.6 | 0.00 | 0.00 | 0.00 | 53 | 1014.4 |
| 20260510184526 | 75 | 272 | 0.0 | 9.6 | 0.00 | 0.00 | 0.00 | 52 | 1014.4 |
| 20260510184424 | 75 | 281 | 0.9 | 9.6 | 0.00 | 0.00 | 0.00 | 55 | 1014.4 |
| 20260510184342 | 75 | 326 | 2.6 | 9.6 | 0.00 | 0.00 | 0.00 | 54 | 1014.6 |
| 20260510184240 | 74 | 326 | 3.5 | 9.6 | 0.00 | 0.00 | 0.00 | 54 | 1014.6 |
| 20260510184138 | 74 | 326 | 1.7 | 9.6 | 0.00 | 0.00 | 0.00 | 55 | 1014.6 |
| 20260510184037 | 74 | 328 | 2.6 | 9.6 | 0.00 | 0.00 | 0.00 | 54 | 1014.6 |
| 20260510183935 | 74 | 328 | 1.7 | 9.6 | 0.00 | 0.00 | 0.00 | 54 | 1014.6 |
| 20260510183838 | 74 | 328 | 3.5 | 9.6 | 0.00 | 0.00 | 0.00 | 54 | 1014.6 |
| 20260510183736 | 74 | 326 | 1.7 | 9.6 | 0.00 | 0.00 | 0.00 | 54 | 1014.6 |
| 20260510183634 | 74 | 316 | 0.0 | 2.6 | 0.00 | 0.00 | 0.00 | 55 | 1014.6 |
| 20260510183533 | 74 | 322 | 0.9 | 2.6 | 0.00 | 0.00 | 0.00 | 55 | 1014.6 |
| 20260510183432 | 74 | 322 | 0.9 | 2.6 | 0.00 | 0.00 | 0.00 | 54 | 1014.6 |
| 20260510183331 | 74 | 322 | 0.9 | 2.6 | 0.00 | 0.00 | 0.00 | 55 | 1014.6 |
| 20260510183301 | 74 | 326 | 1.7 | 6.1 | 0.00 | 0.00 | 0.00 | 56 | 1014.6 |
| 20260510183153 | 74 | 322 | 1.7 | 6.1 | 0.00 | 0.00 | 0.00 | 54 | 1014.6 |
| 20260510183030 | 74 | 301 | 0.0 | 6.1 | 0.00 | 0.00 | 0.00 | 54 | 1014.6 |
| 20260510182928 | 74 | 294 | 0.9 | 6.1 | 0.00 | 0.00 | 0.00 | 53 | 1014.6 |
| 20260510182827 | 74 | 306 | 0.0 | 6.1 | 0.00 | 0.00 | 0.00 | 52 | 1014.7 |
| 20260510182745 | 74 | 325 | 0.9 | 6.1 | 0.00 | 0.00 | 0.00 | 52 | 1014.7 |
| 20260510182643 | 74 | 328 | 0.0 | 6.1 | 0.00 | 0.00 | 0.00 | 51 | 1014.7 |
| 20260510182541 | 74 | 329 | 0.9 | 6.1 | 0.00 | 0.00 | 0.00 | 52 | 1014.7 |
| 20260510182459 | 74 | 328 | 2.6 | 6.1 | 0.00 | 0.00 | 0.00 | 53 | 1014.7 |
| 20260510182356 | 74 | 299 | 3.5 | 6.1 | 0.00 | 0.00 | 0.00 | 52 | 1014.7 |
| 20260510182237 | 74 | 328 | 0.0 | 5.2 | 0.00 | 0.00 | 0.00 | 55 | 1014.7 |
| 20260510182157 | 74 | 308 | 0.0 | 5.2 | 0.00 | 0.00 | 0.00 | 56 | 1014.7 |
| 20260510182036 | 74 | 308 | 0.0 | 7.0 | 0.00 | 0.00 | 0.00 | 56 | 1014.7 |
| 20260510181935 | 74 | 308 | 0.0 | 8.7 | 0.00 | 0.00 | 0.00 | 56 | 1014.7 |
| 20260510181834 | 74 | 308 | 0.0 | 8.7 | 0.00 | 0.00 | 0.00 | 56 | 1014.7 |
| 20260510181741 | 74 | 312 | 0.9 | 8.7 | 0.00 | 0.00 | 0.00 | 54 | 1014.7 |
| 20260510181650 | 74 | 326 | 1.7 | 8.7 | 0.00 | 0.00 | 0.00 | 56 | 1014.7 |
| 20260510181528 | 74 | 328 | 0.0 | 8.7 | 0.00 | 0.00 | 0.00 | 57 | 1014.7 |
| 20260510181432 | 74 | 325 | 2.6 | 8.7 | 0.00 | 0.00 | 0.00 | 58 | 1014.7 |
| 20260510181330 | 74 | 319 | 2.6 | 8.7 | 0.00 | 0.00 | 0.00 | 57 | 1014.8 |
| 20260510181230 | 74 | 320 | 3.5 | 8.7 | 0.00 | 0.00 | 0.00 | 55 | 1014.8 |
| 20260510181129 | 74 | 320 | 6.1 | 8.7 | 0.00 | 0.00 | 0.00 | 58 | 1014.8 |
| 20260510181026 | 74 | 328 | 4.3 | 8.7 | 0.00 | 0.00 | 0.00 | 57 | 1014.8 |
| 20260510180924 | 74 | 325 | 3.5 | 6.1 | 0.00 | 0.00 | 0.00 | 56 | 1014.8 |
| 20260510180822 | 74 | 320 | 2.6 | 6.1 | 0.00 | 0.00 | 0.00 | 55 | 1014.8 |
| 20260510180747 | 75 | 330 | 0.0 | 6.1 | 0.00 | 0.00 | 0.00 | 55 | 1014.8 |
| 20260510180625 | 75 | 322 | 1.7 | 6.1 | 0.00 | 0.00 | 0.00 | 54 | 1014.8 |
| 20260510180544 | 75 | 315 | 2.6 | 6.1 | 0.00 | 0.00 | 0.00 | 55 | 1014.8 |
| 20260510180442 | 75 | 326 | 0.0 | 6.1 | 0.00 | 0.00 | 0.00 | 52 | 1014.8 |
| 20260510180340 | 74 | 328 | 0.0 | 6.1 | 0.00 | 0.00 | 0.00 | 52 | 1014.8 |
| 20260510180258 | 74 | 313 | 1.7 | 6.1 | 0.00 | 0.00 | 0.00 | 53 | 1014.8 |
| 20260510180230 | 74 | 325 | 3.5 | 6.1 | 0.00 | 0.00 | 0.00 | 56 | 1014.8 |
| 20260510180045 | 74 | 322 | 4.3 | 6.1 | 0.00 | 0.00 | 0.00 | 56 | 1014.8 |
| 20260510180003 | 74 | 315 | 2.6 | 5.2 | 0.00 | 0.00 | 0.00 | 56 | 1014.8 |
| 20260510175844 | 74 | 326 | 3.5 | 5.2 | 0.00 | 0.00 | 0.00 | 56 | 1014.9 |
| 20260510175802 | 74 | 332 | 2.6 | 5.2 | 0.00 | 0.00 | 0.00 | 54 | 1014.9 |
| 20260510175640 | 74 | 320 | 1.7 | 5.2 | 0.00 | 0.00 | 0.00 | 51 | 1014.9 |
| 20260510175541 | 74 | 326 | 0.9 | 4.3 | 0.00 | 0.00 | 0.00 | 51 | 1014.9 |
| 20260510175502 | 74 | 329 | 0.9 | 4.3 | 0.00 | 0.00 | 0.00 | 53 | 1014.9 |
| 20260510175339 | 74 | 328 | 0.9 | 4.3 | 0.00 | 0.00 | 0.00 | 55 | 1014.9 |
| 20260510175257 | 74 | 330 | 2.6 | 4.3 | 0.00 | 0.00 | 0.00 | 55 | 1014.9 |
| 20260510175136 | 74 | 328 | 1.7 | 4.3 | 0.00 | 0.00 | 0.00 | 56 | 1014.9 |
| 20260510175038 | 73 | 323 | 1.7 | 4.3 | 0.00 | 0.00 | 0.00 | 56 | 1014.9 |
| 20260510174936 | 73 | 322 | 1.7 | 4.3 | 0.00 | 0.00 | 0.00 | 54 | 1014.9 |
| 20260510174834 | 73 | 323 | 1.7 | 4.3 | 0.00 | 0.00 | 0.00 | 54 | 1014.9 |
| 20260510174703 | 73 | 323 | 0.0 | 6.1 | 0.00 | 0.00 | 0.00 | 55 | 1014.9 |
| 20260510174600 | 73 | 325 | 1.7 | 6.1 | 0.00 | 0.00 | 0.00 | 54 | 1014.9 |
| 20260510174438 | 73 | 326 | 0.9 | 6.1 | 0.00 | 0.00 | 0.00 | 52 | 1014.9 |
| 20260510174356 | 73 | 328 | 0.0 | 6.1 | 0.00 | 0.00 | 0.00 | 52 | 1015.1 |
| 20260510174235 | 73 | 328 | 0.0 | 6.1 | 0.00 | 0.00 | 0.00 | 52 | 1015.1 |
| 20260510174138 | 73 | 329 | 1.7 | 6.1 | 0.00 | 0.00 | 0.00 | 53 | 1015.1 |
| 20260510174035 | 72 | 333 | 3.5 | 6.1 | 0.00 | 0.00 | 0.00 | 54 | 1015.1 |
| 20260510173935 | 73 | 328 | 4.3 | 7.0 | 0.00 | 0.00 | 0.00 | 55 | 1015.1 |
| 20260510173832 | 73 | 328 | 1.7 | 7.0 | 0.00 | 0.00 | 0.00 | 58 | 1015.1 |
| 20260510173730 | 73 | 320 | 0.0 | 7.0 | 0.00 | 0.00 | 0.00 | 57 | 1015.1 |
| 20260510173629 | 73 | 323 | 3.5 | 7.0 | 0.00 | 0.00 | 0.00 | 56 | 1015.1 |
| 20260510173526 | 73 | 329 | 5.2 | 7.0 | 0.00 | 0.00 | 0.00 | 57 | 1015.1 |
| 20260510173448 | 73 | 329 | 4.3 | 7.0 | 0.00 | 0.00 | 0.00 | 56 | 1015.1 |
| 20260510173346 | 73 | 326 | 3.5 | 7.0 | 0.00 | 0.00 | 0.00 | 55 | 1015.1 |
| 20260510173243 | 73 | 319 | 3.5 | 7.0 | 0.00 | 0.00 | 0.00 | 55 | 1015.1 |
| 20260510173153 | 73 | 322 | 3.5 | 7.0 | 0.00 | 0.00 | 0.00 | 56 | 1015.1 |
| 20260510173029 | 73 | 323 | 2.6 | 6.1 | 0.00 | 0.00 | 0.00 | 56 | 1015.1 |
| 20260510172928 | 73 | 312 | 0.0 | 5.2 | 0.00 | 0.00 | 0.00 | 55 | 1015.1 |
| 20260510172825 | 73 | 313 | 0.0 | 5.2 | 0.00 | 0.00 | 0.00 | 53 | 1015.0 |
| 20260510172724 | 72 | 315 | 0.0 | 5.2 | 0.00 | 0.00 | 0.00 | 54 | 1015.0 |
| 20260510172627 | 72 | 326 | 0.0 | 5.2 | 0.00 | 0.00 | 0.00 | 59 | 1015.0 |
| 20260510172526 | 72 | 328 | 0.0 | 5.2 | 0.00 | 0.00 | 0.00 | 59 | 1015.0 |
| 20260510172424 | 72 | 329 | 0.9 | 5.2 | 0.00 | 0.00 | 0.00 | 60 | 1015.0 |
| 20260510172342 | 72 | 328 | 0.9 | 5.2 | 0.00 | 0.00 | 0.00 | 59 | 1015.0 |
| 20260510172301 | 72 | 311 | 0.9 | 5.2 | 0.00 | 0.00 | 0.00 | 58 | 1015.0 |
| 20260510172139 | 72 | 328 | 1.7 | 6.1 | 0.00 | 0.00 | 0.00 | 59 | 1015.0 |
| 20260510172038 | 73 | 329 | 1.7 | 7.0 | 0.00 | 0.00 | 0.00 | 61 | 1015.0 |
| 20260510171936 | 73 | 323 | 1.7 | 8.7 | 0.00 | 0.00 | 0.00 | 61 | 1015.0 |
| 20260510171838 | 73 | 328 | 0.9 | 8.7 | 0.00 | 0.00 | 0.00 | 61 | 1015.0 |
| 20260510171756 | 73 | 328 | 0.9 | 8.7 | 0.00 | 0.00 | 0.00 | 61 | 1015.0 |
| 20260510171705 | 73 | 328 | 2.6 | 8.7 | 0.00 | 0.00 | 0.00 | 61 | 1015.0 |
| 20260510171602 | 73 | 329 | 1.7 | 8.7 | 0.00 | 0.00 | 0.00 | 62 | 1015.0 |
| 20260510171440 | 73 | 328 | 3.5 | 8.7 | 0.00 | 0.00 | 0.00 | 62 | 1015.0 |
| 20260510171335 | 73 | 326 | 3.5 | 8.7 | 0.00 | 0.00 | 0.00 | 63 | 1015.2 |
| 20260510171234 | 73 | 329 | 3.5 | 8.7 | 0.00 | 0.00 | 0.00 | 64 | 1015.2 |
| 20260510171132 | 72 | 328 | 5.2 | 8.7 | 0.00 | 0.00 | 0.00 | 64 | 1015.2 |
| 20260510171038 | 72 | 329 | 2.6 | 6.1 | 0.00 | 0.00 | 0.00 | 65 | 1015.2 |
| 20260510170937 | 72 | 329 | 3.5 | 6.1 | 0.00 | 0.00 | 0.00 | 66 | 1015.2 |
| 20260510170834 | 72 | 328 | 3.5 | 6.1 | 0.00 | 0.00 | 0.00 | 65 | 1015.2 |
| 20260510170732 | 72 | 329 | 2.6 | 3.5 | 0.00 | 0.00 | 0.00 | 65 | 1015.2 |
| 20260510170650 | 72 | 330 | 0.9 | 3.5 | 0.00 | 0.00 | 0.00 | 65 | 1015.2 |
| 20260510170528 | 72 | 329 | 1.7 | 3.5 | 0.00 | 0.00 | 0.00 | 66 | 1015.2 |
| 20260510170447 | 72 | 329 | 1.7 | 3.5 | 0.00 | 0.00 | 0.00 | 65 | 1015.2 |
| 20260510170324 | 72 | 328 | 2.6 | 3.5 | 0.00 | 0.00 | 0.00 | 58 | 1015.2 |
| 20260510170237 | 72 | 320 | 1.7 | 3.5 | 0.00 | 0.00 | 0.00 | 58 | 1015.2 |
| 20260510170147 | 72 | 329 | 0.9 | 2.6 | 0.00 | 0.00 | 0.00 | 58 | 1015.2 |
| 20260510170044 | 72 | 329 | 0.9 | 4.3 | 0.00 | 0.00 | 0.00 | 58 | 1015.2 |
| 20260510165941 | 71 | 323 | 0.0 | 5.2 | 0.00 | 0.00 | 0.00 | 62 | 1015.2 |
| 20260510165839 | 71 | 328 | 0.0 | 5.2 | 0.00 | 0.00 | 0.00 | 61 | 1015.4 |
| 20260510165740 | 71 | 322 | 0.9 | 5.2 | 0.00 | 0.00 | 0.00 | 61 | 1015.4 |
| 20260510165640 | 71 | 328 | 1.7 | 5.2 | 0.00 | 0.00 | 0.00 | 61 | 1015.4 |
| 20260510165538 | 71 | 328 | 0.9 | 5.2 | 0.00 | 0.00 | 0.00 | 60 | 1015.4 |
| 20260510165440 | 71 | 329 | 0.9 | 5.2 | 0.00 | 0.00 | 0.00 | 61 | 1015.4 |
| 20260510165338 | 71 | 328 | 1.7 | 6.1 | 0.00 | 0.00 | 0.00 | 62 | 1015.4 |
| 20260510165236 | 71 | 329 | 1.7 | 8.7 | 0.00 | 0.00 | 0.00 | 66 | 1015.4 |
| 20260510165135 | 71 | 328 | 4.3 | 8.7 | 0.00 | 0.00 | 0.00 | 68 | 1015.4 |
| 20260510165053 | 71 | 326 | 3.5 | 8.7 | 0.00 | 0.00 | 0.00 | 68 | 1015.4 |
| 20260510164930 | 71 | 333 | 2.6 | 8.7 | 0.00 | 0.00 | 0.00 | 68 | 1015.4 |
| 20260510164828 | 71 | 326 | 1.7 | 8.7 | 0.00 | 0.00 | 0.00 | 68 | 1015.4 |
| 20260510164731 | 71 | 325 | 2.6 | 8.7 | 0.00 | 0.00 | 0.00 | 67 | 1015.4 |
| 20260510164700 | 71 | 329 | 2.6 | 8.7 | 0.00 | 0.00 | 0.00 | 67 | 1015.4 |
| 20260510164559 | 72 | 328 | 3.5 | 8.7 | 0.00 | 0.00 | 0.00 | 67 | 1015.4 |
| 20260510164437 | 72 | 326 | 3.5 | 8.7 | 0.00 | 0.00 | 0.00 | 66 | 1015.4 |
| 20260510164336 | 71 | 330 | 1.7 | 6.1 | 0.00 | 0.00 | 0.00 | 67 | 1015.5 |
| 20260510164236 | 71 | 326 | 1.7 | 4.3 | 0.00 | 0.00 | 0.00 | 67 | 1015.5 |
| 20260510164135 | 71 | 329 | 0.9 | 4.3 | 0.00 | 0.00 | 0.00 | 68 | 1015.5 |
| 20260510164054 | 71 | 329 | 2.6 | 5.2 | 0.00 | 0.00 | 0.00 | 70 | 1015.5 |
| 20260510163935 | 71 | 326 | 2.6 | 5.2 | 0.00 | 0.00 | 0.00 | 71 | 1015.5 |
| 20260510163833 | 71 | 329 | 2.6 | 5.2 | 0.00 | 0.00 | 0.00 | 71 | 1015.5 |
| 20260510163732 | 71 | 328 | 2.6 | 5.2 | 0.00 | 0.00 | 0.00 | 70 | 1015.5 |
| 20260510163630 | 71 | 320 | 1.7 | 5.2 | 0.00 | 0.00 | 0.00 | 71 | 1015.5 |
| 20260510163530 | 71 | 326 | 2.6 | 5.2 | 0.00 | 0.00 | 0.00 | 71 | 1015.5 |
| 20260510163429 | 71 | 323 | 2.6 | 5.2 | 0.00 | 0.00 | 0.00 | 73 | 1015.5 |
| 20260510163328 | 71 | 329 | 2.6 | 5.2 | 0.00 | 0.00 | 0.00 | 76 | 1015.5 |
| 20260510163258 | 71 | 328 | 4.3 | 5.2 | 0.00 | 0.00 | 0.00 | 76 | 1015.5 |
| 20260510163151 | 70 | 328 | 2.6 | 5.2 | 0.00 | 0.00 | 0.00 | 76 | 1015.5 |
| 20260510163028 | 70 | 285 | 0.9 | 5.2 | 0.00 | 0.00 | 0.00 | 76 | 1015.5 |
| 20260510162925 | 70 | 329 | 2.6 | 5.2 | 0.00 | 0.00 | 0.00 | 75 | 1015.5 |
| 20260510162842 | 70 | 328 | 0.9 | 5.2 | 0.00 | 0.00 | 0.00 | 75 | 1015.4 |
| 20260510162800 | 70 | 326 | 1.7 | 5.2 | 0.00 | 0.00 | 0.00 | 74 | 1015.4 |
| 20260510162638 | 70 | 328 | 1.7 | 5.2 | 0.00 | 0.00 | 0.00 | 75 | 1015.4 |
| 20260510162537 | 70 | 329 | 2.6 | 5.2 | 0.00 | 0.00 | 0.00 | 76 | 1015.4 |
| 20260510162434 | 70 | 328 | 3.5 | 5.2 | 0.00 | 0.00 | 0.00 | 76 | 1015.4 |
| 20260510162333 | 70 | 329 | 2.6 | 5.2 | 0.00 | 0.00 | 0.00 | 75 | 1015.4 |
| 20260510162237 | 70 | 329 | 2.6 | 5.2 | 0.00 | 0.00 | 0.00 | 76 | 1015.4 |
| 20260510162134 | 70 | 329 | 4.3 | 5.2 | 0.00 | 0.00 | 0.00 | 76 | 1015.4 |
| 20260510162032 | 70 | 329 | 3.5 | 5.2 | 0.00 | 0.00 | 0.00 | 77 | 1015.4 |
| 20260510161931 | 70 | 319 | 3.5 | 5.2 | 0.00 | 0.00 | 0.00 | 76 | 1015.4 |
| 20260510161850 | 70 | 328 | 0.0 | 4.3 | 0.00 | 0.00 | 0.00 | 75 | 1015.4 |
| 20260510161744 | 70 | 328 | 1.7 | 4.3 | 0.00 | 0.00 | 0.00 | 76 | 1015.4 |
| 20260510161652 | 70 | 326 | 0.9 | 4.3 | 0.00 | 0.00 | 0.00 | 77 | 1015.4 |
| 20260510161534 | 70 | 322 | 0.0 | 4.3 | 0.00 | 0.00 | 0.00 | 77 | 1015.4 |
| 20260510161432 | 70 | 329 | 0.9 | 4.3 | 0.00 | 0.00 | 0.00 | 77 | 1015.4 |
| 20260510161334 | 70 | 328 | 2.6 | 4.3 | 0.00 | 0.00 | 0.00 | 77 | 1015.3 |
| 20260510161232 | 69 | 328 | 0.9 | 4.3 | 0.00 | 0.00 | 0.00 | 77 | 1015.3 |
| 20260510161130 | 69 | 329 | 0.0 | 4.3 | 0.00 | 0.00 | 0.00 | 77 | 1015.3 |
| 20260510161031 | 69 | 329 | 2.6 | 4.3 | 0.00 | 0.00 | 0.00 | 77 | 1015.3 |
| 20260510160929 | 69 | 328 | 0.9 | 4.3 | 0.00 | 0.00 | 0.00 | 77 | 1015.3 |
| 20260510160832 | 69 | 329 | 0.0 | 4.3 | 0.00 | 0.00 | 0.00 | 76 | 1015.3 |
| 20260510160731 | 69 | 311 | 1.7 | 4.3 | 0.00 | 0.00 | 0.00 | 78 | 1015.3 |
| 20260510160628 | 69 | 329 | 2.6 | 4.3 | 0.00 | 0.00 | 0.00 | 78 | 1015.3 |
| 20260510160527 | 69 | 329 | 0.0 | 2.6 | 0.00 | 0.00 | 0.00 | 78 | 1015.3 |
| 20260510160425 | 69 | 326 | 0.0 | 2.6 | 0.00 | 0.00 | 0.00 | 78 | 1015.3 |
| 20260510160343 | 69 | 328 | 0.9 | 2.6 | 0.00 | 0.00 | 0.00 | 78 | 1015.3 |
| 20260510160241 | 69 | 329 | 0.9 | 2.6 | 0.00 | 0.00 | 0.00 | 78 | 1015.3 |
| 20260510160154 | 69 | 328 | 1.7 | 2.6 | 0.00 | 0.00 | 0.00 | 78 | 1015.3 |
| 20260510160031 | 69 | 325 | 0.9 | 2.6 | 0.00 | 0.00 | 0.00 | 78 | 1015.3 |
| 20260510155929 | 69 | 329 | 1.7 | 2.6 | 0.00 | 0.00 | 0.00 | 78 | 1015.3 |
| 20260510155851 | 69 | 316 | 0.0 | 2.6 | 0.00 | 0.00 | 0.00 | 78 | 1015.1 |
| 20260510155727 | 69 | 318 | 0.0 | 2.6 | 0.00 | 0.00 | 0.00 | 77 | 1015.1 |
| 20260510155646 | 69 | 318 | 0.0 | 2.6 | 0.00 | 0.00 | 0.00 | 77 | 1015.1 |
| 20260510155604 | 69 | 328 | 0.9 | 2.6 | 0.00 | 0.00 | 0.00 | 77 | 1015.1 |
| 20260510155442 | 69 | 329 | 0.9 | 2.6 | 0.00 | 0.00 | 0.00 | 77 | 1015.1 |
| 20260510155343 | 69 | 329 | 0.9 | 2.6 | 0.00 | 0.00 | 0.00 | 76 | 1015.1 |
| 20260510155241 | 69 | 329 | 0.0 | 2.6 | 0.00 | 0.00 | 0.00 | 76 | 1015.1 |
| 20260510155140 | 69 | 328 | 0.0 | 2.6 | 0.00 | 0.00 | 0.00 | 77 | 1015.1 |
| 20260510155038 | 69 | 329 | 0.0 | 2.6 | 0.00 | 0.00 | 0.00 | 77 | 1015.1 |
| 20260510154936 | 69 | 329 | 0.9 | 5.2 | 0.00 | 0.00 | 0.00 | 77 | 1015.1 |
| 20260510154834 | 69 | 329 | 1.7 | 6.1 | 0.00 | 0.00 | 0.00 | 77 | 1015.1 |
| 20260510154744 | 69 | 328 | 1.7 | 6.1 | 0.00 | 0.00 | 0.00 | 77 | 1015.1 |
| 20260510154657 | 69 | 329 | 0.9 | 6.1 | 0.00 | 0.00 | 0.00 | 77 | 1015.1 |
| 20260510154534 | 69 | 328 | 0.0 | 6.1 | 0.00 | 0.00 | 0.00 | 77 | 1015.1 |
| 20260510154434 | 69 | 329 | 1.7 | 6.1 | 0.00 | 0.00 | 0.00 | 78 | 1015.1 |
| 20260510154332 | 69 | 329 | 0.9 | 6.1 | 0.00 | 0.00 | 0.00 | 78 | 1015.0 |
| 20260510154231 | 69 | 328 | 0.0 | 6.1 | 0.00 | 0.00 | 0.00 | 78 | 1015.0 |
| 20260510154130 | 69 | 326 | 2.6 | 6.1 | 0.00 | 0.00 | 0.00 | 78 | 1015.0 |
| 20260510154028 | 69 | 329 | 3.5 | 6.1 | 0.00 | 0.00 | 0.00 | 78 | 1015.0 |
| 20260510153934 | 69 | 328 | 3.5 | 6.1 | 0.00 | 0.00 | 0.00 | 78 | 1015.0 |
| 20260510153832 | 69 | 329 | 2.6 | 5.2 | 0.00 | 0.00 | 0.00 | 77 | 1015.0 |
| 20260510153729 | 69 | 329 | 0.0 | 5.2 | 0.00 | 0.00 | 0.00 | 77 | 1015.0 |
| 20260510153628 | 69 | 328 | 1.7 | 5.2 | 0.00 | 0.00 | 0.00 | 78 | 1015.0 |
| 20260510153546 | 69 | 328 | 2.6 | 5.2 | 0.00 | 0.00 | 0.00 | 78 | 1015.0 |
| 20260510153425 | 69 | 326 | 2.6 | 5.2 | 0.00 | 0.00 | 0.00 | 78 | 1015.0 |
| 20260510153343 | 69 | 326 | 3.5 | 5.2 | 0.00 | 0.00 | 0.00 | 78 | 1015.0 |
| 20260510153236 | 69 | 326 | 1.7 | 5.2 | 0.00 | 0.00 | 0.00 | 78 | 1015.0 |
| 20260510153145 | 69 | 328 | 2.6 | 5.2 | 0.00 | 0.00 | 0.00 | 77 | 1015.0 |
| 20260510153044 | 69 | 326 | 3.5 | 5.2 | 0.00 | 0.00 | 0.00 | 79 | 1015.0 |
| 20260510152942 | 69 | 326 | 2.6 | 5.2 | 0.00 | 0.00 | 0.00 | 79 | 1015.0 |
| 20260510152841 | 69 | 328 | 0.9 | 3.5 | 0.00 | 0.00 | 0.00 | 79 | 1014.1 |
| 20260510152740 | 69 | 328 | 0.0 | 3.5 | 0.00 | 0.00 | 0.00 | 79 | 1014.1 |
| 20260510152637 | 68 | 316 | 0.9 | 4.3 | 0.00 | 0.00 | 0.00 | 80 | 1014.1 |
| 20260510152556 | 68 | 318 | 1.7 | 4.3 | 0.00 | 0.00 | 0.00 | 80 | 1014.1 |
| 20260510152436 | 68 | 326 | 1.7 | 4.3 | 0.00 | 0.00 | 0.00 | 80 | 1014.1 |
| 20260510152334 | 68 | 320 | 1.7 | 4.3 | 0.00 | 0.00 | 0.00 | 81 | 1014.1 |
| 20260510152233 | 68 | 335 | 1.7 | 4.3 | 0.00 | 0.00 | 0.00 | 80 | 1014.1 |
| 20260510152133 | 68 | 326 | 0.0 | 4.3 | 0.00 | 0.00 | 0.00 | 80 | 1014.1 |
| 20260510152031 | 68 | 328 | 0.9 | 4.3 | 0.00 | 0.00 | 0.00 | 79 | 1014.1 |
| 20260510151930 | 68 | 328 | 2.6 | 4.3 | 0.00 | 0.00 | 0.00 | 78 | 1014.1 |
| 20260510151828 | 68 | 304 | 2.6 | 4.3 | 0.00 | 0.00 | 0.00 | 80 | 1014.1 |
| 20260510151731 | 68 | 326 | 1.7 | 4.3 | 0.00 | 0.00 | 0.00 | 80 | 1014.1 |
| 20260510151701 | 68 | 329 | 0.9 | 4.3 | 0.00 | 0.00 | 0.00 | 80 | 1014.1 |
| 20260510151538 | 68 | 328 | 0.9 | 4.3 | 0.00 | 0.00 | 0.00 | 81 | 1014.1 |
| 20260510151458 | 68 | 328 | 1.7 | 4.3 | 0.00 | 0.00 | 0.00 | 82 | 1014.1 |
| 20260510151335 | 67 | 325 | 1.7 | 4.3 | 0.00 | 0.00 | 0.00 | 82 | 1014.1 |
| 20260510151233 | 67 | 328 | 1.7 | 5.2 | 0.00 | 0.00 | 0.00 | 82 | 1014.1 |
| 20260510151131 | 67 | 328 | 0.9 | 5.2 | 0.00 | 0.00 | 0.00 | 82 | 1014.1 |
| 20260510151034 | 67 | 320 | 2.6 | 5.2 | 0.00 | 0.00 | 0.00 | 82 | 1014.1 |
| 20260510150932 | 67 | 328 | 1.7 | 5.2 | 0.00 | 0.00 | 0.00 | 82 | 1014.1 |
| 20260510150852 | 67 | 322 | 0.9 | 5.2 | 0.00 | 0.00 | 0.00 | 83 | 1014.1 |
| 20260510150730 | 67 | 326 | 2.6 | 5.2 | 0.00 | 0.00 | 0.00 | 83 | 1014.1 |
| 20260510150628 | 67 | 325 | 0.9 | 5.2 | 0.00 | 0.00 | 0.00 | 83 | 1014.1 |
| 20260510150526 | 67 | 328 | 0.9 | 5.2 | 0.00 | 0.00 | 0.00 | 83 | 1014.1 |
| 20260510150424 | 67 | 315 | 2.6 | 5.2 | 0.00 | 0.00 | 0.00 | 83 | 1014.1 |
| 20260510150327 | 67 | 328 | 3.5 | 5.2 | 0.00 | 0.00 | 0.00 | 84 | 1014.1 |
| 20260510150236 | 67 | 328 | 1.7 | 4.3 | 0.00 | 0.00 | 0.00 | 84 | 1014.1 |
| 20260510150146 | 67 | 318 | 0.9 | 4.3 | 0.00 | 0.00 | 0.00 | 83 | 1014.1 |
| 20260510150042 | 66 | 328 | 1.7 | 4.3 | 0.00 | 0.00 | 0.00 | 83 | 1014.1 |
| 20260510145941 | 66 | 329 | 0.9 | 2.6 | 0.00 | 0.00 | 0.00 | 84 | 1014.1 |
| 20260510145839 | 66 | 323 | 0.9 | 2.6 | 0.00 | 0.00 | 0.00 | 84 | 1014.2 |
| 20260510145758 | 66 | 328 | 0.0 | 2.6 | 0.00 | 0.00 | 0.00 | 85 | 1014.2 |
| 20260510145636 | 66 | 320 | 0.9 | 2.6 | 0.00 | 0.00 | 0.00 | 85 | 1014.2 |
| 20260510145537 | 66 | 325 | 0.9 | 2.6 | 0.00 | 0.00 | 0.00 | 85 | 1014.2 |
| 20260510145435 | 66 | 326 | 1.7 | 2.6 | 0.00 | 0.00 | 0.00 | 85 | 1014.2 |
| 20260510145354 | 66 | 328 | 0.9 | 4.3 | 0.00 | 0.00 | 0.00 | 85 | 1014.2 |
| 20260510145231 | 66 | 329 | 0.0 | 4.3 | 0.00 | 0.00 | 0.00 | 85 | 1014.2 |
| 20260510145128 | 66 | 328 | 0.0 | 4.3 | 0.00 | 0.00 | 0.00 | 85 | 1014.2 |
| 20260510145027 | 66 | 326 | 0.0 | 4.3 | 0.00 | 0.00 | 0.00 | 85 | 1014.2 |
| 20260510144927 | 66 | 329 | 0.0 | 4.3 | 0.00 | 0.00 | 0.00 | 85 | 1014.2 |
| 20260510144833 | 66 | 326 | 0.0 | 4.3 | 0.00 | 0.00 | 0.00 | 85 | 1014.2 |
| 20260510144741 | 66 | 329 | 0.0 | 4.3 | 0.00 | 0.00 | 0.00 | 85 | 1014.2 |
| 20260510144650 | 66 | 323 | 0.0 | 4.3 | 0.00 | 0.00 | 0.00 | 85 | 1014.2 |
| 20260510144547 | 66 | 320 | 1.7 | 4.3 | 0.00 | 0.00 | 0.00 | 85 | 1014.2 |
| 20260510144445 | 66 | 336 | 1.7 | 4.3 | 0.00 | 0.00 | 0.00 | 84 | 1014.2 |
| 20260510144342 | 66 | 328 | 0.9 | 4.3 | 0.00 | 0.00 | 0.00 | 85 | 1014.2 |
| 20260510144242 | 66 | 323 | 1.7 | 4.3 | 0.00 | 0.00 | 0.00 | 85 | 1014.2 |
| 20260510144201 | 66 | 305 | 0.9 | 4.3 | 0.00 | 0.00 | 0.00 | 85 | 1014.2 |
| 20260510144038 | 66 | 329 | 0.9 | 4.3 | 0.00 | 0.00 | 0.00 | 86 | 1014.2 |
| 20260510143955 | 66 | 328 | 0.0 | 4.3 | 0.00 | 0.00 | 0.00 | 86 | 1014.2 |
| 20260510143856 | 66 | 322 | 0.9 | 4.3 | 0.00 | 0.00 | 0.00 | 86 | 1014.2 |
| 20260510143734 | 66 | 311 | 1.7 | 4.3 | 0.00 | 0.00 | 0.00 | 86 | 1014.2 |
| 20260510143632 | 66 | 326 | 0.0 | 2.6 | 0.00 | 0.00 | 0.00 | 86 | 1014.2 |
| 20260510143531 | 66 | 322 | 0.0 | 2.6 | 0.00 | 0.00 | 0.00 | 86 | 1014.2 |
| 20260510143429 | 66 | 323 | 0.0 | 2.6 | 0.00 | 0.00 | 0.00 | 86 | 1014.2 |
| 20260510143328 | 65 | 328 | 0.0 | 2.6 | 0.00 | 0.00 | 0.00 | 86 | 1014.2 |
| 20260510143238 | 65 | 326 | 0.0 | 2.6 | 0.00 | 0.00 | 0.00 | 86 | 1014.2 |
| 20260510143151 | 65 | 329 | 0.0 | 2.6 | 0.00 | 0.00 | 0.00 | 86 | 1014.2 |
| 20260510143027 | 65 | 329 | 0.0 | 2.6 | 0.00 | 0.00 | 0.00 | 86 | 1014.2 |
| 20260510142925 | 65 | 328 | 2.6 | 3.5 | 0.00 | 0.00 | 0.00 | 86 | 1014.2 |
| 20260510142844 | 65 | 328 | 1.7 | 3.5 | 0.00 | 0.00 | 0.00 | 86 | 1014.2 |
| 20260510142744 | 65 | 328 | 0.9 | 3.5 | 0.00 | 0.00 | 0.00 | 86 | 1014.2 |
| 20260510142641 | 65 | 329 | 0.9 | 3.5 | 0.00 | 0.00 | 0.00 | 86 | 1014.2 |
| 20260510142538 | 65 | 326 | 0.9 | 3.5 | 0.00 | 0.00 | 0.00 | 86 | 1014.2 |
| 20260510142437 | 65 | 329 | 0.9 | 3.5 | 0.00 | 0.00 | 0.00 | 86 | 1014.2 |
| 20260510142340 | 65 | 326 | 1.7 | 3.5 | 0.00 | 0.00 | 0.00 | 86 | 1014.2 |
| 20260510142237 | 65 | 329 | 1.7 | 3.5 | 0.00 | 0.00 | 0.00 | 86 | 1014.2 |
| 20260510142135 | 65 | 328 | 1.7 | 3.5 | 0.00 | 0.00 | 0.00 | 86 | 1014.2 |
| 20260510142053 | 65 | 322 | 1.7 | 3.5 | 0.00 | 0.00 | 0.00 | 86 | 1014.2 |
| 20260510141930 | 65 | 325 | 2.6 | 3.5 | 0.00 | 0.00 | 0.00 | 86 | 1014.2 |
| 20260510141828 | 65 | 325 | 0.9 | 2.6 | 0.00 | 0.00 | 0.00 | 86 | 1014.2 |
| 20260510141747 | 65 | 330 | 1.7 | 2.6 | 0.00 | 0.00 | 0.00 | 86 | 1014.2 |
| 20260510141716 | 65 | 326 | 0.9 | 2.6 | 0.00 | 0.00 | 0.00 | 86 | 1014.2 |
| 20260510141534 | 65 | 316 | 0.9 | 2.6 | 0.00 | 0.00 | 0.00 | 86 | 1014.2 |
| 20260510141440 | 65 | 329 | 1.7 | 2.6 | 0.00 | 0.00 | 0.00 | 86 | 1014.2 |
| 20260510141338 | 65 | 328 | 1.7 | 2.6 | 0.00 | 0.00 | 0.00 | 86 | 1014.1 |
| 20260510141257 | 65 | 312 | 1.7 | 2.6 | 0.00 | 0.00 | 0.00 | 86 | 1014.1 |
| 20260510141155 | 65 | 329 | 0.9 | 1.7 | 0.00 | 0.00 | 0.00 | 86 | 1014.1 |
| 20260510141032 | 65 | 325 | 0.0 | 1.7 | 0.00 | 0.00 | 0.00 | 86 | 1014.1 |
| 20260510140951 | 65 | 323 | 0.0 | 1.7 | 0.00 | 0.00 | 0.00 | 86 | 1014.1 |
| 20260510140909 | 65 | 328 | 0.0 | 1.7 | 0.00 | 0.00 | 0.00 | 86 | 1014.1 |
| 20260510140805 | 65 | 329 | 0.9 | 1.7 | 0.00 | 0.00 | 0.00 | 86 | 1014.1 |
| 20260510140703 | 65 | 326 | 0.0 | 1.7 | 0.00 | 0.00 | 0.00 | 86 | 1014.1 |
| 20260510140544 | 65 | 328 | 0.9 | 1.7 | 0.00 | 0.00 | 0.00 | 86 | 1014.1 |
| 20260510140442 | 65 | 328 | 0.0 | 2.6 | 0.00 | 0.00 | 0.00 | 87 | 1014.1 |
| 20260510140340 | 65 | 305 | 0.0 | 2.6 | 0.00 | 0.00 | 0.00 | 87 | 1014.1 |
| 20260510140259 | 65 | 326 | 0.9 | 2.6 | 0.00 | 0.00 | 0.00 | 87 | 1014.1 |
| 20260510140210 | 65 | 329 | 0.9 | 2.6 | 0.00 | 0.00 | 0.00 | 87 | 1014.1 |
| 20260510140107 | 65 | 329 | 0.9 | 2.6 | 0.00 | 0.00 | 0.00 | 87 | 1014.1 |
| 20260510140005 | 65 | 332 | 0.0 | 2.6 | 0.00 | 0.00 | 0.00 | 87 | 1014.1 |
| 20260510135904 | 65 | 325 | 0.0 | 2.6 | 0.00 | 0.00 | 0.00 | 87 | 1013.9 |
| 20260510135741 | 65 | 326 | 0.0 | 2.6 | 0.00 | 0.00 | 0.00 | 87 | 1013.9 |
| 20260510135624 | 65 | 326 | 0.9 | 2.6 | 0.00 | 0.00 | 0.00 | 87 | 1013.9 |
| 20260510135543 | 65 | 322 | 0.9 | 1.7 | 0.00 | 0.00 | 0.00 | 87 | 1013.9 |
| 20260510135502 | 65 | 322 | 0.9 | 1.7 | 0.00 | 0.00 | 0.00 | 87 | 1013.9 |
| 20260510135340 | 65 | 329 | 0.9 | 1.7 | 0.00 | 0.00 | 0.00 | 87 | 1013.9 |
| 20260510135238 | 65 | 326 | 0.0 | 1.7 | 0.00 | 0.00 | 0.00 | 87 | 1013.9 |
| 20260510135138 | 65 | 328 | 0.0 | 1.7 | 0.00 | 0.00 | 0.00 | 87 | 1013.9 |
| 20260510135037 | 65 | 328 | 0.9 | 1.7 | 0.00 | 0.00 | 0.00 | 87 | 1013.9 |
| 20260510134956 | 65 | 329 | 0.9 | 1.7 | 0.00 | 0.00 | 0.00 | 87 | 1013.9 |
| 20260510134832 | 65 | 330 | 0.0 | 1.7 | 0.00 | 0.00 | 0.00 | 87 | 1013.9 |
| 20260510134754 | 65 | 326 | 0.0 | 1.7 | 0.00 | 0.00 | 0.00 | 88 | 1013.9 |
| 20260510134702 | 65 | 328 | 0.0 | 1.7 | 0.00 | 0.00 | 0.00 | 88 | 1013.9 |
| 20260510134539 | 65 | 328 | 0.0 | 2.6 | 0.00 | 0.00 | 0.00 | 88 | 1013.9 |
| 20260510134458 | 65 | 326 | 0.9 | 2.6 | 0.00 | 0.00 | 0.00 | 88 | 1013.9 |
| 20260510134335 | 65 | 335 | 0.9 | 2.6 | 0.00 | 0.00 | 0.00 | 88 | 1014.0 |
| 20260510134256 | 65 | 328 | 0.9 | 2.6 | 0.00 | 0.00 | 0.00 | 88 | 1014.0 |
| 20260510134134 | 65 | 326 | 0.0 | 2.6 | 0.00 | 0.00 | 0.00 | 87 | 1014.0 |
| 20260510134036 | 65 | 318 | 0.9 | 2.6 | 0.00 | 0.00 | 0.00 | 87 | 1014.0 |
| 20260510133938 | 65 | 328 | 0.9 | 6.1 | 0.00 | 0.00 | 0.00 | 87 | 1014.0 |
| 20260510133836 | 65 | 323 | 0.9 | 6.1 | 0.00 | 0.00 | 0.00 | 88 | 1014.0 |
| 20260510133734 | 65 | 318 | 0.9 | 6.1 | 0.00 | 0.00 | 0.00 | 88 | 1014.0 |
| 20260510133632 | 65 | 325 | 0.0 | 6.1 | 0.00 | 0.00 | 0.00 | 88 | 1014.0 |
| 20260510133531 | 64 | 326 | 0.9 | 6.1 | 0.00 | 0.00 | 0.00 | 88 | 1014.0 |
| 20260510133450 | 64 | 328 | 1.7 | 6.1 | 0.00 | 0.00 | 0.00 | 88 | 1014.0 |
| 20260510133327 | 64 | 326 | 0.9 | 6.1 | 0.00 | 0.00 | 0.00 | 88 | 1014.0 |
| 20260510133228 | 64 | 319 | 1.7 | 6.1 | 0.00 | 0.00 | 0.00 | 88 | 1014.0 |
| 20260510133202 | 64 | 333 | 2.6 | 6.1 | 0.00 | 0.00 | 0.00 | 88 | 1014.0 |
| 20260510133038 | 64 | 323 | 2.6 | 6.1 | 0.00 | 0.00 | 0.00 | 88 | 1014.0 |
| 20260510132936 | 64 | 340 | 1.7 | 6.1 | 0.00 | 0.00 | 0.00 | 88 | 1014.0 |
| 20260510132834 | 64 | 333 | 1.7 | 6.1 | 0.00 | 0.00 | 0.00 | 88 | 1013.8 |
| 20260510132734 | 64 | 349 | 0.9 | 6.1 | 0.00 | 0.00 | 0.00 | 88 | 1013.8 |
| 20260510132632 | 64 | 326 | 0.9 | 8.7 | 0.00 | 0.00 | 0.00 | 89 | 1013.8 |
| 20260510132552 | 64 | 347 | 0.0 | 8.7 | 0.00 | 0.00 | 0.00 | 89 | 1013.8 |
| 20260510132449 | 64 | 328 | 0.9 | 8.7 | 0.00 | 0.00 | 0.00 | 89 | 1013.8 |
| 20260510132330 | 64 | 339 | 4.3 | 8.7 | 0.00 | 0.00 | 0.00 | 89 | 1013.8 |
| 20260510132229 | 64 | 326 | 4.3 | 8.7 | 0.00 | 0.00 | 0.00 | 89 | 1013.8 |
| 20260510132148 | 64 | 342 | 3.5 | 8.7 | 0.00 | 0.00 | 0.00 | 89 | 1013.8 |
| 20260510132027 | 64 | 328 | 1.7 | 8.7 | 0.00 | 0.00 | 0.00 | 89 | 1013.8 |
| 20260510131925 | 64 | 326 | 2.6 | 8.7 | 0.00 | 0.00 | 0.00 | 90 | 1013.8 |
| 20260510131844 | 64 | 328 | 5.2 | 8.7 | 0.00 | 0.00 | 0.00 | 90 | 1013.8 |
| 20260510131735 | 64 | 325 | 0.9 | 5.2 | 0.00 | 0.00 | 0.00 | 90 | 1013.8 |
| 20260510131647 | 63 | 318 | 0.0 | 5.2 | 0.00 | 0.00 | 0.00 | 90 | 1013.8 |
| 20260510131525 | 63 | 332 | 1.7 | 5.2 | 0.00 | 0.00 | 0.00 | 91 | 1013.8 |
| 20260510131443 | 63 | 326 | 2.6 | 5.2 | 0.00 | 0.00 | 0.00 | 91 | 1013.8 |
| 20260510131343 | 63 | 322 | 2.6 | 5.2 | 0.00 | 0.00 | 0.00 | 91 | 1013.7 |
| 20260510131222 | 63 | 330 | 1.7 | 5.2 | 0.00 | 0.00 | 0.00 | 91 | 1013.7 |
| 20260510131124 | 63 | 325 | 2.6 | 5.2 | 0.00 | 0.00 | 0.00 | 91 | 1013.7 |
| 20260510131042 | 63 | 333 | 0.9 | 5.2 | 0.00 | 0.00 | 0.00 | 91 | 1013.7 |
| 20260510130944 | 63 | 333 | 2.6 | 5.2 | 0.00 | 0.00 | 0.00 | 92 | 1013.7 |
| 20260510130902 | 63 | 333 | 1.7 | 5.2 | 0.00 | 0.00 | 0.00 | 92 | 1013.7 |
| 20260510130800 | 63 | 326 | 1.7 | 5.2 | 0.00 | 0.00 | 0.00 | 92 | 1013.7 |
| 20260510130638 | 63 | 322 | 2.6 | 5.2 | 0.00 | 0.00 | 0.00 | 92 | 1013.7 |
| 20260510130538 | 63 | 336 | 0.0 | 5.2 | 0.00 | 0.00 | 0.00 | 92 | 1013.7 |
| 20260510130436 | 63 | 325 | 0.9 | 5.2 | 0.00 | 0.00 | 0.00 | 92 | 1013.7 |
| 20260510130355 | 63 | 326 | 0.9 | 5.2 | 0.00 | 0.00 | 0.00 | 92 | 1013.7 |
| 20260510130314 | 63 | 323 | 2.6 | 5.2 | 0.00 | 0.00 | 0.00 | 92 | 1013.7 |
| 20260510130223 | 63 | 329 | 2.6 | 5.2 | 0.00 | 0.00 | 0.00 | 92 | 1013.7 |
| 20260510130042 | 63 | 328 | 0.9 | 5.2 | 0.00 | 0.00 | 0.00 | 92 | 1013.7 |
| 20260510125941 | 63 | 328 | 2.6 | 5.2 | 0.00 | 0.00 | 0.00 | 92 | 1013.7 |
| 20260510125838 | 63 | 325 | 4.3 | 5.2 | 0.00 | 0.00 | 0.00 | 92 | 1013.6 |
| 20260510125736 | 63 | 329 | 0.9 | 5.2 | 0.00 | 0.00 | 0.00 | 92 | 1013.6 |
| 20260510125634 | 63 | 329 | 0.9 | 5.2 | 0.00 | 0.00 | 0.00 | 93 | 1013.6 |
| 20260510125553 | 62 | 329 | 0.9 | 5.2 | 0.00 | 0.00 | 0.00 | 93 | 1013.6 |
| 20260510125431 | 62 | 319 | 0.9 | 5.2 | 0.00 | 0.00 | 0.00 | 93 | 1013.6 |
| 20260510125330 | 62 | 325 | 0.9 | 5.2 | 0.00 | 0.00 | 0.00 | 93 | 1013.6 |
| 20260510125232 | 62 | 320 | 0.9 | 5.2 | 0.00 | 0.00 | 0.00 | 93 | 1013.6 |
| 20260510125150 | 62 | 329 | 4.3 | 5.2 | 0.00 | 0.00 | 0.00 | 93 | 1013.6 |
| 20260510125051 | 62 | 329 | 3.5 | 5.2 | 0.00 | 0.00 | 0.00 | 93 | 1013.6 |
| 20260510124929 | 62 | 329 | 0.9 | 5.2 | 0.00 | 0.00 | 0.00 | 93 | 1013.6 |
| 20260510124828 | 62 | 329 | 2.6 | 5.2 | 0.00 | 0.00 | 0.00 | 93 | 1013.6 |
| 20260510124739 | 62 | 329 | 1.7 | 5.2 | 0.00 | 0.00 | 0.00 | 93 | 1013.6 |
| 20260510124646 | 62 | 320 | 1.7 | 5.2 | 0.00 | 0.00 | 0.00 | 93 | 1013.6 |
| 20260510124543 | 62 | 328 | 3.5 | 5.2 | 0.00 | 0.00 | 0.00 | 93 | 1013.6 |
| 20260510124502 | 62 | 328 | 3.5 | 5.2 | 0.00 | 0.00 | 0.00 | 93 | 1013.6 |
| 20260510124403 | 62 | 325 | 2.6 | 4.3 | 0.00 | 0.00 | 0.00 | 93 | 1013.5 |
| 20260510124241 | 62 | 329 | 1.7 | 4.3 | 0.00 | 0.00 | 0.00 | 93 | 1013.5 |
| 20260510124139 | 62 | 326 | 0.9 | 4.3 | 0.00 | 0.00 | 0.00 | 93 | 1013.5 |
| 20260510124039 | 62 | 325 | 0.0 | 4.3 | 0.00 | 0.00 | 0.00 | 94 | 1013.5 |
| 20260510123938 | 62 | 322 | 0.9 | 4.3 | 0.00 | 0.00 | 0.00 | 94 | 1013.5 |
| 20260510123837 | 62 | 325 | 1.7 | 4.3 | 0.00 | 0.00 | 0.00 | 94 | 1013.5 |
| 20260510123735 | 62 | 325 | 2.6 | 4.3 | 0.00 | 0.00 | 0.00 | 93 | 1013.5 |
| 20260510123638 | 62 | 326 | 1.7 | 4.3 | 0.00 | 0.00 | 0.00 | 93 | 1013.5 |
| 20260510123535 | 62 | 319 | 2.6 | 4.3 | 0.00 | 0.00 | 0.00 | 93 | 1013.5 |
| 20260510123435 | 61 | 320 | 1.7 | 2.6 | 0.00 | 0.00 | 0.00 | 93 | 1013.5 |
| 20260510123333 | 61 | 323 | 1.7 | 2.6 | 0.00 | 0.00 | 0.00 | 93 | 1013.5 |
| 20260510123232 | 61 | 329 | 1.7 | 2.6 | 0.00 | 0.00 | 0.00 | 93 | 1013.5 |
| 20260510123205 | 61 | 323 | 0.9 | 2.6 | 0.00 | 0.00 | 0.00 | 93 | 1013.5 |
| 20260510123024 | 61 | 318 | 0.0 | 2.6 | 0.00 | 0.00 | 0.00 | 93 | 1013.5 |
| 20260510122927 | 61 | 320 | 1.7 | 2.6 | 0.00 | 0.00 | 0.00 | 93 | 1013.5 |
| 20260510122844 | 61 | 326 | 1.7 | 2.6 | 0.00 | 0.00 | 0.00 | 93 | 1013.4 |
| 20260510122803 | 61 | 320 | 0.9 | 2.6 | 0.00 | 0.00 | 0.00 | 93 | 1013.4 |
| 20260510122640 | 61 | 328 | 0.9 | 1.7 | 0.00 | 0.00 | 0.00 | 93 | 1013.4 |
| 20260510122541 | 61 | 330 | 1.7 | 1.7 | 0.00 | 0.00 | 0.00 | 93 | 1013.4 |
| 20260510122500 | 61 | 329 | 0.9 | 1.7 | 0.00 | 0.00 | 0.00 | 93 | 1013.4 |
| 20260510122337 | 61 | 316 | 0.9 | 1.7 | 0.00 | 0.00 | 0.00 | 93 | 1013.4 |
| 20260510122256 | 61 | 319 | 0.0 | 1.7 | 0.00 | 0.00 | 0.00 | 93 | 1013.4 |
| 20260510122153 | 61 | 315 | 0.0 | 1.7 | 0.00 | 0.00 | 0.00 | 93 | 1013.4 |
| 20260510122034 | 61 | 316 | 0.0 | 1.7 | 0.00 | 0.00 | 0.00 | 93 | 1013.4 |
| 20260510121952 | 61 | 319 | 0.0 | 1.7 | 0.00 | 0.00 | 0.00 | 93 | 1013.4 |
| 20260510121828 | 61 | 318 | 0.0 | 2.6 | 0.00 | 0.00 | 0.00 | 93 | 1013.4 |
| 20260510121725 | 61 | 322 | 0.9 | 2.6 | 0.00 | 0.00 | 0.00 | 93 | 1013.4 |
| 20260510121654 | 61 | 322 | 0.9 | 2.6 | 0.00 | 0.00 | 0.00 | 93 | 1013.4 |
| 20260510121532 | 61 | 319 | 0.0 | 2.6 | 0.00 | 0.00 | 0.00 | 93 | 1013.4 |
| 20260510121429 | 60 | 319 | 0.0 | 2.6 | 0.00 | 0.00 | 0.00 | 93 | 1013.4 |
| 20260510121348 | 60 | 320 | 0.9 | 2.6 | 0.00 | 0.00 | 0.00 | 92 | 1013.1 |
| 20260510121245 | 60 | 325 | 0.9 | 2.6 | 0.00 | 0.00 | 0.00 | 92 | 1013.1 |
| 20260510121142 | 60 | 323 | 0.9 | 2.6 | 0.00 | 0.00 | 0.00 | 92 | 1013.1 |
| 20260510121025 | 60 | 326 | 1.7 | 2.6 | 0.00 | 0.00 | 0.00 | 92 | 1013.1 |
| 20260510120943 | 60 | 322 | 1.7 | 2.6 | 0.00 | 0.00 | 0.00 | 92 | 1013.1 |
| 20260510120841 | 60 | 323 | 0.9 | 1.7 | 0.00 | 0.00 | 0.00 | 92 | 1013.1 |
| 20260510120739 | 60 | 320 | 0.9 | 1.7 | 0.00 | 0.00 | 0.00 | 92 | 1013.1 |
| 20260510120641 | 60 | 325 | 1.7 | 1.7 | 0.00 | 0.00 | 0.00 | 92 | 1013.1 |
| 20260510120559 | 60 | 316 | 0.9 | 1.7 | 0.00 | 0.00 | 0.00 | 92 | 1013.1 |
| 20260510120437 | 60 | 320 | 0.9 | 2.6 | 0.00 | 0.00 | 0.00 | 92 | 1013.1 |
| 20260510120340 | 60 | 319 | 0.0 | 2.6 | 0.00 | 0.00 | 0.00 | 92 | 1013.1 |
| 20260510120259 | 60 | 320 | 0.9 | 2.6 | 0.00 | 0.00 | 0.00 | 92 | 1013.1 |
| 20260510120209 | 60 | 316 | 0.9 | 2.6 | 0.00 | 0.00 | 0.00 | 92 | 1013.1 |
| 20260510120044 | 60 | 323 | 0.9 | 2.6 | 0.00 | 0.00 | 0.00 | 92 | 1013.1 |
| 20260510115942 | 60 | 328 | 0.9 | 2.6 | 0.00 | 0.00 | 0.00 | 92 | 1013.1 |
| 20260510115838 | 60 | 329 | 0.9 | 2.6 | 0.00 | 0.00 | 0.00 | 92 | 1012.8 |
| 20260510115736 | 60 | 329 | 1.7 | 2.6 | 0.00 | 0.00 | 0.00 | 92 | 1012.8 |
| 20260510115635 | 60 | 325 | 1.7 | 2.6 | 0.00 | 0.00 | 0.00 | 92 | 1012.8 |
| 20260510115534 | 60 | 323 | 1.7 | 2.6 | 0.00 | 0.00 | 0.00 | 92 | 1012.8 |
| 20260510115435 | 60 | 329 | 1.7 | 2.6 | 0.00 | 0.00 | 0.00 | 92 | 1012.8 |
| 20260510115333 | 60 | 325 | 1.7 | 2.6 | 0.00 | 0.00 | 0.00 | 92 | 1012.8 |
| 20260510115231 | 60 | 330 | 1.7 | 2.6 | 0.00 | 0.00 | 0.00 | 92 | 1012.8 |
| 20260510115130 | 60 | 329 | 1.7 | 2.6 | 0.00 | 0.00 | 0.00 | 92 | 1012.8 |
| 20260510115028 | 60 | 326 | 1.7 | 2.6 | 0.00 | 0.00 | 0.00 | 92 | 1012.8 |
| 20260510114945 | 60 | 332 | 0.9 | 2.6 | 0.00 | 0.00 | 0.00 | 92 | 1012.8 |
| 20260510114825 | 60 | 328 | 0.0 | 3.5 | 0.00 | 0.00 | 0.00 | 92 | 1012.8 |
| 20260510114739 | 60 | 326 | 0.9 | 3.5 | 0.00 | 0.00 | 0.00 | 92 | 1012.8 |
| 20260510114648 | 60 | 323 | 0.9 | 3.5 | 0.00 | 0.00 | 0.00 | 92 | 1012.8 |
| 20260510114526 | 60 | 328 | 0.9 | 3.5 | 0.00 | 0.00 | 0.00 | 92 | 1012.8 |
| 20260510114443 | 60 | 328 | 1.7 | 4.3 | 0.00 | 0.00 | 0.00 | 92 | 1012.8 |
| 20260510114342 | 60 | 328 | 1.7 | 4.3 | 0.00 | 0.00 | 0.00 | 92 | 1012.7 |
| 20260510114241 | 60 | 328 | 1.7 | 4.3 | 0.00 | 0.00 | 0.00 | 92 | 1012.7 |
| 20260510114139 | 60 | 330 | 1.7 | 4.3 | 0.00 | 0.00 | 0.00 | 92 | 1012.7 |
| 20260510114038 | 60 | 330 | 1.7 | 4.3 | 0.00 | 0.00 | 0.00 | 92 | 1012.7 |
| 20260510113941 | 60 | 330 | 1.7 | 4.3 | 0.00 | 0.00 | 0.00 | 92 | 1012.7 |
| 20260510113839 | 60 | 329 | 0.9 | 4.3 | 0.00 | 0.00 | 0.00 | 92 | 1012.7 |
| 20260510113737 | 60 | 329 | 0.9 | 4.3 | 0.00 | 0.00 | 0.00 | 92 | 1012.7 |
| 20260510113636 | 60 | 329 | 2.6 | 4.3 | 0.00 | 0.00 | 0.00 | 92 | 1012.7 |
| 20260510113554 | 60 | 330 | 2.6 | 4.3 | 0.00 | 0.00 | 0.00 | 92 | 1012.7 |
| 20260510113517 | 60 | 330 | 1.7 | 4.3 | 0.00 | 0.00 | 0.00 | 92 | 1012.7 |
| 20260510113414 | 60 | 330 | 1.7 | 4.3 | 0.00 | 0.00 | 0.00 | 92 | 1012.7 |
| 20260510113312 | 60 | 330 | 1.7 | 4.3 | 0.00 | 0.00 | 0.00 | 92 | 1012.7 |
| 20260510113202 | 60 | 332 | 1.7 | 5.2 | 0.00 | 0.00 | 0.00 | 92 | 1012.7 |
| 20260510113042 | 60 | 329 | 1.7 | 5.2 | 0.00 | 0.00 | 0.00 | 92 | 1012.7 |
| 20260510112939 | 60 | 330 | 2.6 | 5.2 | 0.00 | 0.00 | 0.00 | 92 | 1012.7 |
| 20260510112838 | 60 | 332 | 1.7 | 5.2 | 0.00 | 0.00 | 0.00 | 92 | 1012.5 |
| 20260510112736 | 60 | 329 | 1.7 | 5.2 | 0.00 | 0.00 | 0.00 | 92 | 1012.5 |
| 20260510112634 | 60 | 330 | 2.6 | 5.2 | 0.00 | 0.00 | 0.00 | 92 | 1012.5 |
| 20260510112532 | 60 | 325 | 1.7 | 5.2 | 0.00 | 0.00 | 0.00 | 92 | 1012.5 |
| 20260510112431 | 60 | 332 | 1.7 | 5.2 | 0.00 | 0.00 | 0.00 | 92 | 1012.5 |
| 20260510112354 | 60 | 325 | 2.6 | 5.2 | 0.00 | 0.00 | 0.00 | 92 | 1012.5 |
| 20260510112232 | 60 | 325 | 1.7 | 2.6 | 0.00 | 0.00 | 0.00 | 92 | 1012.5 |
| 20260510112151 | 60 | 332 | 0.9 | 2.6 | 0.00 | 0.00 | 0.00 | 92 | 1012.5 |
| 20260510112049 | 60 | 328 | 0.9 | 2.6 | 0.00 | 0.00 | 0.00 | 92 | 1012.5 |
| 20260510111926 | 60 | 329 | 0.9 | 3.5 | 0.00 | 0.00 | 0.00 | 92 | 1012.5 |
| 20260510111827 | 60 | 332 | 0.9 | 5.2 | 0.00 | 0.00 | 0.00 | 92 | 1012.5 |
| 20260510111735 | 60 | 328 | 2.6 | 5.2 | 0.00 | 0.00 | 0.00 | 92 | 1012.5 |
| 20260510111645 | 60 | 322 | 0.9 | 5.2 | 0.00 | 0.00 | 0.00 | 92 | 1012.5 |
| 20260510111527 | 60 | 320 | 0.0 | 5.2 | 0.00 | 0.00 | 0.00 | 92 | 1012.5 |
| 20260510111445 | 60 | 326 | 0.9 | 5.2 | 0.00 | 0.00 | 0.00 | 92 | 1012.5 |
| 20260510111342 | 60 | 326 | 1.7 | 5.2 | 0.00 | 0.00 | 0.00 | 92 | 1012.2 |
| 20260510111241 | 60 | 323 | 1.7 | 5.2 | 0.00 | 0.00 | 0.00 | 92 | 1012.2 |
| 20260510111139 | 60 | 330 | 1.7 | 5.2 | 0.00 | 0.00 | 0.00 | 91 | 1012.2 |
| 20260510111039 | 60 | 326 | 2.6 | 5.2 | 0.00 | 0.00 | 0.00 | 91 | 1012.2 |
| 20260510110936 | 60 | 330 | 3.5 | 5.2 | 0.00 | 0.00 | 0.00 | 92 | 1012.2 |
| 20260510110836 | 60 | 332 | 2.6 | 5.2 | 0.00 | 0.00 | 0.00 | 91 | 1012.2 |
| 20260510110754 | 60 | 333 | 1.7 | 5.2 | 0.00 | 0.00 | 0.00 | 92 | 1012.2 |
| 20260510110657 | 60 | 330 | 1.7 | 5.2 | 0.00 | 0.00 | 0.00 | 91 | 1012.2 |
| 20260510110534 | 60 | 329 | 1.7 | 5.2 | 0.00 | 0.00 | 0.00 | 92 | 1012.2 |
| 20260510110433 | 60 | 332 | 2.6 | 5.2 | 0.00 | 0.00 | 0.00 | 91 | 1012.2 |
| 20260510110331 | 60 | 329 | 2.6 | 5.2 | 0.00 | 0.00 | 0.00 | 91 | 1012.2 |
| 20260510110240 | 60 | 332 | 2.6 | 5.2 | 0.00 | 0.00 | 0.00 | 91 | 1012.2 |
| 20260510110151 | 60 | 332 | 0.9 | 4.3 | 0.00 | 0.00 | 0.00 | 91 | 1012.2 |
| 20260510110027 | 60 | 325 | 1.7 | 4.3 | 0.00 | 0.00 | 0.00 | 91 | 1012.2 |
| 20260510105931 | 60 | 330 | 3.5 | 4.3 | 0.00 | 0.00 | 0.00 | 91 | 1012.2 |
| 20260510105830 | 60 | 329 | 2.6 | 4.3 | 0.00 | 0.00 | 0.00 | 91 | 1011.9 |
| 20260510105748 | 60 | 330 | 0.9 | 4.3 | 0.00 | 0.00 | 0.00 | 91 | 1011.9 |
| 20260510105707 | 60 | 330 | 0.0 | 4.3 | 0.00 | 0.00 | 0.00 | 91 | 1011.9 |
| 20260510105604 | 60 | 328 | 0.9 | 4.3 | 0.00 | 0.00 | 0.00 | 91 | 1011.9 |
| 20260510105441 | 60 | 326 | 1.7 | 4.3 | 0.00 | 0.00 | 0.00 | 91 | 1011.9 |
| 20260510105339 | 60 | 316 | 0.9 | 4.3 | 0.00 | 0.00 | 0.00 | 91 | 1011.9 |
| 20260510105237 | 60 | 330 | 0.0 | 4.3 | 0.00 | 0.00 | 0.00 | 91 | 1011.9 |
| 20260510105136 | 60 | 328 | 0.9 | 4.3 | 0.00 | 0.00 | 0.00 | 91 | 1011.9 |
| 20260510105038 | 60 | 332 | 1.7 | 6.1 | 0.00 | 0.00 | 0.00 | 91 | 1011.9 |
| 20260510104957 | 60 | 328 | 1.7 | 6.1 | 0.00 | 0.00 | 0.00 | 91 | 1011.9 |
| 20260510104834 | 60 | 330 | 0.0 | 6.1 | 0.00 | 0.00 | 0.00 | 91 | 1011.9 |
| 20260510104743 | 60 | 332 | 0.0 | 6.1 | 0.00 | 0.00 | 0.00 | 91 | 1011.9 |
| 20260510104653 | 60 | 330 | 0.9 | 6.1 | 0.00 | 0.00 | 0.00 | 91 | 1011.9 |
| 20260510104529 | 60 | 329 | 1.7 | 6.1 | 0.00 | 0.00 | 0.00 | 91 | 1011.9 |
| 20260510104448 | 60 | 332 | 2.6 | 6.1 | 0.00 | 0.00 | 0.00 | 91 | 1011.9 |
| 20260510104324 | 60 | 328 | 1.7 | 6.1 | 0.00 | 0.00 | 0.00 | 91 | 1011.7 |
| 20260510104227 | 60 | 330 | 2.6 | 6.1 | 0.00 | 0.00 | 0.00 | 91 | 1011.7 |
| 20260510104126 | 60 | 333 | 2.6 | 5.2 | 0.00 | 0.00 | 0.00 | 91 | 1011.7 |
| 20260510104024 | 60 | 332 | 1.7 | 4.3 | 0.00 | 0.00 | 0.00 | 91 | 1011.7 |
| 20260510103924 | 60 | 326 | 1.7 | 2.6 | 0.00 | 0.00 | 0.00 | 91 | 1011.7 |
| 20260510103843 | 60 | 332 | 0.9 | 5.2 | 0.00 | 0.00 | 0.00 | 91 | 1011.7 |
| 20260510103741 | 60 | 330 | 0.9 | 6.1 | 0.00 | 0.00 | 0.00 | 91 | 1011.7 |
| 20260510103640 | 60 | 332 | 0.0 | 6.1 | 0.00 | 0.00 | 0.00 | 91 | 1011.7 |
| 20260510103541 | 60 | 332 | 0.9 | 6.1 | 0.00 | 0.00 | 0.00 | 91 | 1011.7 |
| 20260510103439 | 60 | 332 | 0.9 | 6.1 | 0.00 | 0.00 | 0.00 | 91 | 1011.7 |
| 20260510103359 | 60 | 330 | 0.0 | 6.1 | 0.00 | 0.00 | 0.00 | 91 | 1011.7 |
| 20260510103317 | 60 | 330 | 0.0 | 6.1 | 0.00 | 0.00 | 0.00 | 91 | 1011.7 |
| 20260510103226 | 60 | 332 | 0.9 | 6.1 | 0.00 | 0.00 | 0.00 | 91 | 1011.7 |
| 20260510103040 | 60 | 330 | 1.7 | 6.1 | 0.00 | 0.00 | 0.00 | 91 | 1011.7 |
| 20260510102940 | 60 | 319 | 4.3 | 6.1 | 0.00 | 0.00 | 0.00 | 91 | 1011.7 |
| 20260510102839 | 60 | 320 | 1.7 | 6.1 | 0.00 | 0.00 | 0.00 | 91 | 1011.6 |
| 20260510102805 | 60 | 332 | 0.9 | 6.1 | 0.00 | 0.00 | 0.00 | 91 | 1011.6 |
| 20260510102706 | 60 | 330 | 1.7 | 6.1 | 0.00 | 0.00 | 0.00 | 90 | 1011.6 |
| 20260510102604 | 60 | 330 | 3.5 | 6.1 | 0.00 | 0.00 | 0.00 | 90 | 1011.6 |
| 20260510102441 | 60 | 330 | 3.5 | 6.1 | 0.00 | 0.00 | 0.00 | 90 | 1011.6 |
| 20260510102338 | 60 | 332 | 3.5 | 5.2 | 0.00 | 0.00 | 0.00 | 90 | 1011.6 |
| 20260510102237 | 60 | 332 | 1.7 | 7.8 | 0.00 | 0.00 | 0.00 | 90 | 1011.6 |
| 20260510102155 | 60 | 330 | 0.0 | 7.8 | 0.00 | 0.00 | 0.00 | 90 | 1011.6 |
| 20260510102033 | 60 | 330 | 0.9 | 7.8 | 0.00 | 0.00 | 0.00 | 90 | 1011.6 |
| 20260510101931 | 60 | 332 | 0.9 | 7.8 | 0.00 | 0.00 | 0.00 | 90 | 1011.6 |
| 20260510101834 | 60 | 332 | 0.9 | 7.8 | 0.00 | 0.00 | 0.00 | 90 | 1011.6 |
| 20260510101733 | 60 | 332 | 0.9 | 7.8 | 0.00 | 0.00 | 0.00 | 90 | 1011.6 |
| 20260510101702 | 60 | 330 | 1.7 | 7.8 | 0.00 | 0.00 | 0.00 | 90 | 1011.6 |
| 20260510101539 | 60 | 337 | 3.5 | 7.8 | 0.00 | 0.00 | 0.00 | 90 | 1011.6 |
| 20260510101458 | 60 | 330 | 2.6 | 7.8 | 0.00 | 0.00 | 0.00 | 90 | 1011.6 |
| 20260510101355 | 60 | 330 | 2.6 | 7.8 | 0.00 | 0.00 | 0.00 | 90 | 1011.4 |
| 20260510101233 | 60 | 333 | 2.6 | 6.1 | 0.00 | 0.00 | 0.00 | 90 | 1011.4 |
| 20260510101131 | 60 | 332 | 0.9 | 6.1 | 0.00 | 0.00 | 0.00 | 90 | 1011.4 |
| 20260510101032 | 60 | 332 | 1.7 | 6.1 | 0.00 | 0.00 | 0.00 | 90 | 1011.4 |
| 20260510100931 | 60 | 332 | 0.9 | 6.1 | 0.00 | 0.00 | 0.00 | 90 | 1011.4 |
| 20260510100829 | 60 | 330 | 3.5 | 6.1 | 0.00 | 0.00 | 0.00 | 90 | 1011.4 |
| 20260510100730 | 60 | 332 | 2.6 | 6.1 | 0.00 | 0.00 | 0.00 | 90 | 1011.4 |
| 20260510100628 | 60 | 312 | 3.5 | 6.1 | 0.00 | 0.00 | 0.00 | 90 | 1011.4 |
| 20260510100527 | 60 | 308 | 0.9 | 6.1 | 0.00 | 0.00 | 0.00 | 90 | 1011.4 |
| 20260510100429 | 60 | 330 | 2.6 | 6.1 | 0.00 | 0.00 | 0.00 | 90 | 1011.4 |
| 20260510100327 | 61 | 329 | 1.7 | 6.1 | 0.00 | 0.00 | 0.00 | 90 | 1011.4 |
| 20260510100246 | 61 | 336 | 1.7 | 2.6 | 0.00 | 0.00 | 0.00 | 90 | 1011.4 |
| 20260510100218 | 61 | 315 | 1.7 | 4.3 | 0.00 | 0.00 | 0.00 | 90 | 1011.4 |
| 20260510100032 | 61 | 332 | 1.7 | 4.3 | 0.00 | 0.00 | 0.00 | 90 | 1011.4 |
| 20260510095952 | 61 | 330 | 0.9 | 4.3 | 0.00 | 0.00 | 0.00 | 90 | 1011.4 |
| 20260510095830 | 61 | 332 | 1.7 | 4.3 | 0.00 | 0.00 | 0.00 | 90 | 1011.3 |
| 20260510095729 | 61 | 332 | 0.9 | 4.3 | 0.00 | 0.00 | 0.00 | 90 | 1011.3 |
| 20260510095631 | 61 | 333 | 0.9 | 4.3 | 0.00 | 0.00 | 0.00 | 90 | 1011.3 |
| 20260510095529 | 61 | 332 | 1.7 | 4.3 | 0.00 | 0.00 | 0.00 | 90 | 1011.3 |
| 20260510095427 | 61 | 319 | 1.7 | 5.2 | 0.00 | 0.00 | 0.00 | 90 | 1011.3 |
| 20260510095325 | 61 | 330 | 0.9 | 5.2 | 0.00 | 0.00 | 0.00 | 90 | 1011.3 |
| 20260510095224 | 61 | 332 | 1.7 | 5.2 | 0.00 | 0.00 | 0.00 | 90 | 1011.3 |
| 20260510095126 | 61 | 330 | 1.7 | 5.2 | 0.00 | 0.00 | 0.00 | 90 | 1011.3 |
| 20260510095045 | 61 | 332 | 1.7 | 7.0 | 0.00 | 0.00 | 0.00 | 90 | 1011.3 |
| 20260510095003 | 61 | 332 | 1.7 | 7.0 | 0.00 | 0.00 | 0.00 | 90 | 1011.3 |
| 20260510094825 | 61 | 332 | 2.6 | 7.0 | 0.00 | 0.00 | 0.00 | 90 | 1011.3 |
| 20260510094736 | 61 | 332 | 1.7 | 7.0 | 0.00 | 0.00 | 0.00 | 90 | 1011.3 |
| 20260510094645 | 61 | 332 | 3.5 | 7.0 | 0.00 | 0.00 | 0.00 | 90 | 1011.3 |
| 20260510094542 | 61 | 329 | 4.3 | 7.0 | 0.00 | 0.00 | 0.00 | 90 | 1011.3 |
| 20260510094502 | 61 | 332 | 3.5 | 7.0 | 0.00 | 0.00 | 0.00 | 90 | 1011.3 |
| 20260510094338 | 61 | 332 | 2.6 | 7.0 | 0.00 | 0.00 | 0.00 | 90 | 1011.3 |
| 20260510094237 | 61 | 332 | 2.6 | 7.0 | 0.00 | 0.00 | 0.00 | 90 | 1011.3 |
| 20260510094155 | 61 | 330 | 4.3 | 7.0 | 0.00 | 0.00 | 0.00 | 90 | 1011.3 |
| 20260510094053 | 61 | 330 | 1.7 | 7.0 | 0.00 | 0.00 | 0.00 | 90 | 1011.3 |
| 20260510093935 | 61 | 332 | 1.7 | 7.0 | 0.00 | 0.00 | 0.00 | 90 | 1011.3 |
| 20260510093834 | 61 | 330 | 1.7 | 7.0 | 0.00 | 0.00 | 0.00 | 90 | 1011.3 |
| 20260510093732 | 61 | 332 | 1.7 | 7.0 | 0.00 | 0.00 | 0.00 | 90 | 1011.3 |
| 20260510093631 | 61 | 329 | 1.7 | 7.0 | 0.00 | 0.00 | 0.00 | 90 | 1011.3 |
| 20260510093529 | 61 | 332 | 3.5 | 7.0 | 0.00 | 0.00 | 0.00 | 90 | 1011.3 |
| 20260510093427 | 61 | 332 | 1.7 | 7.0 | 0.00 | 0.00 | 0.00 | 90 | 1011.3 |
| 20260510093325 | 61 | 332 | 3.5 | 7.0 | 0.00 | 0.00 | 0.00 | 90 | 1011.3 |
| 20260510093239 | 61 | 332 | 1.7 | 6.1 | 0.00 | 0.00 | 0.00 | 90 | 1011.3 |
| 20260510093149 | 61 | 330 | 1.7 | 6.1 | 0.00 | 0.00 | 0.00 | 90 | 1011.3 |
| 20260510093046 | 61 | 323 | 1.7 | 6.1 | 0.00 | 0.00 | 0.00 | 90 | 1011.3 |
| 20260510092924 | 61 | 330 | 3.5 | 6.1 | 0.00 | 0.00 | 0.00 | 90 | 1011.3 |
| 20260510092842 | 61 | 330 | 3.5 | 6.1 | 0.00 | 0.00 | 0.00 | 90 | 1011.4 |
| 20260510092741 | 61 | 328 | 4.3 | 6.1 | 0.00 | 0.00 | 0.00 | 90 | 1011.4 |
| 20260510092700 | 61 | 332 | 2.6 | 5.2 | 0.00 | 0.00 | 0.00 | 90 | 1011.4 |
| 20260510092538 | 61 | 332 | 1.7 | 6.1 | 0.00 | 0.00 | 0.00 | 90 | 1011.4 |
| 20260510092437 | 61 | 329 | 1.7 | 6.1 | 0.00 | 0.00 | 0.00 | 90 | 1011.4 |
| 20260510092341 | 61 | 332 | 3.5 | 6.1 | 0.00 | 0.00 | 0.00 | 90 | 1011.4 |
| 20260510092238 | 61 | 332 | 2.6 | 6.1 | 0.00 | 0.00 | 0.00 | 90 | 1011.4 |
| 20260510092137 | 61 | 332 | 2.6 | 6.1 | 0.00 | 0.00 | 0.00 | 90 | 1011.4 |
| 20260510092035 | 61 | 330 | 3.5 | 6.1 | 0.00 | 0.00 | 0.00 | 90 | 1011.4 |
| 20260510091933 | 61 | 332 | 2.6 | 6.1 | 0.00 | 0.00 | 0.00 | 90 | 1011.4 |
| 20260510091832 | 61 | 330 | 2.6 | 6.1 | 0.00 | 0.00 | 0.00 | 90 | 1011.4 |
| 20260510091734 | 61 | 332 | 3.5 | 6.1 | 0.00 | 0.00 | 0.00 | 90 | 1011.4 |
| 20260510091703 | 61 | 330 | 3.5 | 6.1 | 0.00 | 0.00 | 0.00 | 90 | 1011.4 |
| 20260510091540 | 61 | 332 | 1.7 | 5.2 | 0.00 | 0.00 | 0.00 | 90 | 1011.4 |
| 20260510091438 | 61 | 332 | 3.5 | 7.0 | 0.00 | 0.00 | 0.00 | 90 | 1011.4 |
| 20260510091336 | 61 | 332 | 2.6 | 7.0 | 0.00 | 0.00 | 0.00 | 90 | 1011.4 |
| 20260510091236 | 61 | 308 | 1.7 | 7.0 | 0.00 | 0.00 | 0.00 | 89 | 1011.4 |
| 20260510091134 | 61 | 330 | 1.7 | 7.0 | 0.00 | 0.00 | 0.00 | 89 | 1011.4 |
| 20260510091038 | 61 | 333 | 1.7 | 7.0 | 0.00 | 0.00 | 0.00 | 89 | 1011.4 |
| 20260510090937 | 61 | 330 | 1.7 | 7.0 | 0.00 | 0.00 | 0.00 | 89 | 1011.4 |
| 20260510090837 | 61 | 301 | 2.6 | 7.0 | 0.00 | 0.00 | 0.00 | 89 | 1011.4 |
| 20260510090735 | 61 | 329 | 3.5 | 7.0 | 0.00 | 0.00 | 0.00 | 89 | 1011.4 |
| 20260510090634 | 61 | 328 | 4.3 | 7.0 | 0.00 | 0.00 | 0.00 | 89 | 1011.4 |
| 20260510090530 | 61 | 332 | 4.3 | 7.0 | 0.00 | 0.00 | 0.00 | 89 | 1011.4 |
| 20260510090428 | 61 | 330 | 3.5 | 6.1 | 0.00 | 0.00 | 0.00 | 89 | 1011.4 |
| 20260510090325 | 61 | 330 | 3.5 | 6.1 | 0.00 | 0.00 | 0.00 | 89 | 1011.4 |
| 20260510090227 | 61 | 330 | 3.5 | 6.1 | 0.00 | 0.00 | 0.00 | 89 | 1011.4 |
| 20260510090200 | 61 | 305 | 3.5 | 6.1 | 0.00 | 0.00 | 0.00 | 89 | 1011.4 |
| 20260510090036 | 61 | 332 | 2.6 | 6.1 | 0.00 | 0.00 | 0.00 | 89 | 1011.4 |
| 20260510085935 | 61 | 320 | 2.6 | 6.1 | 0.00 | 0.00 | 0.00 | 89 | 1011.4 |
| 20260510085833 | 61 | 313 | 3.5 | 6.1 | 0.00 | 0.00 | 0.00 | 89 | 1011.1 |
| 20260510085731 | 61 | 330 | 2.6 | 6.1 | 0.00 | 0.00 | 0.00 | 89 | 1011.1 |
| 20260510085631 | 61 | 330 | 2.6 | 6.1 | 0.00 | 0.00 | 0.00 | 89 | 1011.1 |
| 20260510085534 | 61 | 332 | 3.5 | 6.1 | 0.00 | 0.00 | 0.00 | 89 | 1011.1 |
| 20260510085432 | 61 | 299 | 2.6 | 6.1 | 0.00 | 0.00 | 0.00 | 89 | 1011.1 |
| 20260510085333 | 61 | 330 | 3.5 | 6.1 | 0.00 | 0.00 | 0.00 | 89 | 1011.1 |
| 20260510085231 | 61 | 332 | 4.3 | 6.1 | 0.00 | 0.00 | 0.00 | 89 | 1011.1 |
| 20260510085150 | 61 | 332 | 4.3 | 6.1 | 0.00 | 0.00 | 0.00 | 89 | 1011.1 |
| 20260510085050 | 61 | 330 | 3.5 | 6.1 | 0.00 | 0.00 | 0.00 | 89 | 1011.1 |
| 20260510084930 | 61 | 329 | 3.5 | 6.1 | 0.00 | 0.00 | 0.00 | 89 | 1011.1 |
| 20260510084833 | 61 | 325 | 3.5 | 7.0 | 0.00 | 0.00 | 0.00 | 89 | 1011.1 |
| 20260510084731 | 61 | 332 | 4.3 | 7.0 | 0.00 | 0.00 | 0.00 | 89 | 1011.1 |
| 20260510084700 | 61 | 332 | 4.3 | 7.0 | 0.00 | 0.00 | 0.00 | 89 | 1011.1 |
| 20260510084538 | 62 | 330 | 3.5 | 7.0 | 0.00 | 0.00 | 0.00 | 89 | 1011.1 |
| 20260510084436 | 62 | 332 | 3.5 | 7.0 | 0.00 | 0.00 | 0.00 | 89 | 1011.1 |
| 20260510084333 | 62 | 332 | 2.6 | 7.0 | 0.00 | 0.00 | 0.00 | 89 | 1010.8 |
| 20260510084253 | 62 | 332 | 2.6 | 7.0 | 0.00 | 0.00 | 0.00 | 89 | 1010.8 |
| 20260510084133 | 62 | 332 | 3.5 | 7.0 | 0.00 | 0.00 | 0.00 | 89 | 1010.8 |
| 20260510084036 | 62 | 333 | 3.5 | 7.0 | 0.00 | 0.00 | 0.00 | 89 | 1010.8 |
| 20260510083935 | 62 | 330 | 3.5 | 7.0 | 0.00 | 0.00 | 0.00 | 89 | 1010.8 |
| 20260510083833 | 62 | 332 | 3.5 | 7.0 | 0.00 | 0.00 | 0.00 | 89 | 1010.8 |
| 20260510083732 | 62 | 332 | 2.6 | 7.0 | 0.00 | 0.00 | 0.00 | 89 | 1010.8 |
| 20260510083631 | 62 | 330 | 2.6 | 7.0 | 0.00 | 0.00 | 0.00 | 89 | 1010.8 |
| 20260510083528 | 62 | 332 | 2.6 | 7.0 | 0.00 | 0.00 | 0.00 | 89 | 1010.8 |
| 20260510083430 | 62 | 330 | 1.7 | 7.0 | 0.00 | 0.00 | 0.00 | 89 | 1010.8 |
| 20260510083328 | 62 | 332 | 2.6 | 7.0 | 0.00 | 0.00 | 0.00 | 89 | 1010.8 |
| 20260510083238 | 62 | 332 | 3.5 | 7.0 | 0.00 | 0.00 | 0.00 | 89 | 1010.8 |
| 20260510083148 | 62 | 328 | 4.3 | 7.0 | 0.00 | 0.00 | 0.00 | 89 | 1010.8 |
| 20260510083045 | 62 | 330 | 2.6 | 6.1 | 0.00 | 0.00 | 0.00 | 89 | 1010.8 |
| 20260510082942 | 62 | 325 | 3.5 | 6.1 | 0.00 | 0.00 | 0.00 | 89 | 1010.8 |
| 20260510082900 | 62 | 332 | 3.5 | 6.1 | 0.00 | 0.00 | 0.00 | 89 | 1010.7 |
| 20260510082738 | 62 | 330 | 2.6 | 6.1 | 0.00 | 0.00 | 0.00 | 89 | 1010.7 |
| 20260510082637 | 62 | 330 | 3.5 | 6.1 | 0.00 | 0.00 | 0.00 | 89 | 1010.7 |
| 20260510082539 | 62 | 312 | 4.3 | 6.1 | 0.00 | 0.00 | 0.00 | 88 | 1010.7 |
| 20260510082459 | 62 | 326 | 3.5 | 6.1 | 0.00 | 0.00 | 0.00 | 88 | 1010.7 |
| 20260510082336 | 62 | 330 | 2.6 | 6.1 | 0.00 | 0.00 | 0.00 | 88 | 1010.7 |
| 20260510082254 | 62 | 333 | 3.5 | 6.1 | 0.00 | 0.00 | 0.00 | 88 | 1010.7 |
| 20260510082131 | 62 | 325 | 2.6 | 6.1 | 0.00 | 0.00 | 0.00 | 88 | 1010.7 |
| 20260510082030 | 62 | 329 | 3.5 | 6.1 | 0.00 | 0.00 | 0.00 | 88 | 1010.7 |
| 20260510081928 | 62 | 329 | 2.6 | 7.0 | 0.00 | 0.00 | 0.00 | 88 | 1010.7 |
| 20260510081826 | 62 | 325 | 4.3 | 7.0 | 0.00 | 0.00 | 0.00 | 88 | 1010.7 |
| 20260510081732 | 62 | 332 | 2.6 | 7.0 | 0.00 | 0.00 | 0.00 | 88 | 1010.7 |
| 20260510081702 | 62 | 330 | 3.5 | 7.0 | 0.00 | 0.00 | 0.00 | 88 | 1010.7 |
| 20260510081541 | 62 | 329 | 4.3 | 7.0 | 0.00 | 0.00 | 0.00 | 88 | 1010.7 |
| 20260510081500 | 62 | 315 | 4.3 | 7.0 | 0.00 | 0.00 | 0.00 | 88 | 1010.7 |
| 20260510081337 | 62 | 328 | 2.6 | 7.0 | 0.00 | 0.00 | 0.00 | 88 | 1010.6 |
| 20260510081234 | 62 | 330 | 1.7 | 7.0 | 0.00 | 0.00 | 0.00 | 88 | 1010.6 |
| 20260510081133 | 62 | 309 | 4.3 | 7.0 | 0.00 | 0.00 | 0.00 | 88 | 1010.6 |
| 20260510081035 | 62 | 312 | 1.7 | 7.0 | 0.00 | 0.00 | 0.00 | 88 | 1010.6 |
| 20260510080933 | 62 | 319 | 2.6 | 7.0 | 0.00 | 0.00 | 0.00 | 88 | 1010.6 |
| 20260510080832 | 62 | 329 | 3.5 | 7.0 | 0.00 | 0.00 | 0.00 | 88 | 1010.6 |
| 20260510080730 | 62 | 330 | 4.3 | 7.0 | 0.00 | 0.00 | 0.00 | 88 | 1010.6 |
| 20260510080629 | 62 | 329 | 3.5 | 6.1 | 0.00 | 0.00 | 0.00 | 88 | 1010.6 |
| 20260510080527 | 62 | 330 | 2.6 | 6.1 | 0.00 | 0.00 | 0.00 | 88 | 1010.6 |
| 20260510080425 | 62 | 330 | 3.5 | 6.1 | 0.00 | 0.00 | 0.00 | 87 | 1010.6 |
| 20260510080328 | 62 | 329 | 1.7 | 6.1 | 0.00 | 0.00 | 0.00 | 87 | 1010.6 |
| 20260510080227 | 62 | 328 | 2.6 | 6.1 | 0.00 | 0.00 | 0.00 | 87 | 1010.6 |
| 20260510080155 | 62 | 302 | 1.7 | 7.0 | 0.00 | 0.00 | 0.00 | 87 | 1010.6 |
| 20260510080032 | 62 | 330 | 1.7 | 7.0 | 0.00 | 0.00 | 0.00 | 87 | 1010.6 |
| 20260510075950 | 62 | 333 | 2.6 | 7.0 | 0.00 | 0.00 | 0.00 | 87 | 1010.6 |
| 20260510075830 | 62 | 332 | 3.5 | 7.0 | 0.00 | 0.00 | 0.00 | 87 | 1010.4 |
| 20260510075730 | 62 | 329 | 2.6 | 7.0 | 0.00 | 0.00 | 0.00 | 87 | 1010.4 |
| 20260510075629 | 62 | 329 | 1.7 | 7.0 | 0.00 | 0.00 | 0.00 | 87 | 1010.4 |
| 20260510075531 | 62 | 330 | 2.6 | 7.0 | 0.00 | 0.00 | 0.00 | 87 | 1010.4 |
| 20260510075429 | 62 | 326 | 4.3 | 7.0 | 0.00 | 0.00 | 0.00 | 87 | 1010.4 |
| 20260510075328 | 62 | 325 | 4.3 | 7.0 | 0.00 | 0.00 | 0.00 | 87 | 1010.4 |
| 20260510075226 | 62 | 332 | 4.3 | 7.0 | 0.00 | 0.00 | 0.00 | 87 | 1010.4 |
| 20260510075143 | 62 | 313 | 4.3 | 7.0 | 0.00 | 0.00 | 0.00 | 87 | 1010.4 |
| 20260510075102 | 62 | 320 | 2.6 | 7.0 | 0.00 | 0.00 | 0.00 | 87 | 1010.4 |
| 20260510074938 | 62 | 328 | 2.6 | 7.8 | 0.00 | 0.00 | 0.00 | 87 | 1010.4 |
| 20260510074821 | 62 | 322 | 4.3 | 7.8 | 0.00 | 0.00 | 0.00 | 87 | 1010.4 |
| 20260510074734 | 62 | 329 | 3.5 | 7.8 | 0.00 | 0.00 | 0.00 | 87 | 1010.4 |
| 20260510074644 | 62 | 280 | 5.2 | 7.8 | 0.00 | 0.00 | 0.00 | 87 | 1010.4 |
| 20260510074545 | 62 | 323 | 3.5 | 7.8 | 0.00 | 0.00 | 0.00 | 86 | 1010.4 |
| 20260510074442 | 62 | 280 | 3.5 | 8.7 | 0.00 | 0.00 | 0.00 | 86 | 1010.4 |
| 20260510074341 | 62 | 316 | 2.6 | 8.7 | 0.00 | 0.00 | 0.00 | 86 | 1010.4 |
| 20260510074239 | 62 | 332 | 5.2 | 8.7 | 0.00 | 0.00 | 0.00 | 86 | 1010.4 |
| 20260510074138 | 62 | 302 | 4.3 | 8.7 | 0.00 | 0.00 | 0.00 | 86 | 1010.4 |
| 20260510074040 | 62 | 330 | 3.5 | 8.7 | 0.00 | 0.00 | 0.00 | 86 | 1010.4 |
| 20260510073938 | 62 | 318 | 1.7 | 8.7 | 0.00 | 0.00 | 0.00 | 86 | 1010.4 |
| 20260510073837 | 62 | 302 | 0.9 | 8.7 | 0.00 | 0.00 | 0.00 | 86 | 1010.4 |
| 20260510073755 | 62 | 294 | 1.7 | 8.7 | 0.00 | 0.00 | 0.00 | 86 | 1010.4 |
| 20260510073633 | 62 | 330 | 3.5 | 8.7 | 0.00 | 0.00 | 0.00 | 86 | 1010.4 |
| 20260510073530 | 62 | 332 | 2.6 | 5.2 | 0.00 | 0.00 | 0.00 | 86 | 1010.4 |
| 20260510073449 | 62 | 332 | 2.6 | 8.7 | 0.00 | 0.00 | 0.00 | 86 | 1010.4 |
| 20260510073346 | 62 | 332 | 3.5 | 8.7 | 0.00 | 0.00 | 0.00 | 86 | 1010.4 |
| 20260510073238 | 62 | 332 | 1.7 | 8.7 | 0.00 | 0.00 | 0.00 | 86 | 1010.4 |
| 20260510073146 | 62 | 332 | 3.5 | 8.7 | 0.00 | 0.00 | 0.00 | 86 | 1010.4 |
| 20260510073044 | 62 | 329 | 4.3 | 8.7 | 0.00 | 0.00 | 0.00 | 86 | 1010.4 |
| 20260510072942 | 62 | 330 | 3.5 | 8.7 | 0.00 | 0.00 | 0.00 | 86 | 1010.4 |
| 20260510072841 | 62 | 336 | 3.5 | 8.7 | 0.00 | 0.00 | 0.00 | 86 | 1010.4 |
| 20260510072740 | 62 | 330 | 4.3 | 8.7 | 0.00 | 0.00 | 0.00 | 86 | 1010.4 |
| 20260510072659 | 62 | 318 | 2.6 | 8.7 | 0.00 | 0.00 | 0.00 | 86 | 1010.4 |
| 20260510072537 | 62 | 329 | 3.5 | 8.7 | 0.00 | 0.00 | 0.00 | 86 | 1010.4 |
| 20260510072439 | 62 | 309 | 3.5 | 8.7 | 0.00 | 0.00 | 0.00 | 86 | 1010.4 |
| 20260510072337 | 62 | 332 | 2.6 | 8.7 | 0.00 | 0.00 | 0.00 | 86 | 1010.4 |
| 20260510072236 | 62 | 330 | 4.3 | 8.7 | 0.00 | 0.00 | 0.00 | 86 | 1010.4 |
| 20260510072134 | 62 | 277 | 4.3 | 8.7 | 0.00 | 0.00 | 0.00 | 86 | 1010.4 |
| 20260510072032 | 62 | 328 | 3.5 | 8.7 | 0.00 | 0.00 | 0.00 | 86 | 1010.4 |
| 20260510071930 | 62 | 280 | 3.5 | 8.7 | 0.00 | 0.00 | 0.00 | 86 | 1010.4 |
| 20260510071834 | 62 | 288 | 3.5 | 7.0 | 0.00 | 0.00 | 0.00 | 86 | 1010.4 |
| 20260510071733 | 62 | 332 | 4.3 | 7.0 | 0.00 | 0.00 | 0.00 | 86 | 1010.4 |
| 20260510071703 | 62 | 330 | 3.5 | 7.0 | 0.00 | 0.00 | 0.00 | 86 | 1010.4 |
| 20260510071541 | 62 | 330 | 4.3 | 7.0 | 0.00 | 0.00 | 0.00 | 86 | 1010.4 |
| 20260510071500 | 62 | 325 | 3.5 | 7.0 | 0.00 | 0.00 | 0.00 | 86 | 1010.4 |
| 20260510071337 | 62 | 308 | 3.5 | 7.0 | 0.00 | 0.00 | 0.00 | 86 | 1010.3 |
| 20260510071256 | 62 | 328 | 3.5 | 7.0 | 0.00 | 0.00 | 0.00 | 86 | 1010.3 |
| 20260510071153 | 62 | 329 | 2.6 | 7.8 | 0.00 | 0.00 | 0.00 | 86 | 1010.3 |
| 20260510071031 | 62 | 282 | 2.6 | 7.8 | 0.00 | 0.00 | 0.00 | 86 | 1010.3 |
| 20260510070934 | 62 | 311 | 3.5 | 7.8 | 0.00 | 0.00 | 0.00 | 85 | 1010.3 |
| 20260510070853 | 62 | 285 | 3.5 | 7.8 | 0.00 | 0.00 | 0.00 | 85 | 1010.3 |
| 20260510070733 | 62 | 329 | 2.6 | 9.6 | 0.00 | 0.00 | 0.00 | 85 | 1010.3 |
| 20260510070630 | 62 | 304 | 3.5 | 9.6 | 0.00 | 0.00 | 0.00 | 85 | 1010.3 |
| 20260510070529 | 62 | 325 | 3.5 | 9.6 | 0.00 | 0.00 | 0.00 | 85 | 1010.3 |
| 20260510070448 | 62 | 288 | 3.5 | 9.6 | 0.00 | 0.00 | 0.00 | 85 | 1010.3 |
| 20260510070327 | 62 | 323 | 6.1 | 9.6 | 0.00 | 0.00 | 0.00 | 85 | 1010.3 |
| 20260510070236 | 62 | 332 | 4.3 | 9.6 | 0.00 | 0.00 | 0.00 | 85 | 1010.3 |
| 20260510070150 | 62 | 311 | 4.3 | 9.6 | 0.00 | 0.00 | 0.00 | 85 | 1010.3 |
| 20260510070047 | 62 | 296 | 1.7 | 9.6 | 0.00 | 0.00 | 0.00 | 85 | 1010.3 |
| 20260510065945 | 62 | 319 | 4.3 | 9.6 | 0.00 | 0.00 | 0.00 | 85 | 1010.3 |
| 20260510065844 | 62 | 282 | 5.2 | 9.6 | 0.00 | 0.00 | 0.00 | 85 | 1010.4 |
| 20260510065802 | 62 | 272 | 3.5 | 8.7 | 0.00 | 0.00 | 0.00 | 85 | 1010.4 |
| 20260510065638 | 62 | 301 | 3.5 | 8.7 | 0.00 | 0.00 | 0.00 | 85 | 1010.4 |
| 20260510065536 | 62 | 330 | 3.5 | 8.7 | 0.00 | 0.00 | 0.00 | 84 | 1010.4 |
| 20260510065435 | 62 | 312 | 3.5 | 8.7 | 0.00 | 0.00 | 0.00 | 84 | 1010.4 |
| 20260510065334 | 62 | 275 | 2.6 | 8.7 | 0.00 | 0.00 | 0.00 | 84 | 1010.4 |
| 20260510065258 | 62 | 296 | 3.5 | 8.7 | 0.00 | 0.00 | 0.00 | 84 | 1010.4 |
| 20260510065136 | 62 | 265 | 4.3 | 8.7 | 0.00 | 0.00 | 0.00 | 84 | 1010.4 |
| 20260510065033 | 62 | 332 | 2.6 | 7.0 | 0.00 | 0.00 | 0.00 | 84 | 1010.4 |
| 20260510064931 | 62 | 260 | 4.3 | 7.0 | 0.00 | 0.00 | 0.00 | 84 | 1010.4 |
| 20260510064829 | 62 | 277 | 2.6 | 7.0 | 0.00 | 0.00 | 0.00 | 84 | 1010.4 |
| 20260510064738 | 62 | 322 | 2.6 | 7.0 | 0.00 | 0.00 | 0.00 | 84 | 1010.4 |
| 20260510064646 | 62 | 309 | 2.6 | 7.0 | 0.00 | 0.00 | 0.00 | 84 | 1010.4 |
| 20260510064543 | 62 | 332 | 2.6 | 7.0 | 0.00 | 0.00 | 0.00 | 84 | 1010.4 |
| 20260510064446 | 62 | 294 | 3.5 | 7.0 | 0.00 | 0.00 | 0.00 | 84 | 1010.4 |
| 20260510064344 | 62 | 329 | 5.2 | 7.0 | 0.00 | 0.00 | 0.00 | 84 | 1011.3 |
| 20260510064303 | 62 | 243 | 4.3 | 7.0 | 0.00 | 0.00 | 0.00 | 84 | 1011.3 |
| 20260510064141 | 62 | 308 | 3.5 | 7.0 | 0.00 | 0.00 | 0.00 | 83 | 1011.3 |
| 20260510064104 | 62 | 322 | 2.6 | 7.0 | 0.00 | 0.00 | 0.00 | 83 | 1011.3 |
| 20260510063940 | 62 | 253 | 3.5 | 7.0 | 0.00 | 0.00 | 0.00 | 83 | 1011.3 |
| 20260510063839 | 62 | 330 | 3.5 | 7.0 | 0.00 | 0.00 | 0.00 | 83 | 1011.3 |
| 20260510063737 | 63 | 292 | 2.6 | 6.1 | 0.00 | 0.00 | 0.00 | 83 | 1011.3 |
| 20260510063640 | 63 | 332 | 4.3 | 6.1 | 0.00 | 0.00 | 0.00 | 83 | 1011.3 |
| 20260510063558 | 63 | 308 | 4.3 | 6.1 | 0.00 | 0.00 | 0.00 | 83 | 1011.3 |
| 20260510063458 | 63 | 304 | 4.3 | 8.7 | 0.00 | 0.00 | 0.00 | 83 | 1011.3 |
| 20260510063334 | 63 | 316 | 4.3 | 9.6 | 0.00 | 0.00 | 0.00 | 83 | 1011.3 |
| 20260510063232 | 63 | 318 | 2.6 | 9.6 | 0.00 | 0.00 | 0.00 | 83 | 1011.3 |
| 20260510063204 | 63 | 323 | 3.5 | 9.6 | 0.00 | 0.00 | 0.00 | 83 | 1011.3 |
| 20260510063039 | 63 | 306 | 2.6 | 9.6 | 0.00 | 0.00 | 0.00 | 83 | 1011.3 |
| 20260510063000 | 63 | 268 | 2.6 | 9.6 | 0.00 | 0.00 | 0.00 | 83 | 1011.3 |
| 20260510062837 | 63 | 257 | 2.6 | 9.6 | 0.00 | 0.00 | 0.00 | 83 | 1011.4 |
| 20260510062740 | 63 | 326 | 4.3 | 9.6 | 0.00 | 0.00 | 0.00 | 83 | 1011.4 |
| 20260510062658 | 63 | 287 | 6.1 | 9.6 | 0.00 | 0.00 | 0.00 | 83 | 1011.4 |
| 20260510062554 | 63 | 261 | 4.3 | 9.6 | 0.00 | 0.00 | 0.00 | 82 | 1011.4 |
| 20260510062432 | 63 | 277 | 4.3 | 9.6 | 0.00 | 0.00 | 0.00 | 82 | 1011.4 |
| 20260510062331 | 63 | 308 | 4.3 | 9.6 | 0.00 | 0.00 | 0.00 | 82 | 1011.4 |
| 20260510062230 | 63 | 329 | 4.3 | 9.6 | 0.00 | 0.00 | 0.00 | 82 | 1011.4 |
| 20260510062129 | 63 | 329 | 4.3 | 9.6 | 0.00 | 0.00 | 0.00 | 82 | 1011.4 |
| 20260510062035 | 63 | 254 | 5.2 | 9.6 | 0.00 | 0.00 | 0.00 | 82 | 1011.4 |
| 20260510061934 | 63 | 328 | 5.2 | 9.6 | 0.00 | 0.00 | 0.00 | 82 | 1011.4 |
| 20260510061832 | 63 | 332 | 5.2 | 8.7 | 0.00 | 0.00 | 0.00 | 82 | 1011.4 |
| 20260510061742 | 63 | 274 | 4.3 | 9.6 | 0.00 | 0.00 | 0.00 | 82 | 1011.4 |
| 20260510061651 | 63 | 329 | 4.3 | 9.6 | 0.00 | 0.00 | 0.00 | 82 | 1011.4 |
| 20260510061529 | 63 | 298 | 3.5 | 9.6 | 0.00 | 0.00 | 0.00 | 82 | 1011.4 |
| 20260510061448 | 63 | 329 | 7.0 | 9.6 | 0.00 | 0.00 | 0.00 | 82 | 1011.4 |
| 20260510061346 | 63 | 302 | 5.2 | 9.6 | 0.00 | 0.00 | 0.00 | 82 | 1010.7 |
| 20260510061243 | 63 | 306 | 4.3 | 9.6 | 0.00 | 0.00 | 0.00 | 82 | 1010.7 |
| 20260510061146 | 63 | 329 | 4.3 | 9.6 | 0.00 | 0.00 | 0.00 | 82 | 1010.7 |
| 20260510061104 | 63 | 308 | 4.3 | 9.6 | 0.00 | 0.00 | 0.00 | 82 | 1010.7 |
| 20260510060942 | 63 | 289 | 4.3 | 9.6 | 0.00 | 0.00 | 0.00 | 81 | 1010.7 |
| 20260510060840 | 63 | 320 | 3.5 | 9.6 | 0.00 | 0.00 | 0.00 | 81 | 1010.7 |
| 20260510060738 | 63 | 298 | 3.5 | 10.4 | 0.00 | 0.00 | 0.00 | 81 | 1010.7 |
| 20260510060636 | 63 | 313 | 4.3 | 11.3 | 0.00 | 0.00 | 0.00 | 81 | 1010.7 |
| 20260510060535 | 63 | 280 | 3.5 | 11.3 | 0.00 | 0.00 | 0.00 | 81 | 1010.7 |
| 20260510060438 | 63 | 299 | 4.3 | 11.3 | 0.00 | 0.00 | 0.00 | 81 | 1010.7 |
| 20260510060336 | 63 | 318 | 4.3 | 11.3 | 0.00 | 0.00 | 0.00 | 81 | 1010.7 |
| 20260510060235 | 63 | 258 | 4.3 | 11.3 | 0.00 | 0.00 | 0.00 | 81 | 1010.7 |
| 20260510060206 | 63 | 260 | 4.3 | 11.3 | 0.00 | 0.00 | 0.00 | 81 | 1010.7 |
| 20260510060000 | 63 | 299 | 6.1 | 11.3 | 0.00 | 0.00 | 0.00 | 81 | 1010.7 |
| 20260510055839 | 63 | 328 | 6.1 | 11.3 | 0.00 | 0.00 | 0.00 | 81 | 1010.7 |
| 20260510055737 | 63 | 308 | 7.8 | 11.3 | 0.00 | 0.00 | 0.00 | 81 | 1010.7 |
| 20260510055656 | 63 | 325 | 4.3 | 10.4 | 0.00 | 0.00 | 0.00 | 81 | 1010.7 |
| 20260510055537 | 63 | 304 | 4.3 | 10.4 | 0.00 | 0.00 | 0.00 | 81 | 1010.7 |
| 20260510055436 | 63 | 320 | 5.2 | 9.6 | 0.00 | 0.00 | 0.00 | 81 | 1010.7 |
| 20260510055335 | 63 | 304 | 5.2 | 9.6 | 0.00 | 0.00 | 0.00 | 81 | 1010.7 |
| 20260510055253 | 63 | 285 | 7.0 | 9.6 | 0.00 | 0.00 | 0.00 | 81 | 1010.7 |
| 20260510055131 | 63 | 292 | 6.1 | 8.7 | 0.00 | 0.00 | 0.00 | 81 | 1010.7 |
| 20260510055050 | 63 | 282 | 6.1 | 8.7 | 0.00 | 0.00 | 0.00 | 80 | 1010.7 |
| 20260510054927 | 63 | 332 | 5.2 | 9.6 | 0.00 | 0.00 | 0.00 | 80 | 1010.7 |
| 20260510054830 | 63 | 325 | 7.0 | 9.6 | 0.00 | 0.00 | 0.00 | 80 | 1010.7 |
| 20260510054728 | 63 | 313 | 4.3 | 9.6 | 0.00 | 0.00 | 0.00 | 80 | 1010.7 |
| 20260510054658 | 63 | 330 | 3.5 | 9.6 | 0.00 | 0.00 | 0.00 | 80 | 1010.7 |
| 20260510054537 | 63 | 322 | 4.3 | 9.6 | 0.00 | 0.00 | 0.00 | 80 | 1010.7 |
| 20260510054455 | 63 | 330 | 5.2 | 10.4 | 0.00 | 0.00 | 0.00 | 80 | 1010.7 |
| 20260510054333 | 63 | 318 | 5.2 | 10.4 | 0.00 | 0.00 | 0.00 | 80 | 1010.8 |
| 20260510054232 | 63 | 274 | 4.3 | 10.4 | 0.00 | 0.00 | 0.00 | 80 | 1010.8 |
| 20260510054151 | 63 | 251 | 5.2 | 10.4 | 0.00 | 0.00 | 0.00 | 80 | 1010.8 |
| 20260510054032 | 63 | 330 | 6.1 | 10.4 | 0.00 | 0.00 | 0.00 | 80 | 1010.8 |
| 20260510053931 | 63 | 330 | 5.2 | 10.4 | 0.00 | 0.00 | 0.00 | 80 | 1010.8 |
| 20260510053854 | 63 | 332 | 6.1 | 10.4 | 0.00 | 0.00 | 0.00 | 80 | 1010.8 |
| 20260510053732 | 63 | 316 | 4.3 | 11.3 | 0.00 | 0.00 | 0.00 | 80 | 1010.8 |
| 20260510053631 | 63 | 330 | 7.0 | 11.3 | 0.00 | 0.00 | 0.00 | 80 | 1010.8 |
| 20260510053549 | 63 | 332 | 7.0 | 11.3 | 0.00 | 0.00 | 0.00 | 80 | 1010.8 |
| 20260510053426 | 63 | 318 | 4.3 | 11.3 | 0.00 | 0.00 | 0.00 | 80 | 1010.8 |
| 20260510053324 | 63 | 328 | 7.8 | 11.3 | 0.00 | 0.00 | 0.00 | 80 | 1010.8 |
| 20260510053226 | 63 | 316 | 5.2 | 11.3 | 0.00 | 0.00 | 0.00 | 80 | 1010.8 |
| 20260510053156 | 63 | 330 | 5.2 | 11.3 | 0.00 | 0.00 | 0.00 | 80 | 1010.8 |
| 20260510053033 | 63 | 271 | 6.1 | 11.3 | 0.00 | 0.00 | 0.00 | 80 | 1010.8 |
| 20260510052933 | 63 | 318 | 7.0 | 11.3 | 0.00 | 0.00 | 0.00 | 80 | 1010.8 |
| 20260510052832 | 63 | 330 | 6.1 | 11.3 | 0.00 | 0.00 | 0.00 | 80 | 1010.7 |
| 20260510052730 | 63 | 330 | 7.8 | 11.3 | 0.00 | 0.00 | 0.00 | 80 | 1010.7 |
| 20260510052648 | 63 | 332 | 7.0 | 11.3 | 0.00 | 0.00 | 0.00 | 80 | 1010.7 |
| 20260510052608 | 63 | 337 | 5.2 | 11.3 | 0.00 | 0.00 | 0.00 | 80 | 1010.7 |
| 20260510052505 | 63 | 316 | 4.3 | 7.0 | 0.00 | 0.00 | 0.00 | 80 | 1010.7 |
| 20260510052407 | 63 | 299 | 3.5 | 7.0 | 0.00 | 0.00 | 0.00 | 80 | 1010.7 |
| 20260510052306 | 63 | 330 | 3.5 | 7.8 | 0.00 | 0.00 | 0.00 | 80 | 1010.7 |
| 20260510052142 | 63 | 330 | 5.2 | 7.8 | 0.00 | 0.00 | 0.00 | 80 | 1010.7 |
| 20260510052039 | 63 | 330 | 5.2 | 8.7 | 0.00 | 0.00 | 0.00 | 80 | 1010.7 |
| 20260510051957 | 63 | 330 | 3.5 | 10.4 | 0.00 | 0.00 | 0.00 | 79 | 1010.7 |
| 20260510051854 | 63 | 332 | 3.5 | 10.4 | 0.00 | 0.00 | 0.00 | 80 | 1010.7 |
| 20260510051752 | 63 | 332 | 2.6 | 10.4 | 0.00 | 0.00 | 0.00 | 80 | 1010.7 |
| 20260510051701 | 63 | 329 | 4.3 | 10.4 | 0.00 | 0.00 | 0.00 | 80 | 1010.7 |
| 20260510051538 | 63 | 330 | 3.5 | 10.4 | 0.00 | 0.00 | 0.00 | 79 | 1010.7 |
| 20260510051434 | 63 | 329 | 4.3 | 10.4 | 0.00 | 0.00 | 0.00 | 79 | 1010.7 |
| 20260510051338 | 63 | 332 | 4.3 | 10.4 | 0.00 | 0.00 | 0.00 | 79 | 1010.7 |
| 20260510051236 | 63 | 330 | 6.1 | 10.4 | 0.00 | 0.00 | 0.00 | 79 | 1010.7 |
| 20260510051155 | 63 | 302 | 7.0 | 10.4 | 0.00 | 0.00 | 0.00 | 79 | 1010.7 |
| 20260510051031 | 63 | 328 | 5.2 | 10.4 | 0.00 | 0.00 | 0.00 | 79 | 1010.7 |
| 20260510050953 | 63 | 332 | 5.2 | 10.4 | 0.00 | 0.00 | 0.00 | 79 | 1010.7 |
| 20260510050831 | 63 | 322 | 7.0 | 10.4 | 0.00 | 0.00 | 0.00 | 79 | 1010.7 |
| 20260510050729 | 63 | 329 | 5.2 | 10.4 | 0.00 | 0.00 | 0.00 | 79 | 1010.7 |
| 20260510050629 | 63 | 326 | 7.8 | 10.4 | 0.00 | 0.00 | 0.00 | 79 | 1010.7 |
| 20260510050531 | 63 | 330 | 7.0 | 10.4 | 0.00 | 0.00 | 0.00 | 79 | 1010.7 |
| 20260510050431 | 63 | 328 | 5.2 | 10.4 | 0.00 | 0.00 | 0.00 | 79 | 1010.7 |
| 20260510050330 | 63 | 320 | 7.8 | 10.4 | 0.00 | 0.00 | 0.00 | 79 | 1010.7 |
| 20260510050239 | 63 | 302 | 5.2 | 9.6 | 0.00 | 0.00 | 0.00 | 79 | 1010.7 |
| 20260510050151 | 63 | 313 | 6.1 | 9.6 | 0.00 | 0.00 | 0.00 | 79 | 1010.7 |
| 20260510050028 | 63 | 330 | 6.1 | 9.6 | 0.00 | 0.00 | 0.00 | 79 | 1010.7 |
| 20260510045925 | 63 | 330 | 5.2 | 9.6 | 0.00 | 0.00 | 0.00 | 79 | 1010.7 |
| 20260510045829 | 63 | 337 | 5.2 | 9.6 | 0.00 | 0.00 | 0.00 | 79 | 1011.6 |
| 20260510045727 | 64 | 328 | 3.5 | 9.6 | 0.00 | 0.00 | 0.00 | 79 | 1011.6 |
| 20260510045646 | 64 | 309 | 4.3 | 9.6 | 0.00 | 0.00 | 0.00 | 79 | 1011.6 |
| 20260510045605 | 64 | 316 | 3.5 | 11.3 | 0.00 | 0.00 | 0.00 | 79 | 1011.6 |
| 20260510045502 | 64 | 329 | 5.2 | 11.3 | 0.00 | 0.00 | 0.00 | 79 | 1011.6 |
| 20260510045339 | 64 | 289 | 6.1 | 11.3 | 0.00 | 0.00 | 0.00 | 79 | 1011.6 |
| 20260510045258 | 64 | 330 | 4.3 | 11.3 | 0.00 | 0.00 | 0.00 | 79 | 1011.6 |
| 20260510045134 | 64 | 330 | 5.2 | 11.3 | 0.00 | 0.00 | 0.00 | 79 | 1011.6 |
| 20260510045032 | 64 | 326 | 7.0 | 11.3 | 0.00 | 0.00 | 0.00 | 79 | 1011.6 |
| 20260510044955 | 64 | 330 | 4.3 | 11.3 | 0.00 | 0.00 | 0.00 | 79 | 1011.6 |
| 20260510044833 | 64 | 302 | 4.3 | 11.3 | 0.00 | 0.00 | 0.00 | 79 | 1011.6 |
| 20260510044733 | 64 | 332 | 7.0 | 11.3 | 0.00 | 0.00 | 0.00 | 80 | 1011.6 |
| 20260510044703 | 64 | 326 | 6.1 | 11.3 | 0.00 | 0.00 | 0.00 | 80 | 1011.6 |
| 20260510044601 | 64 | 328 | 5.2 | 10.4 | 0.00 | 0.00 | 0.00 | 80 | 1011.6 |
| 20260510044439 | 64 | 326 | 4.3 | 11.3 | 0.00 | 0.00 | 0.00 | 80 | 1011.6 |
| 20260510044342 | 64 | 329 | 7.0 | 11.3 | 0.00 | 0.00 | 0.00 | 80 | 1011.7 |
| 20260510044240 | 64 | 323 | 6.1 | 11.3 | 0.00 | 0.00 | 0.00 | 80 | 1011.7 |
| 20260510044142 | 64 | 329 | 6.1 | 11.3 | 0.00 | 0.00 | 0.00 | 80 | 1011.7 |
| 20260510044041 | 64 | 329 | 6.1 | 11.3 | 0.00 | 0.00 | 0.00 | 80 | 1011.7 |
| 20260510043939 | 64 | 330 | 7.8 | 11.3 | 0.00 | 0.00 | 0.00 | 80 | 1011.7 |
| 20260510043835 | 64 | 325 | 5.2 | 11.3 | 0.00 | 0.00 | 0.00 | 80 | 1011.7 |
| 20260510043734 | 64 | 326 | 9.6 | 11.3 | 0.00 | 0.00 | 0.00 | 80 | 1011.7 |
| 20260510043653 | 64 | 323 | 6.1 | 11.3 | 0.00 | 0.00 | 0.00 | 80 | 1011.7 |
| 20260510043530 | 64 | 280 | 6.1 | 11.3 | 0.00 | 0.00 | 0.00 | 80 | 1011.7 |
| 20260510043431 | 64 | 329 | 6.1 | 10.4 | 0.00 | 0.00 | 0.00 | 80 | 1011.7 |
| 20260510043330 | 64 | 280 | 2.6 | 10.4 | 0.00 | 0.00 | 0.00 | 80 | 1011.7 |
| 20260510043239 | 64 | 335 | 3.5 | 10.4 | 0.00 | 0.00 | 0.00 | 80 | 1011.7 |
| 20260510043148 | 64 | 295 | 5.2 | 10.4 | 0.00 | 0.00 | 0.00 | 80 | 1011.7 |
| 20260510043025 | 64 | 311 | 7.8 | 10.4 | 0.00 | 0.00 | 0.00 | 80 | 1011.7 |
| 20260510042943 | 64 | 326 | 6.1 | 10.4 | 0.00 | 0.00 | 0.00 | 80 | 1011.7 |
| 20260510042841 | 64 | 328 | 6.1 | 10.4 | 0.00 | 0.00 | 0.00 | 80 | 1010.9 |
| 20260510042800 | 64 | 330 | 7.0 | 10.4 | 0.00 | 0.00 | 0.00 | 80 | 1010.9 |
| 20260510042657 | 64 | 319 | 7.0 | 10.4 | 0.00 | 0.00 | 0.00 | 80 | 1010.9 |
| 20260510042559 | 64 | 329 | 5.2 | 10.4 | 0.00 | 0.00 | 0.00 | 80 | 1010.9 |
| 20260510042456 | 64 | 329 | 5.2 | 10.4 | 0.00 | 0.00 | 0.00 | 80 | 1010.9 |
| 20260510042334 | 64 | 329 | 7.0 | 10.4 | 0.00 | 0.00 | 0.00 | 80 | 1010.9 |
| 20260510042232 | 64 | 305 | 5.2 | 10.4 | 0.00 | 0.00 | 0.00 | 80 | 1010.9 |
| 20260510042130 | 64 | 330 | 4.3 | 10.4 | 0.00 | 0.00 | 0.00 | 80 | 1010.9 |
| 20260510042029 | 64 | 330 | 5.2 | 10.4 | 0.00 | 0.00 | 0.00 | 80 | 1010.9 |
| 20260510041928 | 64 | 316 | 5.2 | 10.4 | 0.00 | 0.00 | 0.00 | 80 | 1010.9 |
| 20260510041847 | 64 | 330 | 4.3 | 10.4 | 0.00 | 0.00 | 0.00 | 80 | 1010.9 |
| 20260510041728 | 64 | 329 | 7.8 | 10.4 | 0.00 | 0.00 | 0.00 | 80 | 1010.9 |
| 20260510041657 | 64 | 289 | 6.1 | 10.4 | 0.00 | 0.00 | 0.00 | 80 | 1010.9 |
| 20260510041534 | 64 | 318 | 7.0 | 10.4 | 0.00 | 0.00 | 0.00 | 80 | 1010.9 |
| 20260510041433 | 64 | 312 | 7.0 | 10.4 | 0.00 | 0.00 | 0.00 | 80 | 1010.9 |
| 20260510041351 | 64 | 330 | 6.1 | 13.9 | 0.00 | 0.00 | 0.00 | 80 | 1010.9 |
| 20260510041228 | 64 | 295 | 5.2 | 13.9 | 0.00 | 0.00 | 0.00 | 80 | 1010.9 |
| 20260510041146 | 64 | 330 | 5.2 | 13.9 | 0.00 | 0.00 | 0.00 | 80 | 1010.9 |
| 20260510041103 | 64 | 330 | 6.1 | 13.9 | 0.00 | 0.00 | 0.00 | 80 | 1010.9 |
| 20260510040945 | 64 | 322 | 5.2 | 13.9 | 0.00 | 0.00 | 0.00 | 80 | 1010.9 |
| 20260510040902 | 64 | 330 | 4.3 | 13.9 | 0.00 | 0.00 | 0.00 | 80 | 1010.9 |
| 20260510040759 | 64 | 329 | 3.5 | 13.9 | 0.00 | 0.00 | 0.00 | 80 | 1010.9 |
| 20260510040637 | 64 | 329 | 5.2 | 13.9 | 0.00 | 0.00 | 0.00 | 80 | 1010.9 |
| 20260510040535 | 64 | 330 | 8.7 | 13.9 | 0.00 | 0.00 | 0.00 | 80 | 1010.9 |
| 20260510040453 | 64 | 335 | 6.1 | 11.3 | 0.00 | 0.00 | 0.00 | 80 | 1010.9 |
| 20260510040330 | 64 | 306 | 7.0 | 11.3 | 0.00 | 0.00 | 0.00 | 80 | 1010.9 |
| 20260510040239 | 64 | 323 | 7.8 | 11.3 | 0.00 | 0.00 | 0.00 | 80 | 1010.9 |
| 20260510040149 | 64 | 288 | 7.0 | 11.3 | 0.00 | 0.00 | 0.00 | 80 | 1010.9 |
| 20260510040045 | 64 | 330 | 7.0 | 11.3 | 0.00 | 0.00 | 0.00 | 81 | 1010.9 |
| 20260510035926 | 64 | 332 | 7.8 | 11.3 | 0.00 | 0.00 | 0.00 | 81 | 1010.9 |
| 20260510035827 | 64 | 322 | 7.0 | 11.3 | 0.00 | 0.00 | 0.00 | 81 | 1010.9 |
| 20260510035726 | 64 | 330 | 6.1 | 11.3 | 0.00 | 0.00 | 0.00 | 81 | 1010.9 |
| 20260510035644 | 64 | 322 | 5.2 | 11.3 | 0.00 | 0.00 | 0.00 | 81 | 1010.9 |
| 20260510035606 | 64 | 330 | 7.8 | 11.3 | 0.00 | 0.00 | 0.00 | 81 | 1010.9 |
| 20260510035504 | 64 | 330 | 7.0 | 11.3 | 0.00 | 0.00 | 0.00 | 81 | 1010.9 |
| 20260510035342 | 64 | 330 | 6.1 | 11.3 | 0.00 | 0.00 | 0.00 | 81 | 1010.9 |
| 20260510035224 | 64 | 277 | 6.1 | 11.3 | 0.00 | 0.00 | 0.00 | 81 | 1010.9 |
| 20260510035142 | 64 | 322 | 5.2 | 11.3 | 0.00 | 0.00 | 0.00 | 81 | 1010.9 |
| 20260510035041 | 64 | 330 | 5.2 | 11.3 | 0.00 | 0.00 | 0.00 | 81 | 1010.9 |
| 20260510034959 | 64 | 329 | 7.0 | 11.3 | 0.00 | 0.00 | 0.00 | 81 | 1010.9 |
| 20260510034837 | 64 | 329 | 7.0 | 11.3 | 0.00 | 0.00 | 0.00 | 81 | 1010.9 |
| 20260510034736 | 64 | 325 | 7.0 | 9.6 | 0.00 | 0.00 | 0.00 | 81 | 1010.9 |
| 20260510034705 | 64 | 330 | 6.1 | 9.6 | 0.00 | 0.00 | 0.00 | 81 | 1010.9 |
| 20260510034542 | 64 | 322 | 5.2 | 12.2 | 0.00 | 0.00 | 0.00 | 81 | 1010.9 |
| 20260510034424 | 64 | 232 | 4.3 | 12.2 | 0.00 | 0.00 | 0.00 | 81 | 1010.9 |
| 20260510034343 | 64 | 329 | 5.2 | 12.2 | 0.00 | 0.00 | 0.00 | 81 | 1011.0 |
| 20260510034241 | 64 | 332 | 4.3 | 12.2 | 0.00 | 0.00 | 0.00 | 81 | 1011.0 |
| 20260510034141 | 64 | 329 | 5.2 | 12.2 | 0.00 | 0.00 | 0.00 | 81 | 1011.0 |
| 20260510034058 | 64 | 329 | 4.3 | 12.2 | 0.00 | 0.00 | 0.00 | 81 | 1011.0 |
| 20260510033937 | 64 | 332 | 7.0 | 12.2 | 0.00 | 0.00 | 0.00 | 81 | 1011.0 |
| 20260510033836 | 64 | 330 | 6.1 | 12.2 | 0.00 | 0.00 | 0.00 | 81 | 1011.0 |
| 20260510033738 | 64 | 332 | 7.8 | 12.2 | 0.00 | 0.00 | 0.00 | 81 | 1011.0 |
| 20260510033636 | 64 | 330 | 6.1 | 11.3 | 0.00 | 0.00 | 0.00 | 81 | 1011.0 |
| 20260510033536 | 64 | 319 | 6.1 | 11.3 | 0.00 | 0.00 | 0.00 | 81 | 1011.0 |
| 20260510033434 | 64 | 272 | 5.2 | 11.3 | 0.00 | 0.00 | 0.00 | 81 | 1011.0 |
| 20260510033333 | 64 | 326 | 6.1 | 11.3 | 0.00 | 0.00 | 0.00 | 81 | 1011.0 |
| 20260510033232 | 64 | 318 | 9.6 | 11.3 | 0.00 | 0.00 | 0.00 | 81 | 1011.0 |
| 20260510033203 | 64 | 332 | 7.0 | 11.3 | 0.00 | 0.00 | 0.00 | 81 | 1011.0 |
| 20260510033043 | 64 | 332 | 5.2 | 11.3 | 0.00 | 0.00 | 0.00 | 81 | 1011.0 |
| 20260510032941 | 64 | 330 | 5.2 | 11.3 | 0.00 | 0.00 | 0.00 | 81 | 1011.0 |
| 20260510032840 | 64 | 330 | 6.1 | 11.3 | 0.00 | 0.00 | 0.00 | 81 | 1010.9 |
| 20260510032738 | 64 | 332 | 6.1 | 11.3 | 0.00 | 0.00 | 0.00 | 81 | 1010.9 |
| 20260510032637 | 64 | 305 | 7.0 | 11.3 | 0.00 | 0.00 | 0.00 | 81 | 1010.9 |
| 20260510032536 | 64 | 263 | 7.0 | 11.3 | 0.00 | 0.00 | 0.00 | 81 | 1010.9 |
| 20260510032435 | 64 | 322 | 6.1 | 11.3 | 0.00 | 0.00 | 0.00 | 81 | 1010.9 |
| 20260510032337 | 64 | 328 | 4.3 | 11.3 | 0.00 | 0.00 | 0.00 | 81 | 1010.9 |
| 20260510032235 | 64 | 330 | 6.1 | 11.3 | 0.00 | 0.00 | 0.00 | 81 | 1010.9 |
| 20260510032133 | 64 | 329 | 7.0 | 11.3 | 0.00 | 0.00 | 0.00 | 81 | 1010.9 |
| 20260510032052 | 64 | 332 | 5.2 | 11.3 | 0.00 | 0.00 | 0.00 | 81 | 1010.9 |
| 20260510031929 | 64 | 319 | 7.0 | 11.3 | 0.00 | 0.00 | 0.00 | 81 | 1010.9 |
| 20260510031828 | 64 | 332 | 7.8 | 11.3 | 0.00 | 0.00 | 0.00 | 81 | 1010.9 |
| 20260510031727 | 64 | 329 | 6.1 | 10.4 | 0.00 | 0.00 | 0.00 | 81 | 1010.9 |
| 20260510031701 | 64 | 330 | 7.8 | 10.4 | 0.00 | 0.00 | 0.00 | 81 | 1010.9 |
| 20260510031539 | 64 | 260 | 7.8 | 10.4 | 0.00 | 0.00 | 0.00 | 81 | 1010.9 |
| 20260510031438 | 64 | 328 | 5.2 | 10.4 | 0.00 | 0.00 | 0.00 | 81 | 1010.9 |
| 20260510031336 | 64 | 302 | 5.2 | 10.4 | 0.00 | 0.00 | 0.00 | 81 | 1011.2 |
| 20260510031234 | 64 | 330 | 6.1 | 10.4 | 0.00 | 0.00 | 0.00 | 81 | 1011.2 |
| 20260510031153 | 64 | 320 | 7.0 | 11.3 | 0.00 | 0.00 | 0.00 | 81 | 1011.2 |
| 20260510031031 | 64 | 304 | 5.2 | 11.3 | 0.00 | 0.00 | 0.00 | 81 | 1011.2 |
| 20260510030932 | 64 | 337 | 4.3 | 11.3 | 0.00 | 0.00 | 0.00 | 81 | 1011.2 |
| 20260510030830 | 64 | 332 | 6.1 | 11.3 | 0.00 | 0.00 | 0.00 | 81 | 1011.2 |
| 20260510030729 | 64 | 329 | 6.1 | 11.3 | 0.00 | 0.00 | 0.00 | 81 | 1011.2 |
| 20260510030627 | 64 | 325 | 4.3 | 11.3 | 0.00 | 0.00 | 0.00 | 81 | 1011.2 |
| 20260510030526 | 64 | 325 | 4.3 | 11.3 | 0.00 | 0.00 | 0.00 | 81 | 1011.2 |
| 20260510030424 | 64 | 322 | 3.5 | 11.3 | 0.00 | 0.00 | 0.00 | 81 | 1011.2 |
| 20260510030343 | 64 | 302 | 4.3 | 11.3 | 0.00 | 0.00 | 0.00 | 81 | 1011.2 |
| 20260510030226 | 64 | 270 | 6.1 | 11.3 | 0.00 | 0.00 | 0.00 | 81 | 1011.2 |
| 20260510030201 | 64 | 332 | 5.2 | 11.3 | 0.00 | 0.00 | 0.00 | 81 | 1011.2 |
| 20260510030041 | 64 | 316 | 5.2 | 11.3 | 0.00 | 0.00 | 0.00 | 81 | 1011.2 |
| 20260510025939 | 64 | 299 | 4.3 | 11.3 | 0.00 | 0.00 | 0.00 | 81 | 1011.2 |
| 20260510025838 | 64 | 192 | 4.3 | 11.3 | 0.00 | 0.00 | 0.00 | 81 | 1010.9 |
| 20260510025737 | 64 | 328 | 5.2 | 11.3 | 0.00 | 0.00 | 0.00 | 81 | 1010.9 |
| 20260510025636 | 64 | 277 | 3.5 | 10.4 | 0.00 | 0.00 | 0.00 | 81 | 1010.9 |
| 20260510025558 | 65 | 226 | 4.3 | 10.4 | 0.00 | 0.00 | 0.00 | 81 | 1010.9 |
| 20260510025435 | 65 | 322 | 6.1 | 10.4 | 0.00 | 0.00 | 0.00 | 81 | 1010.9 |
| 20260510025354 | 65 | 275 | 6.1 | 10.4 | 0.00 | 0.00 | 0.00 | 81 | 1010.9 |
| 20260510025233 | 65 | 311 | 5.2 | 9.6 | 0.00 | 0.00 | 0.00 | 81 | 1010.9 |
| 20260510025152 | 65 | 328 | 5.2 | 9.6 | 0.00 | 0.00 | 0.00 | 81 | 1010.9 |
| 20260510025029 | 65 | 315 | 4.3 | 9.6 | 0.00 | 0.00 | 0.00 | 81 | 1010.9 |
| 20260510024926 | 65 | 292 | 6.1 | 9.6 | 0.00 | 0.00 | 0.00 | 81 | 1010.9 |
| 20260510024826 | 65 | 295 | 5.2 | 8.7 | 0.00 | 0.00 | 0.00 | 81 | 1010.9 |
| 20260510024729 | 65 | 277 | 6.1 | 8.7 | 0.00 | 0.00 | 0.00 | 81 | 1010.9 |
| 20260510024658 | 65 | 244 | 4.3 | 8.7 | 0.00 | 0.00 | 0.00 | 81 | 1010.9 |
| 20260510024556 | 65 | 268 | 4.3 | 8.7 | 0.00 | 0.00 | 0.00 | 81 | 1010.9 |
| 20260510024435 | 65 | 247 | 4.3 | 8.7 | 0.00 | 0.00 | 0.00 | 81 | 1010.9 |
| 20260510024333 | 65 | 280 | 5.2 | 9.6 | 0.00 | 0.00 | 0.00 | 81 | 1010.6 |
| 20260510024231 | 65 | 232 | 4.3 | 9.6 | 0.00 | 0.00 | 0.00 | 81 | 1010.6 |
| 20260510024132 | 65 | 274 | 4.3 | 9.6 | 0.00 | 0.00 | 0.00 | 81 | 1010.6 |
| 20260510024031 | 65 | 284 | 4.3 | 9.6 | 0.00 | 0.00 | 0.00 | 81 | 1010.6 |
| 20260510023933 | 65 | 254 | 2.6 | 9.6 | 0.00 | 0.00 | 0.00 | 81 | 1010.6 |
| 20260510023832 | 65 | 318 | 3.5 | 9.6 | 0.00 | 0.00 | 0.00 | 80 | 1010.6 |
| 20260510023729 | 65 | 265 | 2.6 | 9.6 | 0.00 | 0.00 | 0.00 | 80 | 1010.6 |
| 20260510023648 | 65 | 291 | 3.5 | 9.6 | 0.00 | 0.00 | 0.00 | 80 | 1010.6 |
| 20260510023545 | 65 | 288 | 6.1 | 9.6 | 0.00 | 0.00 | 0.00 | 80 | 1010.6 |
| 20260510023443 | 65 | 298 | 5.2 | 9.6 | 0.00 | 0.00 | 0.00 | 80 | 1010.6 |
| 20260510023341 | 65 | 232 | 4.3 | 8.7 | 0.00 | 0.00 | 0.00 | 80 | 1010.6 |
| 20260510023225 | 65 | 227 | 5.2 | 8.7 | 0.00 | 0.00 | 0.00 | 80 | 1010.6 |
| 20260510023156 | 65 | 292 | 4.3 | 7.0 | 0.00 | 0.00 | 0.00 | 80 | 1010.6 |
| 20260510023032 | 65 | 289 | 4.3 | 7.0 | 0.00 | 0.00 | 0.00 | 80 | 1010.6 |
| 20260510022951 | 65 | 234 | 3.5 | 7.0 | 0.00 | 0.00 | 0.00 | 80 | 1010.6 |
| 20260510022829 | 65 | 223 | 4.3 | 7.0 | 0.00 | 0.00 | 0.00 | 80 | 1010.4 |
| 20260510022728 | 65 | 191 | 4.3 | 8.7 | 0.00 | 0.00 | 0.00 | 80 | 1010.4 |
| 20260510022627 | 65 | 243 | 4.3 | 8.7 | 0.00 | 0.00 | 0.00 | 80 | 1010.4 |
| 20260510022527 | 65 | 288 | 3.5 | 8.7 | 0.00 | 0.00 | 0.00 | 80 | 1010.4 |
| 20260510022429 | 65 | 227 | 2.6 | 8.7 | 0.00 | 0.00 | 0.00 | 80 | 1010.4 |
| 20260510022327 | 65 | 232 | 4.3 | 8.7 | 0.00 | 0.00 | 0.00 | 80 | 1010.4 |
| 20260510022246 | 65 | 220 | 5.2 | 8.7 | 0.00 | 0.00 | 0.00 | 80 | 1010.4 |
| 20260510022204 | 65 | 205 | 4.3 | 8.7 | 0.00 | 0.00 | 0.00 | 80 | 1010.4 |
| 20260510022041 | 65 | 251 | 3.5 | 8.7 | 0.00 | 0.00 | 0.00 | 80 | 1010.4 |
| 20260510021940 | 65 | 178 | 5.2 | 8.7 | 0.00 | 0.00 | 0.00 | 80 | 1010.4 |
| 20260510021841 | 65 | 233 | 4.3 | 6.1 | 0.00 | 0.00 | 0.00 | 80 | 1010.4 |
| 20260510021725 | 65 | 184 | 4.3 | 6.1 | 0.00 | 0.00 | 0.00 | 80 | 1010.4 |
| 20260510021654 | 65 | 216 | 4.3 | 6.1 | 0.00 | 0.00 | 0.00 | 80 | 1010.4 |
| 20260510021533 | 65 | 188 | 3.5 | 6.1 | 0.00 | 0.00 | 0.00 | 80 | 1010.4 |
| 20260510021452 | 65 | 189 | 3.5 | 6.1 | 0.00 | 0.00 | 0.00 | 80 | 1010.4 |
| 20260510021329 | 65 | 176 | 3.5 | 6.1 | 0.00 | 0.00 | 0.00 | 80 | 1010.3 |
| 20260510021228 | 65 | 224 | 3.5 | 6.1 | 0.00 | 0.00 | 0.00 | 80 | 1010.3 |
| 20260510021127 | 65 | 208 | 2.6 | 6.1 | 0.00 | 0.00 | 0.00 | 80 | 1010.3 |
| 20260510021029 | 65 | 171 | 3.5 | 6.1 | 0.00 | 0.00 | 0.00 | 80 | 1010.3 |
| 20260510020952 | 65 | 220 | 4.3 | 6.1 | 0.00 | 0.00 | 0.00 | 80 | 1010.3 |
| 20260510020849 | 65 | 193 | 5.2 | 6.1 | 0.00 | 0.00 | 0.00 | 79 | 1010.3 |
| 20260510020747 | 65 | 199 | 3.5 | 6.1 | 0.00 | 0.00 | 0.00 | 79 | 1010.3 |
| 20260510020624 | 65 | 292 | 2.6 | 6.1 | 0.00 | 0.00 | 0.00 | 79 | 1010.3 |
| 20260510020524 | 65 | 171 | 3.5 | 6.1 | 0.00 | 0.00 | 0.00 | 79 | 1010.3 |
| 20260510020427 | 65 | 165 | 4.3 | 6.1 | 0.00 | 0.00 | 0.00 | 79 | 1010.3 |
| 20260510020326 | 65 | 164 | 4.3 | 6.1 | 0.00 | 0.00 | 0.00 | 79 | 1010.3 |
| 20260510020240 | 65 | 213 | 3.5 | 6.1 | 0.00 | 0.00 | 0.00 | 79 | 1010.3 |
| 20260510020150 | 65 | 226 | 4.3 | 6.1 | 0.00 | 0.00 | 0.00 | 79 | 1010.3 |
| 20260510020027 | 65 | 144 | 4.3 | 6.1 | 0.00 | 0.00 | 0.00 | 79 | 1010.3 |
| 20260510015926 | 65 | 168 | 2.6 | 6.1 | 0.00 | 0.00 | 0.00 | 79 | 1010.3 |
| 20260510015845 | 65 | 200 | 3.5 | 6.1 | 0.00 | 0.00 | 0.00 | 79 | 1010.1 |
| 20260510015804 | 65 | 191 | 3.5 | 6.1 | 0.00 | 0.00 | 0.00 | 79 | 1010.1 |
| 20260510015640 | 65 | 285 | 2.6 | 6.1 | 0.00 | 0.00 | 0.00 | 79 | 1010.1 |
| 20260510015538 | 65 | 319 | 2.6 | 7.0 | 0.00 | 0.00 | 0.00 | 79 | 1010.1 |
| 20260510015436 | 65 | 219 | 2.6 | 7.0 | 0.00 | 0.00 | 0.00 | 79 | 1010.1 |
| 20260510015339 | 65 | 178 | 2.6 | 7.0 | 0.00 | 0.00 | 0.00 | 79 | 1010.1 |
| 20260510015238 | 65 | 155 | 4.3 | 7.0 | 0.00 | 0.00 | 0.00 | 79 | 1010.1 |
| 20260510015136 | 65 | 165 | 3.5 | 7.0 | 0.00 | 0.00 | 0.00 | 79 | 1010.1 |
| 20260510015035 | 65 | 155 | 2.6 | 7.0 | 0.00 | 0.00 | 0.00 | 79 | 1010.1 |
| 20260510014934 | 65 | 161 | 2.6 | 7.0 | 0.00 | 0.00 | 0.00 | 79 | 1010.1 |
| 20260510014852 | 65 | 210 | 3.5 | 7.0 | 0.00 | 0.00 | 0.00 | 79 | 1010.1 |
| 20260510014749 | 65 | 313 | 5.2 | 7.0 | 0.00 | 0.00 | 0.00 | 79 | 1010.1 |
| 20260510014719 | 65 | 172 | 5.2 | 7.0 | 0.00 | 0.00 | 0.00 | 79 | 1010.1 |
| 20260510014540 | 65 | 278 | 4.3 | 6.1 | 0.00 | 0.00 | 0.00 | 79 | 1010.1 |
| 20260510014458 | 65 | 150 | 4.3 | 7.0 | 0.00 | 0.00 | 0.00 | 78 | 1010.1 |
| 20260510014335 | 65 | 248 | 3.5 | 7.0 | 0.00 | 0.00 | 0.00 | 78 | 1009.9 |
| 20260510014234 | 65 | 320 | 5.2 | 7.0 | 0.00 | 0.00 | 0.00 | 78 | 1009.9 |
| 20260510014132 | 65 | 241 | 4.3 | 7.0 | 0.00 | 0.00 | 0.00 | 79 | 1009.9 |
| 20260510014030 | 65 | 185 | 4.3 | 7.0 | 0.00 | 0.00 | 0.00 | 78 | 1009.9 |
| 20260510013930 | 65 | 174 | 3.5 | 7.0 | 0.00 | 0.00 | 0.00 | 79 | 1009.9 |
| 20260510013852 | 65 | 165 | 3.5 | 7.0 | 0.00 | 0.00 | 0.00 | 78 | 1009.9 |
| 20260510013730 | 65 | 217 | 3.5 | 7.0 | 0.00 | 0.00 | 0.00 | 78 | 1009.9 |
| 20260510013628 | 65 | 230 | 4.3 | 7.0 | 0.00 | 0.00 | 0.00 | 78 | 1009.9 |
| 20260510013531 | 65 | 143 | 4.3 | 7.0 | 0.00 | 0.00 | 0.00 | 78 | 1009.9 |
| 20260510013429 | 65 | 175 | 5.2 | 7.0 | 0.00 | 0.00 | 0.00 | 78 | 1009.9 |
| 20260510013328 | 65 | 169 | 5.2 | 7.0 | 0.00 | 0.00 | 0.00 | 78 | 1009.9 |
| 20260510013238 | 65 | 232 | 1.7 | 7.0 | 0.00 | 0.00 | 0.00 | 78 | 1009.9 |
| 20260510013152 | 65 | 268 | 1.7 | 8.7 | 0.00 | 0.00 | 0.00 | 78 | 1009.9 |
| 20260510013029 | 65 | 313 | 2.6 | 8.7 | 0.00 | 0.00 | 0.00 | 78 | 1009.9 |
| 20260510012932 | 65 | 188 | 3.5 | 8.7 | 0.00 | 0.00 | 0.00 | 78 | 1009.9 |
| 20260510012831 | 65 | 188 | 2.6 | 8.7 | 0.00 | 0.00 | 0.00 | 78 | 1009.7 |
| 20260510012729 | 65 | 329 | 3.5 | 8.7 | 0.00 | 0.00 | 0.00 | 78 | 1009.7 |
| 20260510012628 | 65 | 161 | 3.5 | 8.7 | 0.00 | 0.00 | 0.00 | 78 | 1009.7 |
| 20260510012527 | 65 | 222 | 4.3 | 8.7 | 0.00 | 0.00 | 0.00 | 78 | 1009.7 |
| 20260510012429 | 65 | 224 | 4.3 | 8.7 | 0.00 | 0.00 | 0.00 | 78 | 1009.7 |
| 20260510012327 | 66 | 167 | 6.1 | 8.7 | 0.00 | 0.00 | 0.00 | 78 | 1009.7 |
| 20260510012226 | 66 | 316 | 4.3 | 7.8 | 0.00 | 0.00 | 0.00 | 78 | 1009.7 |
| 20260510012124 | 66 | 254 | 3.5 | 7.8 | 0.00 | 0.00 | 0.00 | 78 | 1009.7 |
| 20260510012043 | 66 | 253 | 3.5 | 7.8 | 0.00 | 0.00 | 0.00 | 77 | 1009.7 |
| 20260510011921 | 66 | 268 | 3.5 | 7.8 | 0.00 | 0.00 | 0.00 | 78 | 1009.7 |
| 20260510011827 | 66 | 172 | 3.5 | 7.8 | 0.00 | 0.00 | 0.00 | 77 | 1009.7 |
| 20260510011727 | 66 | 240 | 6.1 | 7.8 | 0.00 | 0.00 | 0.00 | 77 | 1009.7 |
| 20260510011655 | 66 | 287 | 4.3 | 7.0 | 0.00 | 0.00 | 0.00 | 77 | 1009.7 |
| 20260510011532 | 66 | 232 | 4.3 | 7.0 | 0.00 | 0.00 | 0.00 | 77 | 1009.7 |
| 20260510011431 | 66 | 186 | 4.3 | 7.0 | 0.00 | 0.00 | 0.00 | 77 | 1009.7 |
| 20260510011329 | 66 | 202 | 4.3 | 7.0 | 0.00 | 0.00 | 0.00 | 77 | 1009.6 |
| 20260510011227 | 66 | 116 | 3.5 | 7.0 | 0.00 | 0.00 | 0.00 | 77 | 1009.6 |
| 20260510011125 | 66 | 137 | 3.5 | 7.0 | 0.00 | 0.00 | 0.00 | 77 | 1009.6 |
| 20260510011028 | 66 | 328 | 3.5 | 7.0 | 0.00 | 0.00 | 0.00 | 77 | 1009.6 |
| 20260510010947 | 66 | 258 | 5.2 | 7.0 | 0.00 | 0.00 | 0.00 | 77 | 1009.6 |
| 20260510010843 | 66 | 195 | 3.5 | 6.1 | 0.00 | 0.00 | 0.00 | 76 | 1009.6 |
| 20260510010741 | 66 | 154 | 4.3 | 6.1 | 0.00 | 0.00 | 0.00 | 76 | 1009.6 |
| 20260510010640 | 66 | 206 | 3.5 | 6.1 | 0.00 | 0.00 | 0.00 | 76 | 1009.6 |
| 20260510010537 | 66 | 227 | 2.6 | 6.1 | 0.00 | 0.00 | 0.00 | 76 | 1009.6 |
| 20260510010435 | 66 | 188 | 3.5 | 6.1 | 0.00 | 0.00 | 0.00 | 76 | 1009.6 |
| 20260510010337 | 66 | 171 | 3.5 | 6.1 | 0.00 | 0.00 | 0.00 | 76 | 1009.6 |
| 20260510010236 | 66 | 165 | 4.3 | 6.1 | 0.00 | 0.00 | 0.00 | 76 | 1009.6 |
| 20260510010204 | 66 | 319 | 5.2 | 6.1 | 0.00 | 0.00 | 0.00 | 76 | 1009.6 |
| 20260510010041 | 66 | 323 | 4.3 | 6.1 | 0.00 | 0.00 | 0.00 | 76 | 1009.6 |
| 20260510010003 | 66 | 171 | 3.5 | 6.1 | 0.00 | 0.00 | 0.00 | 76 | 1009.6 |
| 20260510005839 | 66 | 168 | 4.3 | 6.1 | 0.00 | 0.00 | 0.00 | 76 | 1009.4 |
| 20260510005737 | 66 | 332 | 5.2 | 6.1 | 0.00 | 0.00 | 0.00 | 75 | 1009.4 |
| 20260510005636 | 66 | 239 | 4.3 | 6.1 | 0.00 | 0.00 | 0.00 | 75 | 1009.4 |
| 20260510005600 | 66 | 291 | 3.5 | 6.1 | 0.00 | 0.00 | 0.00 | 75 | 1009.4 |
| 20260510005438 | 66 | 306 | 3.5 | 6.1 | 0.00 | 0.00 | 0.00 | 75 | 1009.4 |
| 20260510005335 | 66 | 161 | 3.5 | 6.1 | 0.00 | 0.00 | 0.00 | 75 | 1009.4 |
| 20260510005233 | 66 | 277 | 4.3 | 6.1 | 0.00 | 0.00 | 0.00 | 75 | 1009.4 |
| 20260510005132 | 66 | 329 | 4.3 | 6.1 | 0.00 | 0.00 | 0.00 | 75 | 1009.4 |
| 20260510005031 | 66 | 311 | 3.5 | 5.2 | 0.00 | 0.00 | 0.00 | 74 | 1009.4 |
| 20260510004929 | 66 | 271 | 2.6 | 5.2 | 0.00 | 0.00 | 0.00 | 74 | 1009.4 |
| 20260510004830 | 66 | 326 | 4.3 | 5.2 | 0.00 | 0.00 | 0.00 | 74 | 1009.4 |
| 20260510004739 | 66 | 312 | 2.6 | 5.2 | 0.00 | 0.00 | 0.00 | 74 | 1009.4 |
| 20260510004648 | 66 | 193 | 1.7 | 5.2 | 0.00 | 0.00 | 0.00 | 74 | 1009.4 |
| 20260510004547 | 66 | 284 | 2.6 | 5.2 | 0.00 | 0.00 | 0.00 | 75 | 1009.4 |
| 20260510004502 | 66 | 178 | 2.6 | 5.2 | 0.00 | 0.00 | 0.00 | 74 | 1009.4 |
| 20260510004341 | 66 | 313 | 2.6 | 5.2 | 0.00 | 0.00 | 0.00 | 74 | 1008.9 |
| 20260510004239 | 66 | 329 | 2.6 | 5.2 | 0.00 | 0.00 | 0.00 | 74 | 1008.9 |
| 20260510004124 | 66 | 330 | 2.6 | 5.2 | 0.00 | 0.00 | 0.00 | 74 | 1008.9 |
| 20260510004043 | 66 | 328 | 1.7 | 5.2 | 0.00 | 0.00 | 0.00 | 74 | 1008.9 |
| 20260510003941 | 66 | 320 | 3.5 | 5.2 | 0.00 | 0.00 | 0.00 | 74 | 1008.9 |
| 20260510003859 | 66 | 333 | 4.3 | 5.2 | 0.00 | 0.00 | 0.00 | 74 | 1008.9 |
| 20260510003758 | 66 | 332 | 3.5 | 5.2 | 0.00 | 0.00 | 0.00 | 74 | 1008.9 |
| 20260510003636 | 67 | 305 | 2.6 | 5.2 | 0.00 | 0.00 | 0.00 | 74 | 1008.9 |
| 20260510003534 | 67 | 287 | 3.5 | 5.2 | 0.00 | 0.00 | 0.00 | 74 | 1008.9 |
| 20260510003433 | 67 | 328 | 3.5 | 5.2 | 0.00 | 0.00 | 0.00 | 74 | 1008.9 |
| 20260510003336 | 67 | 328 | 2.6 | 4.3 | 0.00 | 0.00 | 0.00 | 74 | 1008.9 |
| 20260510003234 | 67 | 330 | 2.6 | 4.3 | 0.00 | 0.00 | 0.00 | 74 | 1008.9 |
| 20260510003204 | 67 | 316 | 3.5 | 4.3 | 0.00 | 0.00 | 0.00 | 74 | 1008.9 |
| 20260510003101 | 67 | 254 | 3.5 | 4.3 | 0.00 | 0.00 | 0.00 | 73 | 1008.9 |
| 20260510002938 | 67 | 323 | 1.7 | 2.6 | 0.00 | 0.00 | 0.00 | 73 | 1008.9 |
| 20260510002836 | 67 | 309 | 1.7 | 2.6 | 0.00 | 0.00 | 0.00 | 73 | 1008.9 |
| 20260510002736 | 67 | 309 | 1.7 | 2.6 | 0.00 | 0.00 | 0.00 | 72 | 1008.9 |
| 20260510002635 | 67 | 312 | 1.7 | 2.6 | 0.00 | 0.00 | 0.00 | 72 | 1008.9 |
| 20260510002537 | 67 | 315 | 2.6 | 2.6 | 0.00 | 0.00 | 0.00 | 72 | 1008.9 |
| 20260510002436 | 67 | 323 | 1.7 | 2.6 | 0.00 | 0.00 | 0.00 | 72 | 1008.9 |
| 20260510002335 | 67 | 322 | 0.9 | 2.6 | 0.00 | 0.00 | 0.00 | 71 | 1008.9 |
| 20260510002255 | 67 | 318 | 0.9 | 2.6 | 0.00 | 0.00 | 0.00 | 71 | 1008.9 |
| 20260510002152 | 67 | 316 | 0.9 | 2.6 | 0.00 | 0.00 | 0.00 | 72 | 1008.9 |
| 20260510002030 | 67 | 325 | 1.7 | 2.6 | 0.00 | 0.00 | 0.00 | 72 | 1008.9 |
| 20260510001928 | 67 | 320 | 1.7 | 2.6 | 0.00 | 0.00 | 0.00 | 72 | 1008.9 |
| 20260510001826 | 67 | 320 | 0.9 | 2.6 | 0.00 | 0.00 | 0.00 | 72 | 1008.9 |
| 20260510001739 | 67 | 326 | 1.7 | 1.7 | 0.00 | 0.00 | 0.00 | 72 | 1008.9 |
| 20260510001647 | 67 | 320 | 0.9 | 1.7 | 0.00 | 0.00 | 0.00 | 71 | 1008.9 |
| 20260510001525 | 67 | 326 | 1.7 | 1.7 | 0.00 | 0.00 | 0.00 | 71 | 1008.9 |
| 20260510001443 | 68 | 326 | 1.7 | 1.7 | 0.00 | 0.00 | 0.00 | 71 | 1008.9 |
| 20260510001342 | 68 | 316 | 0.9 | 1.7 | 0.00 | 0.00 | 0.00 | 71 | 1008.8 |
| 20260510001241 | 68 | 329 | 0.9 | 1.7 | 0.00 | 0.00 | 0.00 | 71 | 1008.8 |
| 20260510001159 | 68 | 320 | 0.0 | 1.7 | 0.00 | 0.00 | 0.00 | 71 | 1008.8 |
| 20260510001036 | 68 | 319 | 0.0 | 1.7 | 0.00 | 0.00 | 0.00 | 71 | 1008.8 |
| 20260510000939 | 68 | 319 | 0.0 | 1.7 | 0.00 | 0.00 | 0.00 | 71 | 1008.8 |
| 20260510000837 | 68 | 320 | 0.0 | 1.7 | 0.00 | 0.00 | 0.00 | 71 | 1008.8 |
| 20260510000754 | 68 | 319 | 0.0 | 1.7 | 0.00 | 0.00 | 0.00 | 69 | 1008.8 |
| 20260510000633 | 68 | 319 | 0.0 | 1.7 | 0.00 | 0.00 | 0.00 | 69 | 1008.8 |
| 20260510000551 | 68 | 320 | 0.0 | 1.7 | 0.00 | 0.00 | 0.00 | 68 | 1008.8 |
| 20260510000429 | 68 | 320 | 0.0 | 1.7 | 0.00 | 0.00 | 0.00 | 68 | 1008.8 |
| 20260510000328 | 68 | 319 | 0.0 | 1.7 | 0.00 | 0.00 | 0.00 | 68 | 1008.8 |
| 20260510000242 | 68 | 318 | 0.0 | 1.7 | 0.00 | 0.00 | 0.00 | 68 | 1008.8 |
| 20260510000151 | 68 | 323 | 0.0 | 0.9 | 0.00 | 0.00 | 0.00 | 68 | 1008.8 |
| 20260510000027 | 68 | 323 | 0.0 | 0.9 | 0.00 | 0.00 | 0.00 | 68 | 1008.8 |
| 20260509235926 | 68 | 323 | 0.0 | 0.9 | 0.00 | 0.00 | 0.00 | 68 | 1008.8 |
| 20260509235824 | 68 | 323 | 0.0 | 0.9 | 0.00 | 0.00 | 0.00 | 68 | 1008.7 |
| 20260509235721 | 68 | 325 | 0.0 | 0.9 | 0.00 | 0.00 | 0.00 | 67 | 1008.7 |
| 20260509235643 | 68 | 325 | 0.0 | 0.9 | 0.00 | 0.00 | 0.00 | 67 | 1008.7 |
| 20260509235526 | 68 | 325 | 0.0 | 0.0 | 0.00 | 0.00 | 0.00 | 67 | 1008.7 |
| 20260509235445 | 68 | 322 | 0.0 | 0.0 | 0.00 | 0.00 | 0.00 | 67 | 1008.7 |
| 20260509235403 | 68 | 325 | 0.0 | 0.0 | 0.00 | 0.00 | 0.00 | 68 | 1008.7 |
| 20260509235240 | 68 | 323 | 0.0 | 0.0 | 0.00 | 0.00 | 0.00 | 68 | 1008.7 |
| 20260509235159 | 68 | 322 | 0.0 | 0.0 | 0.00 | 0.00 | 0.00 | 68 | 1008.7 |
| 20260509235036 | 68 | 323 | 0.0 | 0.0 | 0.00 | 0.00 | 0.00 | 67 | 1008.7 |
| 20260509234933 | 68 | 322 | 0.0 | 0.0 | 0.00 | 0.00 | 0.00 | 68 | 1008.7 |
| 20260509234832 | 68 | 323 | 0.0 | 1.7 | 0.00 | 0.00 | 0.00 | 68 | 1008.7 |
| 20260509234735 | 68 | 322 | 0.0 | 1.7 | 0.00 | 0.00 | 0.00 | 69 | 1008.7 |
| 20260509234702 | 68 | 322 | 0.0 | 1.7 | 0.00 | 0.00 | 0.00 | 69 | 1008.7 |
| 20260509234539 | 68 | 323 | 0.0 | 1.7 | 0.00 | 0.00 | 0.00 | 69 | 1008.7 |
| 20260509234437 | 68 | 323 | 0.0 | 1.7 | 0.00 | 0.00 | 0.00 | 69 | 1008.7 |
| 20260509234336 | 68 | 322 | 0.0 | 1.7 | 0.00 | 0.00 | 0.00 | 69 | 1008.5 |
| 20260509234235 | 68 | 322 | 0.0 | 1.7 | 0.00 | 0.00 | 0.00 | 69 | 1008.5 |
| 20260509234153 | 68 | 323 | 0.0 | 1.7 | 0.00 | 0.00 | 0.00 | 69 | 1008.5 |
| 20260509234029 | 68 | 323 | 0.9 | 1.7 | 0.00 | 0.00 | 0.00 | 69 | 1008.5 |
| 20260509233932 | 68 | 322 | 0.9 | 2.6 | 0.00 | 0.00 | 0.00 | 69 | 1008.5 |
| 20260509233851 | 68 | 322 | 1.7 | 2.6 | 0.00 | 0.00 | 0.00 | 69 | 1008.5 |
| 20260509233728 | 68 | 322 | 1.7 | 2.6 | 0.00 | 0.00 | 0.00 | 69 | 1008.5 |
| 20260509233626 | 68 | 325 | 0.9 | 2.6 | 0.00 | 0.00 | 0.00 | 69 | 1008.5 |
| 20260509233544 | 68 | 320 | 0.9 | 2.6 | 0.00 | 0.00 | 0.00 | 69 | 1008.5 |
| 20260509233442 | 68 | 322 | 1.7 | 2.6 | 0.00 | 0.00 | 0.00 | 68 | 1008.5 |
| 20260509233341 | 68 | 323 | 1.7 | 2.6 | 0.00 | 0.00 | 0.00 | 69 | 1008.5 |
| 20260509233224 | 68 | 323 | 1.7 | 2.6 | 0.00 | 0.00 | 0.00 | 69 | 1008.5 |
| 20260509233156 | 68 | 326 | 0.9 | 2.6 | 0.00 | 0.00 | 0.00 | 69 | 1008.5 |
| 20260509233035 | 69 | 326 | 0.9 | 2.6 | 0.00 | 0.00 | 0.00 | 68 | 1008.5 |
| 20260509232933 | 69 | 328 | 1.7 | 2.6 | 0.00 | 0.00 | 0.00 | 68 | 1008.5 |
| 20260509232832 | 69 | 323 | 0.9 | 1.7 | 0.00 | 0.00 | 0.00 | 68 | 1008.7 |
| 20260509232730 | 69 | 322 | 0.9 | 1.7 | 0.00 | 0.00 | 0.00 | 68 | 1008.7 |
| 20260509232629 | 69 | 322 | 0.9 | 1.7 | 0.00 | 0.00 | 0.00 | 68 | 1008.7 |
| 20260509232531 | 69 | 323 | 0.9 | 1.7 | 0.00 | 0.00 | 0.00 | 68 | 1008.7 |
| 20260509232430 | 69 | 323 | 0.0 | 1.7 | 0.00 | 0.00 | 0.00 | 68 | 1008.7 |
| 20260509232330 | 69 | 325 | 0.9 | 1.7 | 0.00 | 0.00 | 0.00 | 68 | 1008.7 |
| 20260509232231 | 69 | 325 | 0.9 | 1.7 | 0.00 | 0.00 | 0.00 | 68 | 1008.7 |
| 20260509232130 | 69 | 323 | 0.0 | 1.7 | 0.00 | 0.00 | 0.00 | 69 | 1008.7 |
| 20260509232028 | 69 | 325 | 0.0 | 2.6 | 0.00 | 0.00 | 0.00 | 69 | 1008.7 |
| 20260509231927 | 69 | 326 | 0.9 | 2.6 | 0.00 | 0.00 | 0.00 | 69 | 1008.7 |
| 20260509231830 | 69 | 325 | 0.9 | 2.6 | 0.00 | 0.00 | 0.00 | 69 | 1008.7 |
| 20260509231740 | 69 | 322 | 0.0 | 2.6 | 0.00 | 0.00 | 0.00 | 69 | 1008.7 |
| 20260509231649 | 69 | 323 | 0.0 | 2.6 | 0.00 | 0.00 | 0.00 | 69 | 1008.7 |
| 20260509231547 | 69 | 323 | 0.0 | 2.6 | 0.00 | 0.00 | 0.00 | 69 | 1008.7 |
| 20260509231426 | 69 | 325 | 0.0 | 4.3 | 0.00 | 0.00 | 0.00 | 68 | 1008.7 |
| 20260509231327 | 69 | 325 | 0.9 | 4.3 | 0.00 | 0.00 | 0.00 | 68 | 1008.4 |
| 20260509231225 | 69 | 329 | 1.7 | 4.3 | 0.00 | 0.00 | 0.00 | 68 | 1008.4 |
| 20260509231128 | 69 | 325 | 0.0 | 4.3 | 0.00 | 0.00 | 0.00 | 68 | 1008.4 |
| 20260509231046 | 69 | 328 | 0.9 | 4.3 | 0.00 | 0.00 | 0.00 | 68 | 1008.4 |
| 20260509230924 | 69 | 323 | 0.9 | 4.3 | 0.00 | 0.00 | 0.00 | 68 | 1008.4 |
| 20260509230826 | 69 | 323 | 0.9 | 4.3 | 0.00 | 0.00 | 0.00 | 68 | 1008.4 |
| 20260509230724 | 69 | 328 | 0.9 | 4.3 | 0.00 | 0.00 | 0.00 | 68 | 1008.4 |
| 20260509230643 | 69 | 326 | 1.7 | 4.3 | 0.00 | 0.00 | 0.00 | 68 | 1008.4 |
| 20260509230600 | 69 | 328 | 2.6 | 4.3 | 0.00 | 0.00 | 0.00 | 68 | 1008.4 |
| 20260509230439 | 69 | 328 | 0.9 | 4.3 | 0.00 | 0.00 | 0.00 | 68 | 1008.4 |
| 20260509230324 | 69 | 328 | 1.7 | 2.6 | 0.00 | 0.00 | 0.00 | 68 | 1008.4 |
| 20260509230243 | 69 | 323 | 1.7 | 2.6 | 0.00 | 0.00 | 0.00 | 68 | 1008.4 |
| 20260509230215 | 69 | 328 | 0.9 | 2.6 | 0.00 | 0.00 | 0.00 | 68 | 1008.4 |
| 20260509230030 | 69 | 320 | 0.9 | 2.6 | 0.00 | 0.00 | 0.00 | 68 | 1008.4 |
| 20260509225929 | 69 | 328 | 1.7 | 2.6 | 0.00 | 0.00 | 0.00 | 68 | 1008.4 |
| 20260509225827 | 69 | 330 | 0.9 | 2.6 | 0.00 | 0.00 | 0.00 | 68 | 1008.3 |
| 20260509225726 | 69 | 326 | 0.0 | 1.7 | 0.00 | 0.00 | 0.00 | 68 | 1008.3 |
| 20260509225629 | 69 | 325 | 0.9 | 1.7 | 0.00 | 0.00 | 0.00 | 68 | 1008.3 |
| 20260509225529 | 69 | 322 | 0.0 | 1.7 | 0.00 | 0.00 | 0.00 | 68 | 1008.3 |
| 20260509225428 | 69 | 323 | 0.0 | 1.7 | 0.00 | 0.00 | 0.00 | 68 | 1008.3 |
| 20260509225327 | 69 | 323 | 0.0 | 2.6 | 0.00 | 0.00 | 0.00 | 68 | 1008.3 |
| 20260509225245 | 69 | 323 | 0.0 | 2.6 | 0.00 | 0.00 | 0.00 | 68 | 1008.3 |
| 20260509225204 | 69 | 320 | 0.9 | 2.6 | 0.00 | 0.00 | 0.00 | 68 | 1008.3 |
| 20260509225042 | 69 | 322 | 0.9 | 2.6 | 0.00 | 0.00 | 0.00 | 68 | 1008.3 |
| 20260509224924 | 69 | 322 | 0.0 | 4.3 | 0.00 | 0.00 | 0.00 | 68 | 1008.3 |
| 20260509224842 | 69 | 325 | 0.0 | 4.3 | 0.00 | 0.00 | 0.00 | 67 | 1008.3 |
| 20260509224740 | 69 | 323 | 0.9 | 4.3 | 0.00 | 0.00 | 0.00 | 67 | 1008.3 |
| 20260509224714 | 69 | 322 | 0.9 | 4.3 | 0.00 | 0.00 | 0.00 | 67 | 1008.3 |
| 20260509224531 | 69 | 322 | 0.9 | 4.3 | 0.00 | 0.00 | 0.00 | 67 | 1008.3 |
| 20260509224430 | 69 | 322 | 0.0 | 4.3 | 0.00 | 0.00 | 0.00 | 67 | 1008.3 |
| 20260509224328 | 69 | 322 | 0.9 | 4.3 | 0.00 | 0.00 | 0.00 | 67 | 1008.2 |
| 20260509224226 | 69 | 323 | 1.7 | 4.3 | 0.00 | 0.00 | 0.00 | 67 | 1008.2 |
| 20260509224128 | 69 | 323 | 2.6 | 4.3 | 0.00 | 0.00 | 0.00 | 67 | 1008.2 |
| 20260509224027 | 69 | 323 | 1.7 | 4.3 | 0.00 | 0.00 | 0.00 | 67 | 1008.2 |
| 20260509223925 | 69 | 326 | 1.7 | 4.3 | 0.00 | 0.00 | 0.00 | 66 | 1008.2 |
| 20260509223843 | 69 | 326 | 0.9 | 4.3 | 0.00 | 0.00 | 0.00 | 66 | 1008.2 |
| 20260509223741 | 69 | 316 | 2.6 | 4.3 | 0.00 | 0.00 | 0.00 | 67 | 1008.2 |
| 20260509223638 | 69 | 311 | 3.5 | 4.3 | 0.00 | 0.00 | 0.00 | 67 | 1008.2 |
| 20260509223536 | 69 | 322 | 1.7 | 4.3 | 0.00 | 0.00 | 0.00 | 67 | 1008.2 |
| 20260509223459 | 69 | 326 | 0.9 | 4.3 | 0.00 | 0.00 | 0.00 | 66 | 1008.2 |
| 20260509223336 | 69 | 316 | 0.9 | 4.3 | 0.00 | 0.00 | 0.00 | 67 | 1008.2 |
| 20260509223236 | 69 | 328 | 2.6 | 4.3 | 0.00 | 0.00 | 0.00 | 67 | 1008.2 |
| 20260509223207 | 69 | 326 | 2.6 | 4.3 | 0.00 | 0.00 | 0.00 | 67 | 1008.2 |
| 20260509223042 | 69 | 325 | 1.7 | 4.3 | 0.00 | 0.00 | 0.00 | 67 | 1008.2 |
| 20260509222940 | 69 | 318 | 1.7 | 4.3 | 0.00 | 0.00 | 0.00 | 67 | 1008.2 |
| 20260509222839 | 69 | 319 | 1.7 | 4.3 | 0.00 | 0.00 | 0.00 | 66 | 1008.1 |
| 20260509222738 | 69 | 330 | 1.7 | 4.3 | 0.00 | 0.00 | 0.00 | 66 | 1008.1 |
| 20260509222641 | 69 | 326 | 1.7 | 4.3 | 0.00 | 0.00 | 0.00 | 65 | 1008.1 |
| 20260509222539 | 69 | 329 | 2.6 | 4.3 | 0.00 | 0.00 | 0.00 | 65 | 1008.1 |
| 20260509222440 | 69 | 329 | 1.7 | 4.3 | 0.00 | 0.00 | 0.00 | 65 | 1008.1 |
| 20260509222340 | 69 | 322 | 0.9 | 4.3 | 0.00 | 0.00 | 0.00 | 66 | 1008.1 |
| 20260509222238 | 69 | 323 | 1.7 | 4.3 | 0.00 | 0.00 | 0.00 | 66 | 1008.1 |
| 20260509222136 | 69 | 316 | 2.6 | 4.3 | 0.00 | 0.00 | 0.00 | 66 | 1008.1 |
| 20260509222038 | 69 | 330 | 2.6 | 4.3 | 0.00 | 0.00 | 0.00 | 66 | 1008.1 |
| 20260509221937 | 69 | 322 | 0.9 | 4.3 | 0.00 | 0.00 | 0.00 | 67 | 1008.1 |
| 20260509221854 | 69 | 319 | 0.0 | 4.3 | 0.00 | 0.00 | 0.00 | 67 | 1008.1 |
| 20260509221801 | 69 | 320 | 0.0 | 4.3 | 0.00 | 0.00 | 0.00 | 67 | 1008.1 |
| 20260509221648 | 69 | 323 | 0.9 | 4.3 | 0.00 | 0.00 | 0.00 | 67 | 1008.1 |
| 20260509221524 | 69 | 325 | 0.0 | 4.3 | 0.00 | 0.00 | 0.00 | 67 | 1008.1 |
| 20260509221443 | 69 | 320 | 0.0 | 4.3 | 0.00 | 0.00 | 0.00 | 67 | 1008.1 |
| 20260509221340 | 69 | 319 | 0.0 | 4.3 | 0.00 | 0.00 | 0.00 | 66 | 1008.3 |
| 20260509221259 | 69 | 319 | 0.9 | 4.3 | 0.00 | 0.00 | 0.00 | 67 | 1008.3 |
| 20260509221136 | 69 | 320 | 1.7 | 4.3 | 0.00 | 0.00 | 0.00 | 68 | 1008.3 |
| 20260509221039 | 69 | 316 | 1.7 | 4.3 | 0.00 | 0.00 | 0.00 | 67 | 1008.3 |
| 20260509220939 | 69 | 325 | 2.6 | 4.3 | 0.00 | 0.00 | 0.00 | 67 | 1008.3 |
| 20260509220836 | 69 | 323 | 1.7 | 2.6 | 0.00 | 0.00 | 0.00 | 68 | 1008.3 |
| 20260509220735 | 69 | 322 | 0.9 | 2.6 | 0.00 | 0.00 | 0.00 | 68 | 1008.3 |
| 20260509220633 | 69 | 323 | 0.9 | 2.6 | 0.00 | 0.00 | 0.00 | 68 | 1008.3 |
| 20260509220532 | 69 | 318 | 0.9 | 2.6 | 0.00 | 0.00 | 0.00 | 68 | 1008.3 |
| 20260509220434 | 69 | 325 | 0.0 | 4.3 | 0.00 | 0.00 | 0.00 | 68 | 1008.3 |
| 20260509220333 | 69 | 320 | 0.0 | 5.2 | 0.00 | 0.00 | 0.00 | 68 | 1008.3 |
| 20260509220252 | 69 | 315 | 0.9 | 5.2 | 0.00 | 0.00 | 0.00 | 67 | 1008.3 |
| 20260509220202 | 69 | 318 | 0.9 | 5.2 | 0.00 | 0.00 | 0.00 | 67 | 1008.3 |
| 20260509220059 | 69 | 322 | 1.7 | 5.2 | 0.00 | 0.00 | 0.00 | 67 | 1008.3 |
| 20260509215937 | 69 | 325 | 0.9 | 5.2 | 0.00 | 0.00 | 0.00 | 67 | 1008.3 |
| 20260509215835 | 69 | 322 | 0.9 | 5.2 | 0.00 | 0.00 | 0.00 | 67 | 1008.2 |
| 20260509215734 | 69 | 325 | 1.7 | 5.2 | 0.00 | 0.00 | 0.00 | 69 | 1008.2 |
| 20260509215637 | 69 | 316 | 1.7 | 5.2 | 0.00 | 0.00 | 0.00 | 69 | 1008.2 |
| 20260509215536 | 69 | 320 | 2.6 | 5.2 | 0.00 | 0.00 | 0.00 | 69 | 1008.2 |
| 20260509215454 | 69 | 328 | 1.7 | 3.5 | 0.00 | 0.00 | 0.00 | 68 | 1008.2 |
| 20260509215331 | 69 | 326 | 0.9 | 4.3 | 0.00 | 0.00 | 0.00 | 68 | 1008.2 |
| 20260509215251 | 69 | 329 | 1.7 | 4.3 | 0.00 | 0.00 | 0.00 | 68 | 1008.2 |
| 20260509215127 | 69 | 320 | 1.7 | 4.3 | 0.00 | 0.00 | 0.00 | 68 | 1008.2 |
| 20260509215026 | 69 | 328 | 1.7 | 4.3 | 0.00 | 0.00 | 0.00 | 68 | 1008.2 |
| 20260509214928 | 69 | 319 | 2.6 | 4.3 | 0.00 | 0.00 | 0.00 | 68 | 1008.2 |
| 20260509214830 | 69 | 325 | 2.6 | 4.3 | 0.00 | 0.00 | 0.00 | 68 | 1008.2 |
| 20260509214740 | 69 | 323 | 1.7 | 5.2 | 0.00 | 0.00 | 0.00 | 68 | 1008.2 |
| 20260509214649 | 69 | 326 | 0.9 | 7.0 | 0.00 | 0.00 | 0.00 | 68 | 1008.2 |
| 20260509214527 | 69 | 329 | 1.7 | 7.0 | 0.00 | 0.00 | 0.00 | 68 | 1008.2 |
| 20260509214446 | 69 | 326 | 2.6 | 7.0 | 0.00 | 0.00 | 0.00 | 68 | 1008.2 |
| 20260509214343 | 69 | 329 | 1.7 | 7.0 | 0.00 | 0.00 | 0.00 | 68 | 1008.0 |
| 20260509214242 | 69 | 329 | 1.7 | 7.0 | 0.00 | 0.00 | 0.00 | 68 | 1008.0 |
| 20260509214124 | 69 | 323 | 1.7 | 7.0 | 0.00 | 0.00 | 0.00 | 67 | 1008.0 |
| 20260509214044 | 69 | 318 | 1.7 | 7.0 | 0.00 | 0.00 | 0.00 | 67 | 1008.0 |
| 20260509213942 | 69 | 322 | 2.6 | 7.0 | 0.00 | 0.00 | 0.00 | 68 | 1008.0 |
| 20260509213838 | 69 | 323 | 5.2 | 7.0 | 0.00 | 0.00 | 0.00 | 68 | 1008.0 |
| 20260509213737 | 69 | 322 | 4.3 | 7.0 | 0.00 | 0.00 | 0.00 | 68 | 1008.0 |
| 20260509213636 | 69 | 322 | 5.2 | 7.0 | 0.00 | 0.00 | 0.00 | 68 | 1008.0 |
| 20260509213533 | 69 | 325 | 2.6 | 7.0 | 0.00 | 0.00 | 0.00 | 68 | 1008.0 |
| 20260509213432 | 69 | 322 | 5.2 | 6.1 | 0.00 | 0.00 | 0.00 | 68 | 1008.0 |
| 20260509213355 | 69 | 337 | 3.5 | 6.1 | 0.00 | 0.00 | 0.00 | 68 | 1008.0 |
| 20260509213244 | 69 | 322 | 1.7 | 6.1 | 0.00 | 0.00 | 0.00 | 68 | 1008.0 |
| 20260509213154 | 69 | 335 | 1.7 | 6.1 | 0.00 | 0.00 | 0.00 | 68 | 1008.0 |
| 20260509213051 | 69 | 337 | 3.5 | 6.1 | 0.00 | 0.00 | 0.00 | 68 | 1008.0 |
| 20260509212949 | 69 | 330 | 2.6 | 6.1 | 0.00 | 0.00 | 0.00 | 67 | 1008.0 |
| 20260509212845 | 69 | 336 | 3.5 | 6.1 | 0.00 | 0.00 | 0.00 | 67 | 1008.1 |
| 20260509212743 | 69 | 336 | 4.3 | 6.1 | 0.00 | 0.00 | 0.00 | 67 | 1008.1 |
| 20260509212641 | 69 | 335 | 5.2 | 6.1 | 0.00 | 0.00 | 0.00 | 68 | 1008.1 |
| 20260509212541 | 69 | 328 | 1.7 | 5.2 | 0.00 | 0.00 | 0.00 | 69 | 1008.1 |
| 20260509212443 | 69 | 333 | 0.9 | 4.3 | 0.00 | 0.00 | 0.00 | 69 | 1008.1 |
| 20260509212402 | 69 | 328 | 0.9 | 4.3 | 0.00 | 0.00 | 0.00 | 69 | 1008.1 |
| 20260509212240 | 69 | 329 | 0.9 | 5.2 | 0.00 | 0.00 | 0.00 | 69 | 1008.1 |
| 20260509212140 | 69 | 332 | 0.9 | 5.2 | 0.00 | 0.00 | 0.00 | 68 | 1008.1 |
| 20260509212039 | 69 | 322 | 1.7 | 5.2 | 0.00 | 0.00 | 0.00 | 68 | 1008.1 |
| 20260509211936 | 69 | 329 | 1.7 | 5.2 | 0.00 | 0.00 | 0.00 | 69 | 1008.1 |
| 20260509211855 | 69 | 328 | 2.6 | 5.2 | 0.00 | 0.00 | 0.00 | 69 | 1008.1 |
| 20260509211744 | 69 | 329 | 1.7 | 5.2 | 0.00 | 0.00 | 0.00 | 69 | 1008.1 |
| 20260509211657 | 69 | 336 | 0.0 | 5.2 | 0.00 | 0.00 | 0.00 | 68 | 1008.1 |
| 20260509211537 | 69 | 333 | 0.0 | 5.2 | 0.00 | 0.00 | 0.00 | 68 | 1008.1 |
| 20260509211436 | 69 | 335 | 2.6 | 7.0 | 0.00 | 0.00 | 0.00 | 67 | 1008.1 |
| 20260509211335 | 69 | 343 | 3.5 | 7.0 | 0.00 | 0.00 | 0.00 | 67 | 1008.2 |
| 20260509211235 | 69 | 339 | 4.3 | 7.0 | 0.00 | 0.00 | 0.00 | 67 | 1008.2 |
| 20260509211132 | 69 | 340 | 3.5 | 7.0 | 0.00 | 0.00 | 0.00 | 67 | 1008.2 |
| 20260509211050 | 69 | 340 | 1.7 | 7.0 | 0.00 | 0.00 | 0.00 | 68 | 1008.2 |
| 20260509210948 | 69 | 342 | 1.7 | 7.0 | 0.00 | 0.00 | 0.00 | 68 | 1008.2 |
| 20260509210847 | 69 | 340 | 4.3 | 7.0 | 0.00 | 0.00 | 0.00 | 67 | 1008.2 |
| 20260509210749 | 69 | 318 | 3.5 | 7.0 | 0.00 | 0.00 | 0.00 | 68 | 1008.2 |
| 20260509210631 | 69 | 323 | 4.3 | 7.0 | 0.00 | 0.00 | 0.00 | 68 | 1008.2 |
| 20260509210533 | 69 | 326 | 4.3 | 7.0 | 0.00 | 0.00 | 0.00 | 68 | 1008.2 |
| 20260509210432 | 69 | 320 | 3.5 | 6.1 | 0.00 | 0.00 | 0.00 | 69 | 1008.2 |
| 20260509210352 | 69 | 337 | 1.7 | 5.2 | 0.00 | 0.00 | 0.00 | 69 | 1008.2 |
| 20260509210253 | 69 | 339 | 1.7 | 5.2 | 0.00 | 0.00 | 0.00 | 68 | 1008.2 |
| 20260509210224 | 69 | 322 | 0.9 | 5.2 | 0.00 | 0.00 | 0.00 | 69 | 1008.2 |
| 20260509210038 | 69 | 330 | 2.6 | 5.2 | 0.00 | 0.00 | 0.00 | 68 | 1008.2 |
| 20260509205941 | 69 | 328 | 3.5 | 5.2 | 0.00 | 0.00 | 0.00 | 68 | 1008.2 |
| 20260509205900 | 69 | 330 | 2.6 | 5.2 | 0.00 | 0.00 | 0.00 | 69 | 1008.3 |
| 20260509205738 | 69 | 333 | 0.9 | 5.2 | 0.00 | 0.00 | 0.00 | 70 | 1008.3 |
| 20260509205638 | 69 | 333 | 0.9 | 5.2 | 0.00 | 0.00 | 0.00 | 68 | 1008.3 |
| 20260509205538 | 69 | 318 | 1.7 | 6.1 | 0.00 | 0.00 | 0.00 | 68 | 1008.3 |
| 20260509205457 | 69 | 330 | 1.7 | 7.0 | 0.00 | 0.00 | 0.00 | 66 | 1008.3 |
| 20260509205334 | 69 | 333 | 1.7 | 7.8 | 0.00 | 0.00 | 0.00 | 66 | 1008.3 |